Date StartTime U_cm/s V_cm/s W_cm/s Ustd_cm/s Vstd_cm/s Wstd_cm/s Uvar_(cm/s)^2 Vvar_(cm/s)^2 Wvar_(cm/s)^2 KE_(m/s)^2 TurbulentKE_(m/s)^2 HorizWindSpeed_cm/s FrictionSpeec_cm/s DragCoef SpeedOfSound_m/s SonicTemperature_C Pressure_mb 
01/03/2014  00:00:00     -138.629        0.432      -23.221       30.921       20.377       18.791      956.098      415.222      353.109        1.074        0.086      138.630       18.236        0.017      332.236        0.770      864.756
01/03/2014  00:01:00     -123.557       -8.368      -18.995       26.796       18.404       14.210      718.018      338.698      201.913        0.848        0.063      123.841       10.895        0.008      332.220        0.742      864.757
01/03/2014  00:02:00     -113.508       -0.256      -19.214       19.232       17.596       13.617      369.888      309.621      185.433        0.706        0.043      113.509       10.431        0.008      332.295        0.865      864.756
01/03/2014  00:03:00     -131.819       -4.594      -19.563       13.136       14.111       12.396      172.568      199.119      153.651        0.915        0.026      131.899        8.104        0.004      332.377        0.999      864.741
01/03/2014  00:04:00     -106.743      -14.988      -17.001       27.836       23.780       15.610      774.818      565.511      243.684        0.675        0.079      107.790       16.223        0.023      332.308        0.886      864.725
01/03/2014  00:05:00     -122.621      -15.656      -16.324       24.190       20.352       16.200      585.178      414.215      262.436        0.840        0.063      123.616       14.902        0.015      332.358        0.968      864.715
01/03/2014  00:06:00     -110.695       -4.302      -15.595       21.170       15.263       14.258      448.180      232.956      203.289        0.670        0.044      110.778        5.582        0.003      332.388        1.016      864.709
01/03/2014  00:07:00     -100.534      -14.237      -14.854       19.989       15.936       12.500      399.543      253.972      156.242        0.567        0.040      101.537        9.781        0.009      332.321        0.907      864.715
01/03/2014  00:08:00      -89.336      -26.527      -10.501       22.067       23.255       16.712      486.939      540.786      279.302        0.505        0.065       93.191       14.004        0.023      332.293        0.860      864.714
01/03/2014  00:09:00      -98.555      -30.980      -12.286       16.980       23.249       13.977      288.324      540.531      195.361        0.592        0.051      103.309       12.254        0.014      332.274        0.831      864.706
01/03/2014  00:10:00      -93.900      -29.911      -12.495       22.007       19.920       13.446      484.324      396.817      180.785        0.546        0.053       98.549       10.789        0.012      332.270        0.824      864.705
01/03/2014  00:11:00     -104.008      -41.030      -19.561       26.201       22.526       14.331      686.477      507.401      205.390        0.714        0.070      111.808       12.063        0.012      332.221        0.744      864.708
01/03/2014  00:12:00     -103.933      -35.916       -5.998       37.531       33.795       21.457     1408.545     1142.077      460.389        0.757        0.151      109.964       16.580        0.023      332.183        0.680      864.713
01/03/2014  00:13:00     -135.522      -29.078       -6.788       35.202       27.536       18.830     1239.153      758.242      354.555        1.080        0.118      138.606       17.466        0.016      332.209        0.724      864.724
01/03/2014  00:14:00     -108.290      -14.651       -2.428       44.685       45.171       23.719     1996.767     2040.411      562.581        0.827        0.230      109.276       23.290        0.045      332.181        0.678      864.732
01/03/2014  00:15:00      -88.750        1.675       -1.031       62.036       34.441       20.982     3848.453     1186.163      440.242        0.668        0.274       88.766       22.865        0.066      332.238        0.772      864.732
01/03/2014  00:16:00      -40.422        3.895       -4.480       37.891       26.962       19.905     1435.729      726.964      396.211        0.211        0.128       40.609       17.179        0.179      332.276        0.833      864.727
01/03/2014  00:17:00      -80.184       -1.895       -3.325       32.711       28.156       20.435     1069.997      792.776      417.578        0.436        0.114       80.206       13.257        0.027      332.404        1.044      864.727
01/03/2014  00:18:00     -120.828       12.505       -9.108       41.344       40.275       25.037     1709.327     1622.036      626.844        0.940        0.198      121.473       22.317        0.034      332.415        1.061      864.735
01/03/2014  00:19:00     -154.183       36.196      -12.327       48.226       34.138       18.698     2325.750     1165.412      349.609        1.454        0.192      158.375       16.173        0.010      332.599        1.365      864.740
01/03/2014  00:20:00     -150.270       25.466      -10.121       37.402       26.778       18.315     1398.932      717.059      335.431        1.289        0.123      152.412       14.760        0.009      332.527        1.247      864.740
01/03/2014  00:21:00     -141.224        1.127       -8.808       46.853       29.559       22.819     2195.244      873.736      520.716        1.181        0.179      141.229       23.286        0.027      332.493        1.192      864.747
01/03/2014  00:22:00     -156.708       10.754      -15.340       34.303       31.844       29.576     1176.711     1014.067      874.722        1.399        0.153      157.077       20.883        0.018      332.473        1.158      864.749
01/03/2014  00:23:00     -143.059        5.037      -10.073       31.131       34.595       21.253      969.146     1196.826      451.699        1.160        0.131      143.148       15.890        0.012      332.467        1.148      864.762
01/03/2014  00:24:00     -182.250        6.998      -16.816       36.775       37.142       24.084     1352.413     1379.532      580.029        1.843        0.166      182.384       20.223        0.012      332.747        1.610      864.771
01/03/2014  00:25:00     -180.709       31.507      -16.404       40.587       27.900       23.645     1647.344      778.396      559.063        1.845        0.149      183.435       17.772        0.009      332.723        1.571      864.776
01/03/2014  00:26:00     -160.202      -13.790      -18.485       35.393       33.516       19.124     1252.645     1123.306      365.718        1.447        0.137      160.794       17.984        0.013      332.564        1.308      864.774
01/03/2014  00:27:00     -193.959       35.610      -17.867       41.555       33.235       16.491     1726.829     1104.537      271.942        2.115        0.155      197.201       12.919        0.004      332.680        1.498      864.761
01/03/2014  00:28:00     -195.395       45.639      -15.315       38.871       20.771       18.964     1510.986      431.425      359.642        2.140        0.115      200.654       11.554        0.003      332.736        1.592      864.735
01/03/2014  00:29:00     -160.922       19.304      -17.156       55.932       33.663       21.612     3128.430     1133.209      467.079        1.564        0.236      162.076       18.471        0.013      332.658        1.463      864.715
01/03/2014  00:30:00     -175.525       -1.947      -14.852       45.809       42.797       24.134     2098.467     1831.545      582.470        1.777        0.226      175.535       25.470        0.021      332.698        1.529      864.706
01/03/2014  00:31:00     -163.869      -57.843      -15.645       36.955       33.587       23.052     1365.698     1128.089      531.374        1.673        0.151      173.778       18.039        0.011      332.563        1.306      864.704
01/03/2014  00:32:00     -155.884      -31.678      -12.409       44.045       43.966       25.283     1939.950     1933.036      639.255        1.498        0.226      159.070       26.015        0.027      332.501        1.203      864.709
01/03/2014  00:33:00     -140.494      -26.255       -9.166       55.528       41.565       27.324     3083.327     1727.646      746.619        1.303        0.278      142.926       31.007        0.047      332.376        0.997      864.704
01/03/2014  00:34:00     -180.761       19.757      -24.842       59.474       42.146       29.137     3537.186     1776.306      848.939        1.992        0.308      181.837       26.167        0.021      332.405        1.044      864.690
01/03/2014  00:35:00     -193.348       12.406      -13.332       40.719       38.148       25.456     1658.027     1455.243      647.990        2.074        0.188      193.746       23.951        0.015      332.446        1.113      864.662
01/03/2014  00:36:00     -155.752       -2.221      -14.126       47.210       48.194       27.119     2228.750     2322.674      735.461        1.487        0.264      155.768       25.259        0.026      332.424        1.077      864.647
01/03/2014  00:37:00     -175.234       -5.610      -18.013       44.771       52.940       33.187     2004.421     2802.657     1101.398        1.848        0.295      175.324       27.108        0.024      332.405        1.045      864.628
01/03/2014  00:38:00     -127.679      -34.000      -12.059       60.046       35.730       29.588     3605.506     1276.609      875.443        1.168        0.288      132.128       24.696        0.035      332.392        1.025      864.596
01/03/2014  00:39:00     -114.785       13.093      -11.092       38.190       42.800       30.907     1458.449     1831.830      955.226        0.886        0.212      115.529       18.777        0.026      332.413        1.057      864.573
01/03/2014  00:40:00     -114.457      -24.742      -15.457       36.614       39.146       22.124     1340.618     1532.447      489.463        0.866        0.168      117.101       13.589        0.013      332.393        1.027      864.567
01/03/2014  00:41:00     -126.643        4.104      -12.585       33.955       33.693       23.510     1152.946     1135.222      552.732        0.953        0.142      126.709       20.901        0.027      332.406        1.048      864.574
01/03/2014  00:42:00     -140.357       34.737       -9.601       43.928       29.507       21.261     1929.684      870.679      452.010        1.213        0.163      144.592       13.563        0.009      332.316        0.901      864.585
01/03/2014  00:43:00     -138.030       31.652      -12.434       30.514       30.467       20.174      931.098      928.246      406.988        1.124        0.113      141.612       10.649        0.006      332.366        0.982      864.582
01/03/2014  00:44:00     -158.888       31.418      -10.242       28.792       30.861       20.105      828.984      952.392      404.193        1.426        0.109      161.965       11.619        0.005      332.354        0.963      864.587
01/03/2014  00:45:00     -176.501       46.894      -13.911       29.183       25.504       17.783      851.639      650.460      316.223        1.768        0.091      182.624        9.848        0.003      332.335        0.931      864.583
01/03/2014  00:46:00     -122.068       32.369      -13.132       35.123       23.569       19.074     1233.656      555.501      363.802        0.914        0.108      126.287       13.693        0.012      332.296        0.866      864.581
01/03/2014  00:47:00     -128.976       22.084      -11.074       29.218       31.992       16.933      853.689     1023.486      286.713        0.970        0.108      130.853       13.185        0.010      332.362        0.975      864.577
01/03/2014  00:48:00     -170.294       22.143      -16.718       22.996       23.376       17.330      528.795      546.454      300.334        1.557        0.069      171.728       11.207        0.004      332.360        0.971      864.579
01/03/2014  00:49:00     -168.540       17.737      -13.843       33.160       28.559       21.134     1099.596      815.594      446.634        1.564        0.118      169.471       14.386        0.007      332.412        1.057      864.591
01/03/2014  00:50:00     -172.989       36.742      -16.762       34.269       24.824       20.065     1174.372      616.232      402.607        1.687        0.110      176.848       11.213        0.004      332.470        1.153      864.622
01/03/2014  00:51:00     -178.297       18.190      -16.539       36.259       35.490       20.362     1314.740     1259.567      414.631        1.769        0.149      179.222       17.436        0.009      332.480        1.169      864.646
01/03/2014  00:52:00     -196.503       38.028      -17.095       31.080       26.224       16.137      965.986      687.714      260.390        2.113        0.096      200.149        8.660        0.002      332.391        1.022      864.661
01/03/2014  00:53:00     -187.342       44.121      -13.446       33.463       23.964       16.403     1119.799      574.295      269.055        1.959        0.098      192.467       12.696        0.004      332.388        1.019      864.659
01/03/2014  00:54:00     -107.283       35.865      -10.167       69.070       36.180       24.714     4770.616     1308.986      610.798        0.979        0.335      113.120       26.411        0.055      332.383        1.010      864.657
01/03/2014  00:55:00     -103.735       21.858       -8.463       49.343       27.304       22.944     2434.757      745.507      526.445        0.751        0.185      106.013       20.006        0.036      332.347        0.949      864.667
01/03/2014  00:56:00      -60.935      -11.459       -6.000       36.012       24.335       18.844     1296.875      592.168      355.097        0.306        0.112       62.003       14.787        0.057      332.475        1.161      864.657
01/03/2014  00:57:00      -27.796      -26.867       -0.371       25.103       15.099       13.005      630.146      227.991      169.121        0.126        0.051       38.658       10.902        0.080      332.347        0.949      864.649
01/03/2014  00:58:00      -44.518      -25.566       -2.659       18.917       14.760       13.758      357.861      217.872      189.282        0.170        0.038       51.337        8.480        0.027      332.310        0.889      864.648
01/03/2014  00:59:00      -55.299      -25.361       -3.039       22.522       12.496        9.635      507.223      156.159       92.833        0.223        0.038       60.837        3.807        0.004      332.203        0.714      864.648
01/03/2014  01:00:00      -60.553      -15.765       -3.588       16.063       16.992        5.725      258.016      288.719       32.778        0.225        0.029       62.572        4.157        0.004      332.263        0.813      864.652
01/03/2014  01:01:00      -40.546      -11.785       -6.252        7.799        6.456        6.599       60.824       41.684       43.550        0.098        0.007       42.224        2.814        0.004      332.300        0.869      864.649
01/03/2014  01:02:00      -34.714       -7.824       -3.219       10.747        9.097        6.315      115.498       82.748       39.874        0.076        0.012       35.585        4.555        0.016      332.297        0.866      864.641
01/03/2014  01:03:00      -18.075        5.167       -2.717       10.743        7.381        6.365      115.408       54.475       40.516        0.029        0.011       18.799        4.707        0.063      332.321        0.906      864.635
01/03/2014  01:04:00       18.194       11.016        0.611       12.972        5.779        4.403      168.282       33.392       19.385        0.034        0.011       21.269        3.210        0.023      332.421        1.072      864.614
01/03/2014  01:05:00       36.561       17.346       -3.616        4.028        7.532        3.394       16.222       56.731       11.518        0.087        0.004       40.467        1.973        0.002      332.392        1.023      864.601
01/03/2014  01:06:00       30.585       27.938       -2.457        7.807        6.299        5.454       60.951       39.678       29.746        0.093        0.007       41.424        5.115        0.015      332.289        0.857      864.584
01/03/2014  01:07:00       38.859       28.383        1.967        8.284        7.365        5.522       68.627       54.240       30.490        0.124        0.008       48.121        3.752        0.006      332.256        0.798      864.573
01/03/2014  01:08:00       49.621       26.600       -1.690        4.719        4.591        4.848       22.270       21.077       23.504        0.162        0.003       56.301        3.493        0.004      332.350        0.954      864.565
01/03/2014  01:09:00       58.130       29.026        4.633       11.223        8.738       10.388      125.961       76.357      107.906        0.228        0.016       64.973        7.186        0.012      332.259        0.808      864.570
01/03/2014  01:10:00       15.437       15.312       16.467       20.300       14.632       12.469      412.097      214.102      155.473        0.076        0.039       21.743        9.375        0.186      332.340        0.937      864.575
01/03/2014  01:11:00        0.172      -25.087        8.441        9.143       14.672       11.886       83.598      215.275      141.269        0.057        0.022       25.087        7.538        0.090      332.440        1.102      864.585
01/03/2014  01:12:00       -5.951      -20.302        1.363       18.119        6.576        8.528      328.308       43.238       72.725        0.045        0.022       21.157        4.021        0.036      332.256        0.800      864.597
01/03/2014  01:13:00      -31.739      -21.285       -1.078       10.742        9.523        6.820      115.394       90.678       46.515        0.086        0.013       38.215        3.122        0.007      332.062        0.481      864.606
01/03/2014  01:14:00      -55.614      -29.129       -5.299        9.061       11.324        4.989       82.100      128.243       24.889        0.210        0.012       62.781        2.330        0.001      332.039        0.442      864.617
01/03/2014  01:15:00      -63.358      -28.090       -8.346        9.183        6.810        6.263       84.319       46.375       39.222        0.252        0.008       69.305        2.542        0.001      332.145        0.617      864.626
01/03/2014  01:16:00      -64.869      -23.346      -11.082        7.454        9.025        8.147       55.560       81.453       66.369        0.254        0.010       68.942        4.205        0.004      332.201        0.710      864.627
01/03/2014  01:17:00      -73.826      -23.978      -10.794        7.260        8.982        6.612       52.704       80.669       43.725        0.316        0.009       77.623        3.184        0.002      332.153        0.630      864.633
01/03/2014  01:18:00      -82.615      -24.164       -8.003       16.261       11.267        8.874      264.425      126.954       78.749        0.397        0.024       86.076        5.322        0.004      332.129        0.592      864.645
01/03/2014  01:19:00      -87.344      -22.267       -6.682       15.502       15.234       12.107      240.315      232.079      146.577        0.439        0.031       90.138        7.413        0.007      331.989        0.359      864.651
01/03/2014  01:20:00     -103.397      -35.980       -5.318       14.263       13.862        7.975      203.419      192.166       63.599        0.624        0.023      109.478        5.003        0.002      331.999        0.377      864.648
01/03/2014  01:21:00     -103.182      -33.818       -4.362       26.935       15.148       13.277      725.490      229.448      176.268        0.647        0.057      108.583       13.959        0.017      332.050        0.460      864.653
01/03/2014  01:22:00      -87.781      -26.007        0.462       26.662       17.250       13.885      710.851      297.570      192.792        0.479        0.060       91.552       15.631        0.029      332.063        0.483      864.654
01/03/2014  01:23:00      -51.180      -25.976        3.882       27.125       20.242       13.296      735.779      409.735      176.788        0.232        0.066       57.394       11.444        0.040      332.076        0.503      864.643
01/03/2014  01:24:00      -75.179      -32.491       -2.250       23.554       16.098       10.964      554.773      259.137      120.218        0.382        0.047       81.900        7.021        0.007      332.004        0.385      864.621
01/03/2014  01:25:00      -76.887      -25.982       -5.790       15.382       12.578        8.674      236.613      158.201       75.239        0.355        0.024       81.158        6.158        0.006      332.055        0.470      864.611
01/03/2014  01:26:00      -72.545      -21.197       -9.095       18.123       15.302       11.484      328.461      234.140      131.884        0.324        0.035       75.578        8.560        0.013      332.109        0.558      864.600
01/03/2014  01:27:00      -78.374      -12.649       -5.122       11.649       10.423        7.404      135.705      108.642       54.823        0.331        0.015       79.388        5.912        0.006      332.144        0.615      864.596
01/03/2014  01:28:00      -64.623      -30.468       -6.472       10.365       11.107        9.676      107.440      123.364       93.628        0.274        0.016       71.445        3.610        0.003      332.122        0.579      864.595
01/03/2014  01:29:00      -71.638      -20.053       -8.989       11.617       11.288        9.743      134.961      127.421       94.918        0.299        0.018       74.392        6.209        0.007      332.096        0.538      864.593
01/03/2014  01:30:00      -84.194      -34.205       -9.693       10.112       13.402        9.770      102.252      179.619       95.457        0.436        0.019       90.877        5.930        0.004      332.048        0.457      864.590
01/03/2014  01:31:00      -77.134      -38.441       -7.542       10.043       13.733        8.936      100.852      188.584       79.847        0.393        0.018       86.182        4.136        0.002      332.027        0.424      864.592
01/03/2014  01:32:00      -72.280      -38.875       -4.522       16.233       14.094        9.135      263.518      198.635       83.455        0.365        0.027       82.071        6.293        0.006      332.046        0.454      864.576
01/03/2014  01:33:00      -74.443      -44.770        1.794       26.375       18.940       13.728      695.639      358.732      188.463        0.440        0.062       86.868        9.251        0.011      332.074        0.500      864.570
01/03/2014  01:34:00      -96.567      -41.992       -0.225       17.436       19.946       13.976      304.025      397.832      195.329        0.599        0.045      105.302       14.080        0.018      332.041        0.446      864.566
01/03/2014  01:35:00      -94.726      -32.943       -0.780       23.454       15.301       12.664      550.090      234.118      160.367        0.550        0.047      100.290       10.595        0.011      332.064        0.484      864.566
01/03/2014  01:36:00      -76.787      -29.758        2.708       35.511       18.451       16.358     1261.046      340.454      267.568        0.433        0.093       82.352       18.423        0.050      332.072        0.497      864.576
01/03/2014  01:37:00      -88.211      -31.111       -1.958       19.681       18.275       13.293      387.327      333.965      176.707        0.483        0.045       93.537        7.657        0.007      332.066        0.488      864.584
01/03/2014  01:38:00      -89.696      -20.569       -2.456       35.809       20.543       16.886     1282.310      422.003      285.140        0.523        0.099       92.024       20.009        0.047      331.956        0.304      864.583
01/03/2014  01:39:00      -74.532      -19.301       -1.850       26.134       19.511       12.559      682.987      380.663      157.735        0.358        0.061       76.991       12.018        0.024      332.042        0.449      864.575
01/03/2014  01:40:00      -68.582      -24.970       -1.697       21.999       18.338       13.980      483.949      336.295      195.435        0.317        0.051       72.987       13.789        0.036      332.107        0.554      864.557
01/03/2014  01:41:00      -48.160      -19.497        2.642       26.123       16.240       11.042      682.423      263.727      121.929        0.189        0.053       51.957       12.722        0.060      332.134        0.600      864.524
01/03/2014  01:42:00      -35.922      -26.216        1.329       15.739       16.485       10.550      247.702      271.771      111.302        0.130        0.032       44.471        7.730        0.030      332.156        0.634      864.503
01/03/2014  01:43:00      -40.805      -12.698       -1.494        8.636        9.053        8.786       74.576       81.962       77.186        0.103        0.012       42.735        5.392        0.016      332.190        0.693      864.485
01/03/2014  01:44:00      -39.155        4.308       -2.611        7.667       10.083        4.305       58.790      101.671       18.534        0.087        0.009       39.391        3.620        0.008      332.166        0.653      864.475
01/03/2014  01:45:00      -17.556        5.929       -1.138        8.909        6.271        4.353       79.362       39.328       18.949        0.024        0.007       18.530        4.479        0.058      332.129        0.592      864.475
01/03/2014  01:46:00        7.120       13.240       -3.930       10.048        7.225        4.049      100.964       52.202       16.398        0.021        0.008       15.033        5.413        0.130      332.177        0.670      864.476
01/03/2014  01:47:00       12.863        8.687       -2.824       11.777        9.708        9.393      138.695       94.252       88.229        0.028        0.016       15.522        7.345        0.224      332.158        0.637      864.470
01/03/2014  01:48:00        0.365        3.071       -4.007        6.893        5.339        6.247       47.516       28.504       39.022        0.007        0.006        3.093        5.050        2.666      332.143        0.616      864.458
01/03/2014  01:49:00      -21.247        4.383       -2.199        9.511        4.723        4.721       90.453       22.306       22.292        0.031        0.007       21.695        4.004        0.034      332.142        0.611      864.443
01/03/2014  01:50:00      -19.199       -1.229       -5.836        5.631        4.126        5.509       31.714       17.027       30.349        0.024        0.004       19.239        3.080        0.026      332.152        0.628      864.432
01/03/2014  01:51:00      -39.990      -15.625       -1.680       10.845        7.891        5.361      117.608       62.262       28.742        0.103        0.010       42.934        4.067        0.009      332.151        0.627      864.429
01/03/2014  01:52:00      -63.551      -17.242       -8.635        7.454        6.785        4.963       55.557       46.032       24.630        0.227        0.006       65.849        3.252        0.002      332.052        0.465      864.438
01/03/2014  01:53:00      -59.353       -3.238       -9.000        6.689        7.770        7.647       44.749       60.372       58.474        0.189        0.008       59.442        3.271        0.003      331.905        0.223      864.458
01/03/2014  01:54:00      -70.805        1.046      -10.549       14.002        8.386        8.212      196.069       70.327       67.432        0.273        0.017       70.813        2.912        0.002      331.899        0.209      864.469
01/03/2014  01:55:00      -92.076       -6.572      -12.523       11.228        9.472        7.956      126.065       89.722       63.305        0.448        0.014       92.310        3.956        0.002      331.952        0.297      864.488
01/03/2014  01:56:00     -100.952      -18.901      -13.588       12.396       11.626        8.629      153.655      135.164       74.458        0.555        0.018      102.706        5.082        0.002      331.747       -0.037      864.497
01/03/2014  01:57:00      -89.354        2.527       -9.720       12.601        9.215        7.548      158.781       84.908       56.974        0.419        0.015       89.389        5.549        0.004      331.755       -0.025      864.501
01/03/2014  01:58:00      -61.524        5.450       -9.443       14.255        7.934        7.209      203.202       62.943       51.969        0.211        0.016       61.765        5.877        0.009      331.979        0.344      864.501
01/03/2014  01:59:00      -63.442       -6.028       -7.737       14.426       10.423        8.494      208.113      108.642       72.144        0.225        0.019       63.727        7.966        0.016      331.898        0.210      864.496
01/03/2014  02:00:00      -76.466      -12.957       -7.926        6.824        8.644        5.320       46.569       74.716       28.297        0.311        0.007       77.556        4.443        0.003      331.935        0.271      864.486
01/03/2014  02:01:00      -61.572      -21.920       -5.160        8.294        8.697        6.912       68.790       75.636       47.773        0.225        0.010       65.357        5.136        0.006      331.854        0.137      864.477
01/03/2014  02:02:00      -50.793      -10.738       -8.422        8.255       11.307        6.318       68.141      127.839       39.918        0.150        0.012       51.916        3.621        0.005      331.836        0.108      864.464
01/03/2014  02:03:00      -37.854      -17.295      -13.878       11.514       12.116        6.777      132.564      146.795       45.930        0.112        0.016       41.618        1.474        0.001      331.877        0.177      864.458
01/03/2014  02:04:00      -37.970      -24.812      -12.472       15.311        9.812        8.241      234.439       96.271       67.914        0.131        0.020       45.358        4.896        0.012      331.806        0.058      864.450
01/03/2014  02:05:00      -75.155      -18.052       -9.708       11.977       13.568        6.944      143.451      184.097       48.220        0.322        0.019       77.293        5.801        0.006      331.747       -0.039      864.446
01/03/2014  02:06:00     -104.103       -2.572      -13.318        9.802        9.634       10.637       96.086       92.805      113.147        0.566        0.015      104.135        5.396        0.003      331.663       -0.176      864.439
01/03/2014  02:07:00     -100.233      -24.289      -16.880       21.651       16.002       12.062      468.761      256.065      145.482        0.590        0.044      103.134       12.418        0.014      331.673       -0.158      864.435
01/03/2014  02:08:00     -110.498      -17.131       -9.454       30.362       13.445       13.850      921.841      180.758      191.822        0.694        0.065      111.818       16.788        0.023      331.746       -0.040      864.437
01/03/2014  02:09:00     -131.522       -3.435      -17.697       15.244       14.099       11.265      232.387      198.789      126.908        0.909        0.028      131.567        3.564        0.001      331.719       -0.084      864.439
01/03/2014  02:10:00      -72.119      -12.249       -6.390       22.072       27.547       16.871      487.174      758.834      284.632        0.346        0.077       73.151       12.039        0.027      331.647       -0.203      864.447
01/03/2014  02:11:00      -34.506       -1.503       -0.632       34.202       28.707       16.758     1169.801      824.065      280.825        0.173        0.114       34.539       19.093        0.306      331.695       -0.124      864.450
01/03/2014  02:12:00      -37.179       -5.541       -5.602       26.448       16.205       13.413      699.521      262.602      179.896        0.129        0.057       37.589       10.692        0.081      331.674       -0.158      864.464
01/03/2014  02:13:00      -34.755      -11.842       -3.838       26.658       16.711       12.866      710.669      279.273      165.533        0.126        0.058       36.717       11.897        0.105      331.684       -0.143      864.476
01/03/2014  02:14:00      -49.136        1.431      -10.820       16.754       11.785        8.755      280.705      138.876       76.642        0.151        0.025       49.157        5.968        0.015      331.726       -0.073      864.471
01/03/2014  02:15:00      -43.249       -5.812       -5.089        6.403        8.485        5.217       40.997       71.999       27.220        0.104        0.007       43.638        2.721        0.004      331.891        0.199      864.464
01/03/2014  02:16:00      -46.727      -19.584       -9.936       20.189       13.023        9.205      407.595      169.604       84.732        0.166        0.033       50.665        4.410        0.008      331.849        0.129      864.465
01/03/2014  02:17:00      -68.525        2.425       -7.487       23.919       16.854       15.164      572.119      284.066      229.948        0.292        0.054       68.568       15.430        0.051      331.744       -0.044      864.458
01/03/2014  02:18:00      -94.930       -0.559      -13.707       21.298       21.793       12.070      453.626      474.945      145.674        0.514        0.054       94.932        9.524        0.010      331.705       -0.107      864.455
01/03/2014  02:19:00      -79.558       -9.670      -14.663       16.595       10.122       10.275      275.405      102.448      105.569        0.356        0.024       80.144        6.862        0.007      331.619       -0.249      864.444
01/03/2014  02:20:00      -87.334      -23.625      -12.880       18.222       11.119       10.180      332.034      123.626      103.638        0.446        0.028       90.473        8.580        0.009      331.584       -0.307      864.435
01/03/2014  02:21:00      -77.675      -34.532      -12.771       19.561       18.496       12.259      382.618      342.087      150.275        0.413        0.044       85.005        8.475        0.010      331.547       -0.367      864.439
01/03/2014  02:22:00      -90.358      -32.455      -12.796       15.022       13.522        8.387      225.672      182.845       70.344        0.493        0.024       96.010        4.341        0.002      331.557       -0.351      864.443
01/03/2014  02:23:00      -90.432      -14.848      -10.978       21.404       21.865       13.596      458.111      478.088      184.865        0.482        0.056       91.643       10.352        0.013      331.627       -0.236      864.450
01/03/2014  02:24:00      -93.634      -11.103      -10.797       27.454       18.534       13.252      753.708      343.513      175.626        0.514        0.064       94.290       10.601        0.013      331.659       -0.182      864.445
01/03/2014  02:25:00      -80.422      -16.035      -10.884       21.848       22.570       19.721      477.346      509.408      388.918        0.411        0.069       82.005       11.439        0.019      331.616       -0.254      864.426
01/03/2014  02:26:00      -56.761      -37.841       -6.130       20.400       31.917       13.200      416.160     1018.684      174.234        0.315        0.080       68.219       13.112        0.037      331.580       -0.313      864.399
01/03/2014  02:27:00      -42.616      -17.602       -8.446       15.688       13.503       11.564      246.122      182.326      133.717        0.138        0.028       46.108        7.834        0.029      331.590       -0.298      864.380
01/03/2014  02:28:00      -65.974      -32.887      -11.075       12.382       18.289       10.750      153.310      334.498      115.553        0.308        0.030       73.717        9.331        0.016      331.632       -0.228      864.392
01/03/2014  02:29:00      -78.492      -31.910       -8.248       24.454       17.859       12.485      597.980      318.948      155.886        0.416        0.054       84.731       11.468        0.018      331.609       -0.267      864.411
01/03/2014  02:30:00      -83.347      -13.623      -12.562       17.766       16.879       12.771      315.631      284.903      163.097        0.403        0.038       84.453       10.280        0.015      331.553       -0.359      864.412
01/03/2014  02:31:00      -75.524       -5.930       -7.061       25.691       11.403       10.412      660.004      130.023      108.410        0.334        0.045       75.757       11.497        0.023      331.520       -0.413      864.404
01/03/2014  02:32:00      -83.030      -13.804      -13.392       10.292       14.799        8.666      105.936      219.008       75.104        0.383        0.020       84.169        8.253        0.010      331.514       -0.423      864.389
01/03/2014  02:33:00      -68.407       -5.919      -11.026       16.834       10.584        6.771      283.399      112.028       45.841        0.264        0.022       68.663        6.801        0.010      331.531       -0.394      864.371
01/03/2014  02:34:00      -56.736       -0.216      -20.443       10.879        8.245        9.320      118.359       67.982       86.858        0.195        0.014       56.736        7.885        0.019      331.624       -0.241      864.356
01/03/2014  02:35:00      -54.153      -17.588      -11.960       12.782        8.999        6.497      163.368       80.979       42.210        0.184        0.014       56.937        5.276        0.009      331.606       -0.271      864.358
01/03/2014  02:36:00      -53.627      -19.037      -10.207       13.864       14.214        9.687      192.219      202.025       93.845        0.192        0.024       56.906        3.900        0.005      331.611       -0.261      864.359
01/03/2014  02:37:00      -74.290      -12.790      -11.474        8.415       10.144        9.131       70.809      102.893       83.373        0.304        0.013       75.383        2.810        0.001      331.569       -0.330      864.355
01/03/2014  02:38:00      -71.267       -2.076       -9.201       10.741        7.988        7.733      115.370       63.816       59.795        0.270        0.012       71.297        4.299        0.004      331.608       -0.267      864.337
01/03/2014  02:39:00      -63.844      -11.002       -5.384       10.351       18.430        8.569      107.145      339.657       73.426        0.237        0.026       64.786        6.342        0.010      331.628       -0.235      864.327
01/03/2014  02:40:00      -71.496      -23.688      -11.942       20.654       14.512       10.093      426.586      210.591      101.860        0.328        0.037       75.318        8.159        0.012      331.580       -0.315      864.313
01/03/2014  02:41:00      -78.569      -46.407      -11.620       10.757       11.790        7.579      115.711      138.993       57.436        0.439        0.016       91.251        4.200        0.002      331.549       -0.365      864.310
01/03/2014  02:42:00      -68.655      -36.416      -11.009       15.538       14.762        9.620      241.421      217.921       92.545        0.336        0.028       77.715        7.074        0.008      331.575       -0.323      864.303
01/03/2014  02:43:00      -83.588      -13.710      -13.722        6.728        7.624        6.213       45.271       58.123       38.602        0.375        0.007       84.705        4.224        0.002      331.624       -0.242      864.291
01/03/2014  02:44:00      -66.283      -18.299      -11.845       10.100        5.984        5.299      102.006       35.813       28.075        0.252        0.008       68.762        2.634        0.001      331.657       -0.184      864.280
01/03/2014  02:45:00      -69.350      -25.896       -8.049       12.955       10.335        7.873      167.821      106.810       61.986        0.294        0.017       74.027        5.028        0.005      331.706       -0.106      864.279
01/03/2014  02:46:00      -53.645      -30.878       -8.668        7.523        8.048        5.746       56.589       64.763       33.022        0.203        0.008       61.897        3.458        0.003      331.760       -0.018      864.280
01/03/2014  02:47:00      -72.375      -24.884       -6.981       18.251        9.796        7.302      333.081       95.970       53.313        0.319        0.024       76.534        2.753        0.001      331.727       -0.070      864.284
01/03/2014  02:48:00      -91.961      -19.745       -7.353       17.050       10.757       11.430      290.699      115.714      130.649        0.472        0.027       94.057        9.272        0.010      331.660       -0.180      864.293
01/03/2014  02:49:00      -82.608      -19.437       -8.590       11.661       11.332        9.039      135.987      128.404       81.709        0.381        0.017       84.864        7.044        0.007      331.624       -0.242      864.281
01/03/2014  02:50:00     -100.359      -31.441      -10.750       12.969       16.560        9.180      168.188      274.247       84.274        0.585        0.026      105.169        5.958        0.003      331.629       -0.233      864.275
01/03/2014  02:51:00      -81.697      -21.629       -8.249       24.682       20.547       11.555      609.195      422.198      133.512        0.419        0.058       84.511       11.646        0.019      331.593       -0.293      864.275
01/03/2014  02:52:00      -72.378      -16.343       -5.203       16.718       13.592       10.572      279.491      184.752      111.770        0.305        0.029       74.201        9.420        0.016      331.652       -0.194      864.276
01/03/2014  02:53:00      -89.884      -18.900       -7.428       13.696       15.130       10.683      187.591      228.917      114.123        0.451        0.027       91.849        7.982        0.008      331.631       -0.227      864.282
01/03/2014  02:54:00      -93.428      -11.420      -10.498        9.838       15.240        7.293       96.779      232.267       53.194        0.468        0.019       94.123        5.193        0.003      331.620       -0.247      864.290
01/03/2014  02:55:00      -72.679       -9.785       -5.285       11.778       11.156        8.902      138.727      124.452       79.253        0.287        0.017       73.335        6.890        0.009      331.677       -0.152      864.292
01/03/2014  02:56:00      -59.451      -17.309       -5.857       11.721        9.131        7.102      137.390       83.381       50.432        0.207        0.014       61.919        3.813        0.004      331.730       -0.067      864.293
01/03/2014  02:57:00      -79.370      -49.910       -6.469       10.570       11.087        7.674      111.717      122.923       58.894        0.456        0.015       93.758        5.481        0.003      331.716       -0.087      864.295
01/03/2014  02:58:00      -67.453      -41.069       -1.458       15.321       13.243       10.946      234.741      175.374      119.814        0.338        0.026       78.972        5.559        0.005      331.593       -0.291      864.288
01/03/2014  02:59:00      -59.845      -11.755       -2.972       15.242       12.978        9.768      232.318      168.434       95.410        0.211        0.025       60.988        7.897        0.017      331.542       -0.376      864.268
01/03/2014  03:00:00      -69.440      -16.876       -4.478       13.481       14.109        9.600      181.724      199.057       92.167        0.280        0.024       71.462        7.356        0.011      331.514       -0.422      864.247
01/03/2014  03:01:00      -38.413       -7.745       -5.724       16.816       11.650        8.080      282.764      135.725       65.294        0.103        0.024       39.187        5.430        0.019      331.522       -0.409      864.233
01/03/2014  03:02:00      -40.524      -23.968       -7.984       10.140       15.490        7.387      102.824      239.928       54.573        0.134        0.020       47.081        5.061        0.012      331.609       -0.266      864.218
01/03/2014  03:03:00      -39.071      -13.079       -4.091        9.780       12.594        4.824       95.641      158.603       23.271        0.100        0.014       41.202        4.398        0.011      331.609       -0.265      864.213
01/03/2014  03:04:00       -6.409        6.261       -1.038        7.427        7.614        4.036       55.167       57.967       16.293        0.011        0.006        8.960        4.202        0.220      331.652       -0.195      864.193
01/03/2014  03:05:00      -28.830       -2.719       -4.808       12.530       12.638        8.249      157.005      159.729       68.052        0.062        0.019       28.958       10.723        0.137      331.767       -0.007      864.170
01/03/2014  03:06:00       -2.389      -25.341        7.837       11.589       12.244       13.933      134.305      149.918      194.126        0.059        0.024       25.453        7.997        0.099      331.605       -0.272      864.166
01/03/2014  03:07:00       -8.918      -17.829        3.494       10.015        5.714        5.681      100.308       32.655       32.275        0.029        0.008       19.935        5.058        0.064      331.542       -0.374      864.157
01/03/2014  03:08:00      -37.163      -16.641       -5.065        6.676        6.036        4.808       44.573       36.436       23.114        0.089        0.005       40.718        2.733        0.005      331.629       -0.235      864.146
01/03/2014  03:09:00      -38.821      -14.491       -4.490        6.990        6.248        6.040       48.859       39.042       36.476        0.093        0.006       41.437        4.221        0.010      331.554       -0.359      864.148
01/03/2014  03:10:00      -46.256      -15.385       -6.688        9.250        8.600        5.172       85.556       73.959       26.753        0.130        0.009       48.748        4.700        0.009      331.484       -0.472      864.154
01/03/2014  03:11:00      -63.658        1.959       -5.085       14.754        8.490        8.593      217.684       72.083       73.833        0.222        0.018       63.688        6.385        0.010      331.495       -0.453      864.144
01/03/2014  03:12:00      -68.358        0.474       -8.895       13.552       13.309        9.625      183.664      177.122       92.650        0.260        0.023       68.360        7.047        0.011      331.510       -0.429      864.132
01/03/2014  03:13:00      -70.373       -5.270       -5.972       18.506       10.054       10.319      342.467      101.082      106.480        0.278        0.028       70.570       10.449        0.022      331.447       -0.532      864.123
01/03/2014  03:14:00      -44.990       -2.093       -3.521       16.925       13.420       10.084      286.446      180.102      101.678        0.130        0.028       45.039        8.319        0.034      331.407       -0.597      864.120
01/03/2014  03:15:00      -53.865       -6.067       -8.076       11.433       11.869        8.010      130.721      140.873       64.160        0.167        0.017       54.206        6.851        0.016      331.427       -0.565      864.103
01/03/2014  03:16:00      -54.770       -0.453       -8.297       15.005       12.039        7.191      225.145      144.949       51.716        0.175        0.021       54.772        6.152        0.013      331.415       -0.586      864.089
01/03/2014  03:17:00      -59.699       11.905       -7.091       16.759       13.323       11.394      280.858      177.501      129.820        0.217        0.029       60.875        6.912        0.013      331.418       -0.581      864.077
01/03/2014  03:18:00      -48.369       12.588        0.296       22.198       13.114        9.174      492.769      171.979       84.171        0.162        0.037       49.980        6.550        0.017      331.521       -0.410      864.069
01/03/2014  03:19:00       10.382        4.785       -0.537       15.115        9.816        5.091      228.474       96.354       25.923        0.024        0.018       11.432        3.988        0.122      331.603       -0.275      864.054
01/03/2014  03:20:00       -1.382       -4.994        8.679       21.868        8.397        8.254      478.225       70.516       68.122        0.036        0.031        5.182        7.697        2.206      331.699       -0.115      864.061
01/03/2014  03:21:00      -10.436        3.148       -0.491       10.910       14.161       10.894      119.034      200.536      118.689        0.028        0.022       10.901        8.479        0.605      331.679       -0.151      864.076
01/03/2014  03:22:00      -77.988       -8.516      -11.572       16.369       11.052       10.528      267.947      122.152      110.831        0.339        0.025       78.451        8.302        0.011      331.300       -0.772      864.089
01/03/2014  03:23:00      -84.367      -24.086      -15.146       23.320       18.231        8.342      543.812      332.358       69.587        0.444        0.047       87.738        3.236        0.001      331.208       -0.926      864.099
01/03/2014  03:24:00      -39.135      -27.328        5.172       15.024       23.062       12.724      225.721      531.845      161.903        0.161        0.046       47.732        6.181        0.017      331.236       -0.878      864.098
01/03/2014  03:25:00      -56.458      -17.373       -7.966       15.113       12.756       11.178      228.395      162.714      124.950        0.203        0.026       59.071        9.276        0.025      331.237       -0.877      864.115
01/03/2014  03:26:00      -52.469      -19.254       -9.555       13.131       13.340        9.433      172.435      177.956       88.975        0.183        0.022       55.890        7.821        0.020      331.227       -0.893      864.140
01/03/2014  03:27:00      -51.427       -0.020       -8.278       14.002       10.362        9.573      196.054      107.362       91.643        0.155        0.020       51.427        5.616        0.012      331.222       -0.902      864.150
01/03/2014  03:28:00      -31.645       14.209       -8.568       15.950       15.329        9.348      254.409      234.969       87.391        0.093        0.029       34.689        4.988        0.021      331.281       -0.803      864.154
01/03/2014  03:29:00      -57.889       23.602       -7.429       22.308       21.675        8.995      497.663      469.813       80.915        0.251        0.052       62.516        5.434        0.008      331.487       -0.465      864.172
01/03/2014  03:30:00      -62.554       -6.234       -9.236       13.611       14.386        9.773      185.254      206.946       95.503        0.226        0.024       62.864        6.544        0.011      331.296       -0.780      864.188
01/03/2014  03:31:00      -71.544      -17.199      -15.682       11.282       13.069        8.198      127.280      170.787       67.201        0.301        0.018       73.582        5.877        0.006      331.185       -0.964      864.207
01/03/2014  03:32:00      -59.771      -14.938      -14.762       10.449       10.942        9.221      109.182      119.729       85.035        0.216        0.016       61.609        6.230        0.010      331.170       -0.989      864.205
01/03/2014  03:33:00      -66.427      -19.231      -17.367       11.771       18.035        8.664      138.560      325.265       75.069        0.281        0.027       69.154        4.850        0.005      331.311       -0.756      864.191
01/03/2014  03:34:00      -75.124      -12.632      -14.952       11.307       15.186        9.402      127.853      230.617       88.399        0.324        0.022       76.179        7.564        0.010      331.187       -0.960      864.175
01/03/2014  03:35:00      -63.489      -13.143      -18.263       11.747       17.890       13.770      137.998      320.059      189.616        0.259        0.032       64.835       12.090        0.035      331.212       -0.918      864.152
01/03/2014  03:36:00      -68.409       -4.299      -13.835       10.352       16.669       10.178      107.161      277.840      103.585        0.269        0.024       68.544        4.359        0.004      331.297       -0.778      864.131
01/03/2014  03:37:00      -71.460      -17.619      -16.470        9.554        9.022        5.913       91.285       81.401       34.967        0.295        0.010       73.600        4.452        0.004      331.392       -0.623      864.114
01/03/2014  03:38:00      -83.779      -14.796      -13.632       20.054       13.671       10.134      402.168      186.900      102.689        0.406        0.035       85.075        9.921        0.014      331.353       -0.685      864.091
01/03/2014  03:39:00      -65.624        1.629      -13.587       15.595       13.381       13.582      243.205      179.054      184.481        0.255        0.030       65.644       10.142        0.024      331.394       -0.619      864.061
01/03/2014  03:40:00      -71.342       -1.307      -13.591       11.567       14.147        8.333      133.784      200.125       69.442        0.284        0.020       71.354        3.125        0.002      331.408       -0.598      864.049
01/03/2014  03:41:00      -63.020      -26.731      -15.741        9.977       13.887        9.206       99.532      192.840       84.758        0.266        0.019       68.455        5.523        0.007      331.545       -0.372      864.046
01/03/2014  03:42:00      -75.245      -19.487      -11.802        6.780       11.654        5.261       45.972      135.815       27.680        0.320        0.010       77.728        2.538        0.001      331.584       -0.304      864.042
01/03/2014  03:43:00      -57.393       -3.056      -11.557        7.224        7.216        4.557       52.180       52.070       20.764        0.178        0.006       57.474        3.820        0.004      331.717       -0.086      864.025
01/03/2014  03:44:00      -62.202      -14.530      -11.260        7.667        9.270        5.255       58.778       85.933       27.616        0.219        0.009       63.877        4.003        0.004      331.579       -0.317      864.015
01/03/2014  03:45:00      -69.691       -5.082      -10.946        7.822        9.665        5.396       61.190       93.410       29.118        0.259        0.009       69.876        3.283        0.002      331.646       -0.206      864.022
01/03/2014  03:46:00      -54.896      -21.415       -9.542       11.639       13.951       10.129      135.463      194.617      102.601        0.200        0.022       58.925        6.310        0.011      331.532       -0.394      864.027
01/03/2014  03:47:00      -53.580       22.101        0.835       16.465       19.513       13.999      271.100      380.740      195.963        0.210        0.042       57.959       11.067        0.036      331.763       -0.013      864.024
01/03/2014  03:48:00      -33.755       -8.774       -5.710       16.524        9.428        7.695      273.045       88.890       59.219        0.083        0.021       34.877        7.611        0.048      331.562       -0.344      864.013
01/03/2014  03:49:00      -12.400        4.236        4.827       16.082        9.820        7.993      258.630       96.431       63.893        0.031        0.021       13.104        5.930        0.205      331.817        0.077      863.993
01/03/2014  03:50:00       14.177        7.912        7.365       12.256        8.060        7.765      150.215       64.962       60.290        0.030        0.014       16.236        5.243        0.104      331.886        0.191      863.978
01/03/2014  03:51:00      -11.292       -9.510        7.673        7.492        7.905        7.687       56.131       62.491       59.083        0.023        0.009       14.763        6.126        0.172      331.758       -0.020      863.978
01/03/2014  03:52:00      -35.403       -5.494       -7.439       13.775        8.389        6.775      189.741       70.376       45.896        0.082        0.015       35.827        5.799        0.026      331.507       -0.434      863.976
01/03/2014  03:53:00      -39.049       -6.809       -9.148        6.570        6.160        5.360       43.166       37.945       28.733        0.088        0.005       39.638        2.555        0.004      331.420       -0.579      863.972
01/03/2014  03:54:00      -46.377      -24.001      -10.364        8.710       10.240        5.865       75.856      104.850       34.400        0.152        0.011       52.219        4.473        0.007      331.393       -0.622      863.948
01/03/2014  03:55:00      -69.519      -25.533       -9.377       12.802       11.395        7.434      163.886      129.835       55.266        0.296        0.017       74.060        4.241        0.003      331.337       -0.712      863.939
01/03/2014  03:56:00      -83.185       -9.049       -7.914       15.843       12.931       11.717      251.011      167.200      137.289        0.381        0.028       83.676        7.704        0.008      331.272       -0.820      863.932
01/03/2014  03:57:00      -94.898        2.902      -10.863       24.184       14.795       17.614      584.888      218.880      310.238        0.512        0.056       94.942       14.228        0.022      331.405       -0.601      863.939
01/03/2014  03:58:00     -102.596       -5.349      -18.170       18.648       13.331       12.690      347.762      177.709      161.043        0.579        0.034      102.735        8.581        0.007      331.309       -0.759      863.957
01/03/2014  03:59:00      -88.877      -20.672      -10.880       32.529       18.158       14.378     1058.113      329.711      206.733        0.502        0.080       91.250       14.996        0.027      331.235       -0.881      863.971
01/03/2014  04:00:00     -118.325      -25.795      -11.797       17.929       22.448       11.422      321.467      503.894      130.455        0.788        0.048      121.104        9.050        0.006      331.194       -0.948      863.963
01/03/2014  04:01:00      -82.871      -18.813       -5.910       20.132       26.754       15.239      405.311      715.787      232.218        0.430        0.068       84.980       15.212        0.032      331.222       -0.902      863.943
01/03/2014  04:02:00      -97.384        8.985      -12.220       18.769       10.829        7.150      352.266      117.276       51.119        0.512        0.026       97.798        4.433        0.002      331.313       -0.754      863.912
01/03/2014  04:03:00     -115.224        9.188      -17.436       17.676       10.452       11.263      312.457      109.248      126.848        0.711        0.027      115.589        6.186        0.003      331.355       -0.683      863.887
01/03/2014  04:04:00      -92.891       10.975      -12.713       15.036       11.880        7.662      226.074      141.141       58.702        0.467        0.021       93.537        5.165        0.003      331.325       -0.731      863.870
01/03/2014  04:05:00      -82.997      -17.820       -5.944       30.714       19.062       19.433      943.351      363.354      377.648        0.446        0.084       84.889       21.108        0.062      331.333       -0.718      863.864
01/03/2014  04:06:00      -79.670       -9.882       -4.309       26.821       23.870       15.791      719.351      569.756      249.370        0.400        0.077       80.281       14.179        0.031      331.211       -0.921      863.840
01/03/2014  04:07:00      -73.102      -27.955       -7.976       22.600       24.169       15.654      510.774      584.145      245.048        0.376        0.067       78.265       11.245        0.021      331.163       -1.000      863.816
01/03/2014  04:08:00      -74.540      -16.126       -8.627       13.819       13.475       14.226      190.975      181.589      202.376        0.323        0.029       76.265       11.267        0.022      331.152       -1.017      863.794
01/03/2014  04:09:00      -93.821       -8.369      -16.355        9.944       10.466        7.905       98.890      109.532       62.482        0.471        0.014       94.194        6.300        0.004      331.145       -1.027      863.781
01/03/2014  04:10:00      -84.471      -11.447      -14.698       14.312       14.628       11.473      204.820      213.993      131.622        0.402        0.028       85.243       10.756        0.016      331.173       -0.984      863.779
01/03/2014  04:11:00      -78.093      -14.838       -4.288       22.131       17.949       12.419      489.777      322.176      154.220        0.365        0.048       79.490        8.395        0.011      331.156       -1.010      863.783
01/03/2014  04:12:00      -85.055      -15.764      -11.177       12.178       14.946       11.791      148.307      223.369      139.033        0.406        0.026       86.504        7.647        0.008      331.130       -1.054      863.781
01/03/2014  04:13:00      -96.228       -1.593      -13.745        7.832        6.837        8.383       61.345       46.749       70.278        0.481        0.009       96.241        1.979        0.000      331.156       -1.011      863.769
01/03/2014  04:14:00      -57.453       -0.459       -9.237       23.232       11.585        9.254      539.704      134.201       85.631        0.207        0.038       57.455       10.013        0.030      331.241       -0.871      863.754
01/03/2014  04:15:00      -35.235       -9.331       -5.945        8.438        9.469        7.326       71.202       89.662       53.676        0.079        0.011       36.450        1.769        0.002      331.359       -0.676      863.751
01/03/2014  04:16:00      -31.700       -1.726       -8.580        8.886        7.300        5.655       78.952       53.294       31.978        0.062        0.008       31.747        4.296        0.018      331.531       -0.392      863.762
01/03/2014  04:17:00      -14.285       -7.495        1.887        8.846        9.092        8.934       78.253       82.668       79.821        0.025        0.012       16.132        7.071        0.192      331.446       -0.535      863.766
01/03/2014  04:18:00        4.299       -5.084       -0.190        8.572        6.877        7.291       73.478       47.298       53.156        0.011        0.009        6.658        5.290        0.631      331.418       -0.580      863.766
01/03/2014  04:19:00       -1.370       -2.697       10.994        4.795        7.242        7.338       22.991       52.441       53.852        0.013        0.006        3.025        5.367        3.148      331.468       -0.497      863.744
01/03/2014  04:20:00       -5.128       -0.056        7.597        6.807        6.604        6.043       46.342       43.615       36.512        0.011        0.006        5.128        2.809        0.300      331.612       -0.260      863.731
01/03/2014  04:21:00       12.099       13.642        1.213        5.038        9.512        3.400       25.383       90.481       11.563        0.023        0.006       18.234        3.127        0.029      331.842        0.119      863.724
01/03/2014  04:22:00      -13.950       10.740        1.335       26.250       10.040        7.681      689.062      100.808       58.991        0.058        0.042       17.605       10.490        0.355      331.756       -0.021      863.725
01/03/2014  04:23:00      -66.620      -12.827      -10.459       14.886       15.580       10.813      221.591      242.723      116.923        0.265        0.029       67.844        5.199        0.006      331.085       -1.128      863.732
01/03/2014  04:24:00      -72.641      -13.217      -14.558        8.887       11.255        8.399       78.975      126.675       70.550        0.297        0.014       73.834        2.609        0.001      330.937       -1.370      863.731
01/03/2014  04:25:00      -90.694       -0.543      -11.299       15.836       13.697       15.137      250.781      187.616      229.118        0.451        0.033       90.696        3.992        0.002      330.958       -1.335      863.716
01/03/2014  04:26:00      -81.743      -10.081      -12.482       13.409       15.072        8.935      179.802      227.170       79.830        0.371        0.024       82.363        6.134        0.006      331.005       -1.258      863.684
01/03/2014  04:27:00      -93.681        7.845      -14.876       14.772       11.808        8.993      218.211      139.439       80.878        0.475        0.022       94.009        4.769        0.003      331.098       -1.107      863.656
01/03/2014  04:28:00      -70.767       -8.275      -15.417       16.184       15.029       14.338      261.933      225.864      205.573        0.300        0.035       71.249       13.375        0.035      331.058       -1.174      863.648
01/03/2014  04:29:00      -76.865       -8.438       -9.803       12.151       11.859       10.140      147.647      140.641      102.823        0.323        0.020       77.327        6.901        0.008      331.040       -1.203      863.643
01/03/2014  04:30:00      -71.338       -6.819       -9.953       16.661       15.135       12.862      277.592      229.066      165.430        0.295        0.034       71.663       10.624        0.022      331.010       -1.252      863.630
01/03/2014  04:31:00      -87.731        1.220      -15.669       13.584       10.072       12.199      184.535      101.454      148.804        0.419        0.022       87.739        6.945        0.006      331.019       -1.236      863.612
01/03/2014  04:32:00      -65.699        0.540       -9.582       16.707        8.584       12.686      279.127       73.692      160.934        0.246        0.026       65.702       10.462        0.025      331.088       -1.123      863.608
01/03/2014  04:33:00      -43.437       -0.261       -7.167        9.019        5.485        5.498       81.342       30.083       30.223        0.104        0.007       43.438        4.541        0.011      331.459       -0.513      863.589
01/03/2014  04:34:00      -49.413      -12.941       -6.791       16.546        9.922        9.166      273.775       98.438       84.007        0.156        0.023       51.079        7.514        0.022      331.290       -0.790      863.577
01/03/2014  04:35:00      -69.573      -17.987      -16.700       10.033        8.547        8.126      100.665       73.055       66.039        0.284        0.012       71.860        6.069        0.007      331.152       -1.018      863.562
01/03/2014  04:36:00      -79.924      -28.961      -14.611       14.067       19.840        8.064      197.887      393.611       65.035        0.405        0.033       85.009        6.884        0.007      331.184       -0.964      863.547
01/03/2014  04:37:00      -88.285       -5.523      -12.425       16.574       13.338       11.104      274.696      177.904      123.295        0.428        0.029       88.458        9.679        0.012      331.043       -1.195      863.520
01/03/2014  04:38:00      -83.442       -5.221       -9.579       20.546       12.718       12.104      422.143      161.743      146.497        0.391        0.037       83.605       11.882        0.020      331.073       -1.147      863.494
01/03/2014  04:39:00      -60.354       -3.566      -18.978       18.913       11.475       11.208      357.684      131.677      125.630        0.232        0.031       60.459       11.959        0.039      331.174       -0.982      863.474
01/03/2014  04:40:00      -48.038      -16.420      -13.561        6.325        6.799        6.086       40.010       46.229       37.041        0.144        0.006       50.767        2.478        0.002      331.196       -0.947      863.462
01/03/2014  04:41:00      -41.143      -11.103       -7.971        7.582        8.397        4.989       57.479       70.502       24.895        0.102        0.008       42.615        4.459        0.011      331.210       -0.922      863.444
01/03/2014  04:42:00      -56.299      -10.520       -9.923        7.903        9.511        6.800       62.452       90.461       46.241        0.179        0.010       57.274        2.890        0.003      331.216       -0.911      863.444
01/03/2014  04:43:00      -65.150      -22.131      -10.694        9.158        7.060        5.014       83.864       49.849       25.136        0.250        0.008       68.806        3.179        0.002      331.222       -0.902      863.453
01/03/2014  04:44:00      -72.022      -22.999       -9.574       10.207        9.028        8.012      104.176       81.496       64.195        0.303        0.012       75.605        6.367        0.007      331.193       -0.949      863.479
01/03/2014  04:45:00      -84.886       -8.562       -9.698       10.653        7.734        7.752      113.476       59.818       60.096        0.380        0.012       85.316        4.493        0.003      331.173       -0.983      863.515
01/03/2014  04:46:00      -95.736       -5.471       -9.451       12.168       10.714        9.839      148.072      114.780       96.799        0.482        0.018       95.892        4.200        0.002      331.245       -0.864      863.555
01/03/2014  04:47:00     -104.239      -25.422       -8.000       14.560       13.280        7.912      212.006      176.362       62.599        0.601        0.023      107.294        5.236        0.002      331.259       -0.841      863.582
01/03/2014  04:48:00     -111.167      -31.339       -9.510       12.399       11.784        8.918      153.741      138.865       79.538        0.690        0.019      115.500        3.369        0.001      331.255       -0.847      863.584
01/03/2014  04:49:00     -109.332      -34.170       -4.964       10.969       12.733        9.905      120.326      162.130       98.102        0.676        0.019      114.547        4.970        0.002      331.186       -0.961      863.567
01/03/2014  04:50:00      -53.014      -22.988        2.228       43.781       19.739       14.917     1916.734      389.619      222.530        0.294        0.126       57.784       20.658        0.128      331.131       -1.051      863.550
01/03/2014  04:51:00      -73.643      -34.508       -1.659       14.968       20.523       10.971      224.046      421.192      120.355        0.369        0.038       81.327        6.543        0.006      331.098       -1.106      863.547
01/03/2014  04:52:00      -64.904      -40.075       -1.117       27.777       24.159       14.487      771.572      583.634      209.885        0.369        0.078       76.279       10.812        0.020      331.065       -1.161      863.537
01/03/2014  04:53:00      -55.503      -32.333        3.314       31.137       20.105       14.202      969.495      404.212      201.705        0.286        0.079       64.234       16.520        0.066      331.082       -1.133      863.527
01/03/2014  04:54:00      -26.509      -26.676        3.872       24.213       25.169       12.335      586.289      633.483      152.157        0.140        0.069       37.608       11.423        0.092      331.134       -1.048      863.509
01/03/2014  04:55:00      -32.743      -17.513       -0.178       19.861       11.696       10.472      394.455      136.799      109.655        0.101        0.032       37.132       11.478        0.096      331.126       -1.061      863.484
01/03/2014  04:56:00      -78.849      -15.844       -6.222       15.160       10.772        7.503      229.841      116.037       56.300        0.345        0.020       80.425        4.667        0.003      331.085       -1.128      863.481
01/03/2014  04:57:00     -100.168       -7.397       -4.929       23.847       19.871       16.388      568.691      394.856      268.576        0.567        0.062      100.441       14.127        0.020      331.013       -1.245      863.484
01/03/2014  04:58:00     -132.580      -11.381      -14.136       20.613       12.944       12.818      424.876      167.539      164.311        0.933        0.038      133.067       10.261        0.006      330.924       -1.391      863.496
01/03/2014  04:59:00     -120.326      -10.739      -11.948       25.530       22.444       16.508      651.760      503.750      272.525        0.808        0.071      120.804       13.542        0.013      330.926       -1.387      863.501
01/03/2014  05:00:00     -130.511       -7.916      -13.794       25.799       29.652       16.233      665.580      879.216      263.523        0.955        0.090      130.751       10.374        0.006      330.861       -1.495      863.505
01/03/2014  05:01:00     -112.674      -31.594       -5.964       30.219       24.581       16.952      913.200      604.239      287.361        0.777        0.090      117.019       17.550        0.022      330.831       -1.544      863.506
01/03/2014  05:02:00     -102.116      -41.521       -4.304       39.278       33.159       20.402     1542.763     1099.528      416.229        0.761        0.153      110.234       15.777        0.020      330.815       -1.571      863.512
01/03/2014  05:03:00     -125.030       20.347      -12.061       48.613       35.697       19.487     2363.247     1274.309      379.736        1.010        0.201      126.675       17.791        0.020      331.021       -1.231      863.502
01/03/2014  05:04:00     -161.071       50.001      -16.271       40.539       40.679       25.393     1643.444     1654.818      644.822        1.633        0.197      168.653       18.258        0.012      331.112       -1.084      863.483
01/03/2014  05:05:00     -154.286       38.351      -14.414       45.093       38.551       23.724     2033.406     1486.216      562.834        1.478        0.204      158.981       11.034        0.005      331.084       -1.128      863.469
01/03/2014  05:06:00      -55.808       -4.941       -2.409       41.844       29.912       22.091     1750.953      894.757      487.997        0.314        0.157       56.026       19.751        0.124      331.042       -1.198      863.462
01/03/2014  05:07:00      -65.909       16.630       -8.498       50.036       29.510       26.804     2503.603      870.840      718.470        0.439        0.205       67.975       28.511        0.176      331.042       -1.199      863.454
01/03/2014  05:08:00      -43.355        5.856      -15.727       31.977       39.620       22.702     1022.534     1569.711      515.374        0.263        0.155       43.749       17.688        0.163      330.985       -1.290      863.459
01/03/2014  05:09:00      -80.190       -2.069      -13.578       34.438       32.278       17.784     1185.994     1041.892      316.279        0.458        0.127       80.217        5.693        0.005      330.994       -1.277      863.454
01/03/2014  05:10:00      -82.522       16.601      -16.085       50.514       28.687       17.455     2551.621      822.963      304.687        0.551        0.184       84.176       11.613        0.019      330.949       -1.352      863.455
01/03/2014  05:11:00      -80.682       31.614      -11.700       29.130       29.320       20.286      848.560      859.686      411.508        0.488        0.106       86.655       13.529        0.024      331.195       -0.947      863.449
01/03/2014  05:12:00      -95.538        7.098       -8.950       46.326       22.446       17.406     2146.117      503.802      302.955        0.610        0.148       95.801       18.556        0.038      331.070       -1.152      863.451
01/03/2014  05:13:00      -90.553       19.849      -15.456       33.964       40.812       23.507     1153.549     1665.605      552.589        0.610        0.169       92.703       18.805        0.041      331.074       -1.145      863.464
01/03/2014  05:14:00      -75.780       10.703       -7.914       32.740       25.886       15.327     1071.939      670.095      234.932        0.395        0.099       76.532       15.062        0.039      331.293       -0.785      863.482
01/03/2014  05:15:00      -76.905      -27.196      -16.925       18.723       20.735       10.792      350.567      429.926      116.461        0.392        0.045       81.572        5.474        0.005      331.036       -1.209      863.488
01/03/2014  05:16:00      -65.937      -20.880      -15.728       20.507       15.650       15.262      420.545      244.908      232.933        0.296        0.045       69.164        7.776        0.013      330.949       -1.350      863.484
01/03/2014  05:17:00      -76.765      -14.795       -8.373       30.848       16.892       13.332      951.588      285.342      177.750        0.380        0.071       78.178       12.543        0.026      331.086       -1.125      863.478
01/03/2014  05:18:00      -95.903      -10.774      -15.422       25.022       17.659       14.288      626.095      311.824      204.153        0.535        0.057       96.506       11.333        0.014      330.871       -1.478      863.490
01/03/2014  05:19:00      -81.060        3.853      -16.421       31.203       22.852       16.571      973.618      522.231      274.605        0.431        0.089       81.151       16.005        0.039      330.927       -1.386      863.524
01/03/2014  05:20:00      -73.546       -3.930      -16.027       17.384       16.881       13.051      302.192      284.961      170.320        0.322        0.038       73.651       12.333        0.028      331.228       -0.891      863.565
01/03/2014  05:21:00      -90.228       -9.505      -19.513       18.818       18.156       13.750      354.134      329.623      189.061        0.474        0.044       90.727       12.902        0.020      331.009       -1.252      863.622
01/03/2014  05:22:00      -78.574        1.425      -22.867       23.996       24.645       14.156      575.795      607.359      200.404        0.404        0.069       78.587       11.864        0.023      331.180       -0.971      863.650
01/03/2014  05:23:00      -75.232       18.663       -5.651       27.495       20.190       17.657      756.001      407.649      311.775        0.376        0.074       77.512       14.763        0.036      331.513       -0.423      863.664
01/03/2014  05:24:00      -65.800        9.645      -12.761       25.030       31.366       15.572      626.524      983.812      242.488        0.322        0.093       66.503        9.659        0.021      331.449       -0.529      863.666
01/03/2014  05:25:00      -61.921       -5.971      -13.776       21.263       15.514        9.604      452.099      240.687       92.235        0.242        0.039       62.209        4.599        0.005      331.210       -0.921      863.662
01/03/2014  05:26:00      -57.807       -1.880       -9.121       20.360       14.460       12.046      414.511      209.097      145.099        0.210        0.038       57.837       10.433        0.033      331.490       -0.460      863.655
01/03/2014  05:27:00      -48.808        4.709      -13.539       10.699       11.093        6.537      114.475      123.049       42.726        0.143        0.014       49.035        4.681        0.009      331.245       -0.863      863.657
01/03/2014  05:28:00      -16.751       -0.181      -10.487       28.417       18.127        8.432      807.552      328.574       71.091        0.080        0.060       16.752        7.818        0.218      331.567       -0.335      863.654
01/03/2014  05:29:00       22.172       40.759       -5.148       17.499       18.934       11.843      306.212      358.497      140.257        0.149        0.040       46.400        9.285        0.040      332.244        0.782      863.639
01/03/2014  05:30:00       17.523       44.024       -3.327       14.302       17.023       12.500      204.546      289.777      156.244        0.145        0.033       47.383        8.340        0.031      332.230        0.757      863.644
01/03/2014  05:31:00       15.003       25.994        1.539        8.648       15.398       11.118       74.791      237.111      123.614        0.067        0.022       30.013        9.671        0.104      332.094        0.534      863.645
01/03/2014  05:32:00       25.910       26.380       -0.611       11.549       10.254        7.797      133.376      105.144       60.796        0.083        0.015       36.976        5.111        0.019      332.172        0.662      863.627
01/03/2014  05:33:00       15.992       18.148        1.275       11.538        8.326        5.863      133.116       69.319       34.369        0.041        0.012       24.188        5.537        0.052      332.137        0.604      863.608
01/03/2014  05:34:00      -17.244       -1.812       -1.269       14.453       14.135        5.494      208.893      199.804       30.181        0.037        0.022       17.339        5.405        0.097      332.100        0.544      863.591
01/03/2014  05:35:00      -53.436      -35.979      -11.519        7.782        9.783        6.098       60.563       95.702       37.180        0.224        0.010       64.420        2.784        0.002      331.406       -0.600      863.576
01/03/2014  05:36:00      -66.693      -34.158      -16.348        9.439        7.769        6.841       89.102       60.354       46.802        0.304        0.010       74.932        3.934        0.003      331.392       -0.622      863.568
01/03/2014  05:37:00      -70.176      -18.938      -15.305       11.810       10.381        7.525      139.467      107.757       56.633        0.291        0.015       72.687        5.985        0.007      331.524       -0.406      863.568
01/03/2014  05:38:00      -62.982      -28.919       -8.877        9.438       13.268        6.269       89.076      176.035       39.305        0.259        0.015       69.304        4.106        0.004      331.630       -0.229      863.580
01/03/2014  05:39:00      -58.082      -28.082       -9.028       10.014       13.321        7.775      100.285      177.460       60.447        0.229        0.017       64.515        7.612        0.014      331.779        0.014      863.602
01/03/2014  05:40:00      -69.699      -35.855       -8.536       11.855        8.180        9.073      140.533       66.907       82.313        0.325        0.014       78.381        6.911        0.008      331.705       -0.106      863.630
01/03/2014  05:41:00      -88.801      -35.585      -13.640        8.291        9.535        6.755       68.734       90.921       45.624        0.477        0.010       95.665        5.557        0.003      331.525       -0.404      863.657
01/03/2014  05:42:00      -99.907      -26.503      -13.497       12.183       15.778       10.824      148.423      248.952      117.168        0.569        0.026      103.362        3.399        0.001      331.470       -0.495      863.676
01/03/2014  05:43:00      -82.963      -33.174      -11.975        9.357       12.169        7.484       87.561      148.096       56.010        0.421        0.015       89.349        4.673        0.003      331.412       -0.590      863.703
01/03/2014  05:44:00      -71.117      -48.430       -5.733       10.906       11.860        8.552      118.939      140.654       73.144        0.388        0.017       86.042        5.216        0.004      331.450       -0.528      863.726
01/03/2014  05:45:00      -49.551      -54.540       -0.175       34.479       22.934       20.335     1188.832      525.946      413.532        0.378        0.106       73.688       21.397        0.084      331.380       -0.644      863.735
01/03/2014  05:46:00      -49.698      -53.590        4.289       36.975       23.551       18.470     1367.140      554.632      341.131        0.381        0.113       73.087       23.911        0.107      331.448       -0.530      863.756
01/03/2014  05:47:00      -66.548      -38.712       -5.961       28.061       18.885       16.654      787.421      356.659      277.361        0.369        0.071       76.988       12.197        0.025      331.565       -0.339      863.780
01/03/2014  05:48:00      -78.381      -36.761       -7.445       16.976       20.003       12.096      288.183      400.112      146.307        0.419        0.042       86.573        9.784        0.013      331.330       -0.723      863.806
01/03/2014  05:49:00      -55.048       -0.560       -2.498       12.175       11.656       10.555      148.233      135.854      111.411        0.172        0.020       55.050        7.897        0.021      331.268       -0.827      863.831
01/03/2014  05:50:00      -38.457      -14.241       -5.254       11.794       14.651        8.757      139.099      214.660       76.691        0.107        0.022       41.009        8.709        0.045      331.297       -0.778      863.837
01/03/2014  05:51:00      -48.228      -34.956       -7.256       16.885       15.143       10.246      285.095      229.311      104.988        0.211        0.031       59.564        5.995        0.010      331.357       -0.680      863.830
01/03/2014  05:52:00      -66.592      -34.096        6.210       33.512       28.433       16.718     1123.022      808.422      279.497        0.392        0.111       74.813       19.913        0.071      331.255       -0.847      863.827
01/03/2014  05:53:00      -46.525      -43.795       -0.751       26.048       23.668       17.387      678.504      560.182      302.307        0.281        0.077       63.895       11.269        0.031      331.196       -0.946      863.836
01/03/2014  05:54:00      -57.655      -58.422        2.949       33.487       32.388       15.778     1121.356     1048.957      248.936        0.458        0.121       82.080       15.742        0.037      331.289       -0.791      863.843
01/03/2014  05:55:00      -52.413      -54.465       -2.257       36.842       39.029       21.325     1357.303     1523.267      454.746        0.453        0.167       75.588       23.046        0.093      331.449       -0.528      863.852
01/03/2014  05:56:00        0.008       -4.997       14.135       14.631       17.449       12.252      214.067      304.462      150.106        0.045        0.033        4.997        6.959        1.939      331.431       -0.558      863.863
01/03/2014  05:57:00      -16.041       -1.366        8.298       25.087       13.406       17.826      629.355      179.716      317.769        0.073        0.056       16.099       19.024        1.396      331.411       -0.591      863.880
01/03/2014  05:58:00       -0.923      -22.178       -1.135       11.967       18.268        8.595      143.219      333.712       73.867        0.052        0.028       22.198        6.753        0.093      331.424       -0.571      863.895
01/03/2014  05:59:00      -15.588      -17.111        2.234       17.925       15.156        8.048      321.289      229.703       64.766        0.058        0.031       23.147        8.536        0.136      331.419       -0.578      863.905
01/03/2014  06:00:00        0.226      -20.195        5.343       20.619       21.643       14.288      425.160      468.427      204.147        0.077        0.055       20.196       10.517        0.271      331.370       -0.658      863.904
01/03/2014  06:01:00       10.824      -21.000       -2.805       19.634       14.608       11.676      385.509      213.386      136.319        0.065        0.037       23.625        7.089        0.090      331.460       -0.511      863.892
01/03/2014  06:02:00      -12.819      -12.517        2.098       16.008        9.176       11.794      256.271       84.193      139.093        0.040        0.024       17.916        9.785        0.298      331.436       -0.551      863.875
01/03/2014  06:03:00      -15.576      -10.628       -1.016       13.163       14.263        7.680      173.256      203.442       58.982        0.040        0.022       18.856        8.126        0.186      331.492       -0.459      863.867
01/03/2014  06:04:00      -21.789      -20.265       11.339       18.937       10.842       12.336      358.598      117.554      152.180        0.082        0.031       29.756        7.160        0.058      331.420       -0.577      863.873
01/03/2014  06:05:00      -30.798      -11.543       -0.970       10.677        7.208        8.633      114.007       51.949       74.530        0.066        0.012       32.891        5.641        0.029      331.272       -0.817      863.885
01/03/2014  06:06:00       -2.778        5.353       11.346        5.607        8.940        7.098       31.438       79.919       50.378        0.016        0.008        6.031        6.130        1.033      331.310       -0.757      863.902
01/03/2014  06:07:00      -13.844       13.615        0.287        9.681        8.994        5.773       93.729       80.900       33.327        0.029        0.010       19.417        5.760        0.088      331.238       -0.876      863.926
01/03/2014  06:08:00       10.709       25.462        2.485       21.487       27.517        8.101      461.702      757.194       65.626        0.103        0.064       27.623       12.338        0.199      331.218       -0.908      863.955
01/03/2014  06:09:00       41.074       26.715       -8.256       21.693       27.549       17.407      470.578      758.970      302.994        0.200        0.077       48.998       14.500        0.088      331.093       -1.115      863.971
01/03/2014  06:10:00       65.775       32.609       11.092       25.233       22.835       21.635      636.709      521.445      468.078        0.357        0.081       73.414       13.585        0.034      331.032       -1.213      863.969
01/03/2014  06:11:00       45.573       47.258        3.779       29.926       27.401       23.805      895.595      750.809      566.674        0.327        0.111       65.652       13.667        0.043      331.024       -1.228      863.964
01/03/2014  06:12:00       59.457       28.617        2.219       22.261       15.812       19.666      495.572      250.011      386.766        0.275        0.057       65.985       11.870        0.032      331.024       -1.227      863.959
01/03/2014  06:13:00       79.715       30.362        4.873       28.909       19.072       17.524      835.724      363.749      307.106        0.440        0.075       85.302       16.053        0.035      331.039       -1.205      863.930
01/03/2014  06:14:00       45.559       24.663       10.160       30.356       17.689       16.691      921.490      312.916      278.578        0.215        0.076       51.806       12.050        0.054      331.070       -1.153      863.893
01/03/2014  06:15:00        5.979       -1.330       13.342       19.980       17.716       14.399      399.219      313.842      207.318        0.057        0.046        6.126       11.087        3.276      331.079       -1.137      863.874
01/03/2014  06:16:00      -24.616        2.112        1.949       11.830       10.904        9.529      139.948      118.901       90.805        0.048        0.017       24.706        5.680        0.053      331.066       -1.159      863.890
01/03/2014  06:17:00      -21.530       -4.878       -5.481        7.824        7.514        4.340       61.223       56.454       18.837        0.033        0.007       22.076        3.695        0.028      331.089       -1.121      863.908
01/03/2014  06:18:00       -4.966       -0.533        6.131        4.677        6.316        5.133       21.871       39.888       26.349        0.008        0.004        4.995        3.801        0.579      331.210       -0.921      863.925
01/03/2014  06:19:00       24.830       19.781        7.636       14.287        9.454       10.924      204.107       89.384      119.337        0.074        0.021       31.746        7.684        0.059      331.180       -0.970      863.934
01/03/2014  06:20:00       19.405       23.604       -6.220       11.902        7.723        7.515      141.657       59.644       56.475        0.062        0.013       30.556        4.210        0.019      331.191       -0.954      863.931
01/03/2014  06:21:00       44.613       24.552        0.712       11.754       10.018       13.446      138.164      100.363      180.803        0.151        0.021       50.922        5.745        0.013      331.319       -0.742      863.927
01/03/2014  06:22:00       18.076       18.275       23.527       17.392       10.746        9.154      302.492      115.470       83.803        0.086        0.025       25.705       10.024        0.152      331.295       -0.781      863.906
01/03/2014  06:23:00      -11.276       15.429       17.773       14.945        9.246       11.013      223.367       85.491      121.278        0.056        0.022       19.110        9.972        0.272      331.271       -0.821      863.889
01/03/2014  06:24:00       -8.470        8.417       12.171        7.978        6.982        4.972       63.648       48.749       24.716        0.021        0.007       11.941        3.605        0.091      331.240       -0.872      863.896
01/03/2014  06:25:00      -22.675        2.657       -2.975        8.190        4.870        5.795       67.069       23.717       33.587        0.033        0.006       22.830        4.098        0.032      331.328       -0.728      863.917
01/03/2014  06:26:00      -38.351       20.622       -6.415       12.107        8.743        8.646      146.569       76.443       74.759        0.112        0.015       43.544        7.741        0.032      331.352       -0.689      863.940
01/03/2014  06:27:00      -47.432        4.169       -9.442        6.912       10.159        5.161       47.770      103.211       26.633        0.127        0.009       47.615        4.622        0.009      331.422       -0.573      863.955
01/03/2014  06:28:00      -42.930      -12.736       -6.131        5.526        7.870        4.774       30.532       61.943       22.794        0.108        0.006       44.779        2.789        0.004      331.378       -0.647      863.973
01/03/2014  06:29:00      -44.292      -23.143       -7.083        5.897        6.224        5.176       34.780       38.738       26.794        0.132        0.005       49.974        1.529        0.001      331.330       -0.724      863.998
01/03/2014  06:30:00      -46.183      -28.768       -3.960       10.678       10.057        7.407      114.027      101.139       54.859        0.162        0.014       54.411        4.560        0.007      331.256       -0.844      864.017
01/03/2014  06:31:00      -50.579      -22.708       -5.117       12.791       14.253       10.644      163.606      203.156      113.287        0.179        0.024       55.442        6.166        0.012      331.172       -0.984      864.037
01/03/2014  06:32:00      -20.794      -12.713       -1.670       11.058       10.008        8.699      122.274      100.170       75.681        0.045        0.015       24.372        3.843        0.025      331.151       -1.020      864.067
01/03/2014  06:33:00       -6.346       -7.317       -8.284       11.648       10.941        5.991      135.676      119.713       35.887        0.023        0.015        9.685        4.628        0.228      331.118       -1.073      864.107
01/03/2014  06:34:00      -24.889        7.937      -12.811        9.325        9.116        8.019       86.954       83.104       64.308        0.054        0.012       26.124        5.067        0.038      331.255       -0.847      864.133
01/03/2014  06:35:00      -55.134       -4.571       -8.047       15.527       11.173        7.794      241.090      124.835       60.747        0.178        0.021       55.323        6.310        0.013      331.234       -0.880      864.145
01/03/2014  06:36:00      -59.124       -1.800       -7.152        7.194        7.672        5.746       51.759       58.858       33.022        0.185        0.007       59.151        0.513        0.000      331.176       -0.977      864.136
01/03/2014  06:37:00      -74.193      -24.237       -9.588       14.610        9.906        7.401      213.449       98.126       54.769        0.328        0.018       78.052        5.841        0.006      331.206       -0.928      864.121
01/03/2014  06:38:00      -99.947      -57.636       -1.648       25.882       21.052       18.504      669.878      443.202      342.382        0.738        0.073      115.374       11.292        0.010      331.056       -1.175      864.120
01/03/2014  06:39:00      -38.850      -28.703        2.508       31.283       28.579       16.522      978.598      816.732      272.972        0.220        0.103       48.303       15.833        0.107      331.032       -1.215      864.120
01/03/2014  06:40:00      -29.661      -36.740        8.501       27.742       29.573       16.694      769.619      874.577      278.694        0.211        0.096       47.219       11.703        0.061      331.182       -0.969      864.107
01/03/2014  06:41:00       15.366       17.891       18.965       20.735       16.179       13.579      429.954      261.770      184.383        0.090        0.044       23.584       10.301        0.191      331.189       -0.957      864.082
01/03/2014  06:42:00       31.611       28.191        3.188       19.067       11.304        8.149      363.568      127.784       66.414        0.118        0.028       42.356        4.643        0.012      331.166       -0.993      864.063
01/03/2014  06:43:00        1.272       10.584        3.987        6.127        5.110        5.649       37.536       26.112       31.915        0.011        0.005       10.661        1.350        0.016      331.225       -0.898      864.042
01/03/2014  06:44:00       -4.105       16.435       -0.236       14.675        8.367        8.213      215.369       70.000       67.451        0.032        0.018       16.940        3.922        0.054      331.265       -0.829      864.037
01/03/2014  06:45:00      -28.775       -2.069        2.279       17.192        8.919        6.421      295.565       79.544       41.233        0.063        0.021       28.850        7.741        0.072      331.191       -0.953      864.041
01/03/2014  06:46:00       -2.140       11.164        2.557        6.059       10.939        9.423       36.716      119.669       88.790        0.019        0.012       11.367        3.898        0.118      331.136       -1.044      864.049
01/03/2014  06:47:00        2.711       26.283       -2.905       10.224       12.116        7.176      104.531      146.798       51.494        0.050        0.015       26.422        5.029        0.036      331.207       -0.927      864.049
01/03/2014  06:48:00        8.444       27.154        1.843       23.241       17.168       15.878      540.164      294.749      252.125        0.095        0.054       28.437        9.805        0.119      331.076       -1.142      864.046
01/03/2014  06:49:00       -6.085       22.698       -2.705       13.311       12.340       11.512      177.186      152.272      132.525        0.051        0.023       23.499        7.378        0.099      330.975       -1.308      864.052
01/03/2014  06:50:00      -21.336        7.185       -1.597       11.475        8.962        9.370      131.679       80.314       87.793        0.040        0.015       22.513        7.020        0.097      331.015       -1.244      864.055
01/03/2014  06:51:00      -40.405       13.678        0.323       10.044        8.825        5.788      100.879       77.878       33.505        0.102        0.011       42.658        3.269        0.006      331.166       -0.994      864.061
01/03/2014  06:52:00      -32.401       28.047       -2.104       15.307       11.944       10.527      234.318      142.648      110.828        0.116        0.024       42.854        9.455        0.049      331.038       -1.206      864.089
01/03/2014  06:53:00      -18.168       25.147       -1.770       14.888       13.092       11.017      221.658      171.400      121.382        0.074        0.026       31.023        7.791        0.063      331.020       -1.233      864.104
01/03/2014  06:54:00        1.163        7.383        4.602       19.815       13.112       12.441      392.632      171.924      154.779        0.040        0.036        7.474       10.426        1.946      331.092       -1.116      864.115
01/03/2014  06:55:00       -0.620       49.816       -4.420       16.562       14.459        9.623      274.300      209.071       92.605        0.154        0.029       49.820        8.491        0.029      331.117       -1.075      864.141
01/03/2014  06:56:00       -4.288       62.182       -0.245       29.610       24.577       17.811      876.755      604.052      317.234        0.284        0.090       62.330       16.282        0.068      331.031       -1.215      864.155
01/03/2014  06:57:00       33.522       97.431      -18.777       11.627       11.564        9.005      135.194      133.737       81.087        0.566        0.018      103.037        3.730        0.001      331.004       -1.261      864.157
01/03/2014  06:58:00       28.007       53.336      -10.160       28.257       29.334       18.405      798.457      860.467      338.754        0.286        0.100       60.242       19.144        0.101      330.893       -1.442      864.150
01/03/2014  06:59:00       12.861       60.006       -6.337       15.286       23.636       15.160      233.652      558.658      229.820        0.241        0.051       61.368       11.136        0.033      330.840       -1.529      864.150
01/03/2014  07:00:00       -1.239       52.770       -8.227       11.055        8.432        5.868      122.212       71.102       34.434        0.154        0.011       52.784        4.089        0.006      330.954       -1.343      864.143
01/03/2014  07:01:00      -43.587       29.876       -7.246       22.933       21.124       11.900      525.910      446.237      141.616        0.198        0.056       52.843       13.419        0.064      330.822       -1.559      864.152
01/03/2014  07:02:00      -85.897       17.663      -12.164       16.893       33.438       11.067      285.359     1118.099      122.469        0.468        0.076       87.694       13.862        0.025      330.827       -1.550      864.178
01/03/2014  07:03:00      -62.031      -19.411       -1.609       25.475       15.258       15.249      648.996      232.814      232.528        0.267        0.056       64.997       16.358        0.063      330.714       -1.737      864.187
01/03/2014  07:04:00      -15.269      -19.350       -4.560       25.209       22.312       16.297      635.504      497.841      265.577        0.101        0.070       24.649       17.380        0.497      330.812       -1.577      864.187
01/03/2014  07:05:00      -31.165      -28.249       -0.195       16.959       13.798        8.884      287.619      190.398       78.933        0.116        0.028       42.063        7.277        0.030      330.915       -1.406      864.188
01/03/2014  07:06:00      -37.407       -7.538       -2.808       16.797        8.835        7.029      282.149       78.049       49.402        0.094        0.020       38.159        8.917        0.055      330.841       -1.530      864.190
01/03/2014  07:07:00      -20.445       16.820       -2.064       12.034       12.078        7.620      144.824      145.871       58.058        0.053        0.017       26.475        7.366        0.077      330.957       -1.338      864.183
01/03/2014  07:08:00       -8.093        1.077       -0.331       10.092        6.918        5.768      101.843       47.861       33.266        0.012        0.009        8.164        5.206        0.407      331.035       -1.212      864.184
01/03/2014  07:09:00      -37.339      -15.639       -5.283       12.703        9.470        9.766      161.365       89.678       95.382        0.101        0.017       40.481        8.691        0.046      330.984       -1.295      864.198
01/03/2014  07:10:00      -26.121       -2.221       -2.682        8.463       14.746        7.880       71.617      217.452       62.094        0.052        0.018       26.215        5.622        0.046      330.863       -1.491      864.224
01/03/2014  07:11:00      -49.617       -7.807       -6.103       13.276       10.136        6.166      176.244      102.739       38.021        0.144        0.016       50.227        5.849        0.014      330.824       -1.556      864.254
01/03/2014  07:12:00      -37.638      -17.740       -2.347       10.828        7.644        6.920      117.240       58.437       47.883        0.098        0.011       41.610        6.852        0.027      330.895       -1.439      864.272
01/03/2014  07:13:00        8.732      -13.404        8.022       11.802        9.196        7.543      139.278       84.569       56.900        0.030        0.014       15.997        4.411        0.076      331.045       -1.194      864.274
01/03/2014  07:14:00        1.003       -3.343       -5.569       14.601        7.125        6.494      213.181       50.759       42.174        0.017        0.015        3.490        2.364        0.459      331.137       -1.043      864.281
01/03/2014  07:15:00      -53.115      -18.667       -8.775       26.765        8.476        7.159      716.390       71.839       51.251        0.204        0.042       56.300       10.653        0.036      331.052       -1.182      864.299
01/03/2014  07:16:00      -93.066      -15.427      -12.398       18.162       18.082       11.242      329.875      326.966      126.385        0.492        0.039       94.336        6.535        0.005      330.829       -1.547      864.307
01/03/2014  07:17:00      -76.253      -19.401       -8.390       10.973       12.777        7.216      120.414      163.262       52.073        0.330        0.017       78.682        3.537        0.002      330.847       -1.518      864.291
01/03/2014  07:18:00      -60.160      -23.043       -8.041       12.206        9.647        8.041      148.989       93.067       64.652        0.226        0.015       64.422        4.380        0.005      330.961       -1.333      864.278
01/03/2014  07:19:00      -81.888      -19.320      -10.896       10.745       11.825        9.306      115.454      139.822       86.597        0.377        0.017       84.136        1.722        0.000      331.026       -1.226      864.273
01/03/2014  07:20:00      -94.927      -10.012      -12.895       16.145       14.028        7.609      260.674      196.772       57.898        0.490        0.026       95.454        2.454        0.001      331.001       -1.266      864.274
01/03/2014  07:21:00     -103.033       -6.294       -8.115       12.356       12.243       12.550      152.659      149.899      157.514        0.559        0.023      103.225        8.415        0.007      330.980       -1.301      864.286
01/03/2014  07:22:00      -86.872      -10.925       -8.466       15.031       11.149        9.788      225.932      124.308       95.797        0.409        0.022       87.556        7.213        0.007      331.070       -1.154      864.283
01/03/2014  07:23:00      -84.490      -16.418      -10.279       15.376       11.320       12.166      236.431      128.137      148.004        0.401        0.026       86.071        9.005        0.011      331.095       -1.110      864.270
01/03/2014  07:24:00      -86.997      -16.136      -10.884       22.477       12.540       12.312      505.212      157.262      151.578        0.438        0.041       88.481       12.931        0.021      330.982       -1.297      864.266
01/03/2014  07:25:00      -44.913      -22.991       -1.590       25.590       12.409        9.339      654.864      153.973       87.221        0.172        0.045       50.456       10.784        0.046      331.008       -1.252      864.260
01/03/2014  07:26:00      -50.414      -29.552       -2.832       19.017       13.824        7.922      361.656      191.089       62.760        0.202        0.031       58.438        3.917        0.004      331.117       -1.075      864.268
01/03/2014  07:27:00      -43.944      -10.780        1.428       20.258       16.611        7.493      410.367      275.925       56.151        0.140        0.037       45.247        8.739        0.037      331.095       -1.110      864.263
01/03/2014  07:28:00      -13.285      -11.625       -2.301       12.709       11.413        8.303      161.512      130.254       68.943        0.034        0.018       17.653        5.624        0.101      331.015       -1.243      864.272
01/03/2014  07:29:00      -32.880       16.096       -5.264       13.869        9.783        6.439      192.350       95.705       41.462        0.085        0.016       36.609        4.884        0.018      331.112       -1.083      864.266
01/03/2014  07:30:00      -10.128       21.338        4.425       15.377       10.940        8.279      236.441      119.686       68.544        0.050        0.021       23.619        5.588        0.056      331.397       -0.615      864.257
01/03/2014  07:31:00      -52.788       24.697       -9.073       11.512       12.352        7.640      132.515      152.571       58.370        0.191        0.017       58.280        6.234        0.011      331.084       -1.128      864.239
01/03/2014  07:32:00      -57.942        4.393       -5.766       19.555       16.155        9.221      382.403      261.000       85.019        0.207        0.036       58.108        7.596        0.017      331.087       -1.124      864.245
01/03/2014  07:33:00      -60.069      -20.255       -9.082        9.172        9.135        6.626       84.122       83.453       43.905        0.216        0.011       63.392        3.431        0.003      331.042       -1.200      864.239
01/03/2014  07:34:00      -72.229       -0.027       -3.948       15.391       12.638        8.611      236.868      159.714       74.146        0.285        0.024       72.229        8.724        0.015      331.054       -1.180      864.242
01/03/2014  07:35:00      -37.677      -14.166        2.157       20.451       17.846       11.274      418.263      318.479      127.106        0.124        0.043       40.252        9.397        0.054      331.039       -1.203      864.234
01/03/2014  07:36:00      -77.090       -7.039       -4.715       29.153       12.693       10.822      849.922      161.119      117.115        0.357        0.056       77.411       11.323        0.021      331.039       -1.204      864.226
01/03/2014  07:37:00      -71.250       -4.618       -9.258       20.318       12.143       13.081      412.839      147.452      171.123        0.296        0.037       71.399       13.013        0.033      331.041       -1.201      864.214
01/03/2014  07:38:00      -21.739       -0.209       -1.613       14.079        9.181        7.018      198.230       84.295       49.247        0.040        0.017       21.740        5.988        0.076      331.159       -1.008      864.186
01/03/2014  07:39:00       -2.676       -7.184       -2.311        5.439        7.292        7.742       29.581       53.169       59.940        0.010        0.007        7.666        3.868        0.255      331.351       -0.689      864.170
01/03/2014  07:40:00      -21.291      -10.260       -6.503       15.644       10.377        9.051      244.724      107.688       81.921        0.052        0.022       23.634        9.509        0.162      331.295       -0.782      864.152
01/03/2014  07:41:00      -29.889       -2.394       -3.605        7.426        5.224        9.005       55.139       27.294       81.090        0.054        0.008       29.985        5.988        0.040      331.175       -0.979      864.131
01/03/2014  07:42:00      -46.013      -26.075       -6.227       16.324       15.354        9.377      266.478      235.742       87.923        0.171        0.030       52.887        5.969        0.013      331.167       -0.994      864.139
01/03/2014  07:43:00      -88.792      -25.541      -14.590       14.999       17.430       11.589      224.980      303.811      134.296        0.471        0.033       92.393        5.201        0.003      330.938       -1.370      864.159
01/03/2014  07:44:00     -107.737       -0.188      -10.928       27.489       18.783       14.108      755.651      352.789      199.025        0.652        0.065      107.737       11.162        0.011      330.954       -1.341      864.184
01/03/2014  07:45:00     -120.527       -5.045       -7.507       27.380       17.055       16.862      749.682      290.866      284.344        0.797        0.066      120.633       14.293        0.014      330.913       -1.409      864.191
01/03/2014  07:46:00      -99.155       -3.586      -11.936       40.386       21.245       15.505     1631.003      451.333      240.408        0.615        0.116       99.220       19.206        0.037      330.929       -1.382      864.195
01/03/2014  07:47:00      -61.994      -14.835       -4.235       27.486       17.183       12.845      755.464      295.259      165.000        0.265        0.061       63.744       13.099        0.042      330.967       -1.321      864.174
01/03/2014  07:48:00      -60.195      -17.668       -7.329       15.703       10.753        8.750      246.585      115.629       76.559        0.221        0.022       62.734        5.630        0.008      331.031       -1.215      864.165
01/03/2014  07:49:00      -63.112      -24.611      -12.458       35.909       18.665       12.800     1289.474      348.371      163.850        0.327        0.090       67.741       14.422        0.045      330.977       -1.303      864.161
01/03/2014  07:50:00      -76.463      -21.622       -6.893       24.943       16.983       12.245      622.144      288.428      149.940        0.371        0.053       79.461        7.915        0.010      330.989       -1.285      864.145
01/03/2014  07:51:00      -80.422      -37.685      -17.231       18.166       19.306       13.453      330.009      372.708      180.975        0.453        0.044       88.814        5.690        0.004      331.042       -1.197      864.155
01/03/2014  07:52:00      -55.058      -21.482       -9.228       29.282       22.435       15.377      857.408      503.312      236.459        0.259        0.080       59.100       14.028        0.056      331.009       -1.253      864.162
01/03/2014  07:53:00      -37.021       -4.521       -2.139       22.965       16.385       11.374      527.399      268.479      129.376        0.116        0.046       37.296       12.177        0.107      331.053       -1.179      864.162
01/03/2014  07:54:00      -35.014       -9.933       -2.946       13.581       11.487       10.222      184.440      131.955      104.497        0.088        0.021       36.396        8.561        0.055      331.071       -1.151      864.164
01/03/2014  07:55:00      -27.890       -7.722       -3.081       13.067        7.900       12.688      170.754       62.413      160.976        0.062        0.020       28.939       11.015        0.145      331.171       -0.985      864.147
01/03/2014  07:56:00        5.674       -0.196        9.570        9.842        6.996        9.556       96.856       48.945       91.309        0.018        0.012        5.677        7.559        1.773      331.660       -0.182      864.160
01/03/2014  07:57:00      -33.498      -10.388       -5.031       15.234        7.775        5.472      232.074       60.458       29.945        0.079        0.016       35.072        6.631        0.036      331.380       -0.642      864.156
01/03/2014  07:58:00      -79.480        0.080      -12.045       32.637       25.288       17.757     1065.142      639.471      315.323        0.424        0.101       79.480       14.123        0.032      331.215       -0.911      864.153
01/03/2014  07:59:00      -62.289       22.456       -8.107       23.567       29.130       17.579      555.417      848.547      309.010        0.308        0.086       66.213       11.518        0.030      331.441       -0.543      864.138
01/03/2014  08:00:00      -44.117       -5.661       -7.482       18.417       17.111        9.616      339.182      292.786       92.473        0.138        0.036       44.479       10.282        0.053      331.286       -0.796      864.121
01/03/2014  08:01:00      -24.155       -7.647       -2.768       21.567        6.905        8.624      465.147       47.685       74.369        0.062        0.029       25.337        7.239        0.082      331.363       -0.669      864.089
01/03/2014  08:02:00        6.506        3.477       19.192        8.601        7.093        6.319       73.977       50.304       39.924        0.029        0.008        7.377        2.123        0.083      331.904        0.220      864.073
01/03/2014  08:03:00       22.822       16.609       15.252       16.603        8.649       11.914      275.644       74.798      141.947        0.076        0.025       28.226       11.015        0.152      331.611       -0.261      864.086
01/03/2014  08:04:00       24.121       18.301        1.864       13.397       12.641       10.014      179.478      159.783      100.288        0.068        0.022       30.278        5.719        0.036      331.652       -0.196      864.113
01/03/2014  08:05:00       43.017       29.886        5.032       21.341       21.028       18.419      455.431      442.174      339.250        0.200        0.062       52.380       15.221        0.084      331.617       -0.254      864.156
01/03/2014  08:06:00       68.324       36.158       13.346       31.904       18.830       18.326     1017.861      354.566      335.836        0.393        0.085       77.302       10.109        0.017      331.609       -0.264      864.174
01/03/2014  08:07:00       51.962       40.924        6.193       25.992       22.285       22.171      675.568      496.628      491.534        0.304        0.083       66.143       14.197        0.046      331.697       -0.119      864.175
01/03/2014  08:08:00       47.341       32.232       -4.580       21.829       14.695       16.272      476.489      215.951      264.768        0.213        0.048       57.272        8.826        0.024      331.715       -0.090      864.164
01/03/2014  08:09:00       18.571       18.065       15.461       23.175       13.359       11.980      537.070      178.455      143.517        0.088        0.043       25.907        6.454        0.062      331.921        0.248      864.141
01/03/2014  08:10:00       36.724       27.476       12.316       16.753        9.993       12.823      280.647       99.854      164.440        0.140        0.027       45.865        9.179        0.040      331.765       -0.008      864.133
01/03/2014  08:11:00       26.284       29.386       16.512       22.778       15.701       16.922      518.850      246.506      286.338        0.144        0.053       39.426       15.204        0.149      331.825        0.090      864.134
01/03/2014  08:12:00       52.868       44.177       11.733       12.205       11.482       17.588      148.955      131.828      309.333        0.274        0.030       68.896       10.892        0.025      331.789        0.029      864.144
01/03/2014  08:13:00       28.637       36.395       26.476       28.324       19.078       19.338      802.226      363.956      373.959        0.219        0.077       46.311       16.929        0.134      331.931        0.266      864.141
01/03/2014  08:14:00       14.329       38.522       36.543       16.712       23.431       19.205      279.279      548.998      368.826        0.211        0.060       41.101       14.244        0.120      331.920        0.247      864.134
01/03/2014  08:15:00       33.223       38.607       48.354       30.166       21.181       17.699      910.008      448.620      313.246        0.330        0.084       50.934        7.073        0.019      331.986        0.356      864.145
01/03/2014  08:16:00       45.041       30.130       19.192       28.675       15.355       20.185      822.265      235.766      407.440        0.238        0.073       54.190       17.449        0.104      331.828        0.095      864.154
01/03/2014  08:17:00       45.709       37.131       28.179       17.768       20.298       20.359      315.716      412.013      414.505        0.270        0.057       58.890       15.191        0.067      331.972        0.332      864.165
01/03/2014  08:18:00       19.030       24.703       10.957       18.110       22.893       15.997      327.962      524.067      255.920        0.110        0.055       31.183       13.865        0.198      332.044        0.451      864.197
01/03/2014  08:19:00        4.698       -9.834       10.305       14.460       24.904       11.350      209.095      620.226      128.822        0.059        0.048       10.899       10.003        0.842      332.105        0.550      864.227
01/03/2014  08:20:00       -0.085       11.116       36.258       16.980       22.467       10.457      288.335      504.771      109.343        0.117        0.045       11.116        8.693        0.612      332.315        0.897      864.237
01/03/2014  08:21:00        6.363       19.609       28.757       15.742       13.676       11.641      247.818      187.028      135.510        0.091        0.029       20.616       11.423        0.307      332.257        0.803      864.261
01/03/2014  08:22:00       -3.109       13.581       27.500       10.840       15.760       12.983      117.514      248.382      168.565        0.074        0.027       13.932        9.120        0.428      332.484        1.177      864.271
01/03/2014  08:23:00       -3.725        6.540       26.323       12.669       17.525       13.880      160.504      307.111      192.664        0.070        0.033        7.526       13.353        3.148      332.564        1.309      864.270
01/03/2014  08:24:00       -1.718        5.395       26.023        6.225       11.321        7.823       38.754      128.165       61.192        0.047        0.011        5.662        7.750        1.873      332.769        1.648      864.266
01/03/2014  08:25:00      -27.024      -14.240       -4.719       19.299       12.122       12.321      372.457      146.937      151.805        0.081        0.034       30.547       11.823        0.150      332.113        0.565      864.258
01/03/2014  08:26:00      -36.618       30.639       -0.724       18.780       15.752       14.016      352.695      248.110      196.440        0.154        0.040       47.745       11.096        0.054      332.159        0.643      864.256
01/03/2014  08:27:00      -33.305        0.964       -4.392       20.128       14.759       13.654      405.127      217.813      186.418        0.097        0.040       33.318       11.763        0.125      332.171        0.661      864.235
01/03/2014  08:28:00      -29.614       -2.973      -13.289       14.330       15.677        8.442      205.348      245.782       71.260        0.079        0.026       29.763        5.617        0.036      332.212        0.728      864.206
01/03/2014  08:29:00        7.528       28.954       15.736       20.916       27.860       25.495      437.499      776.178      650.005        0.150        0.093       29.917       16.470        0.303      332.572        1.322      864.189
01/03/2014  08:30:00       -5.041       28.362       59.697       17.387       25.160       15.617      302.298      633.047      243.898        0.279        0.059       28.806       15.368        0.285      332.776        1.660      864.178
01/03/2014  08:31:00       -1.000       33.968       58.922       26.758       31.315       27.394      715.984      980.628      750.425        0.354        0.122       33.983       25.860        0.579      332.563        1.306      864.176
01/03/2014  08:32:00       70.540       68.697       45.893       38.826       27.167       30.154     1507.457      738.027      909.253        0.748        0.158       98.465       21.921        0.050      332.399        1.036      864.193
01/03/2014  08:33:00       61.724       56.054       55.560       42.964       38.398       28.517     1845.915     1474.377      813.229        0.709        0.207       83.378       28.879        0.120      332.460        1.137      864.208
01/03/2014  08:34:00       48.156       22.502       38.162       33.436       27.866       28.864     1117.982      776.509      833.146        0.350        0.136       53.154       26.451        0.248      332.480        1.170      864.237
01/03/2014  08:35:00       49.683       23.165       16.751       23.798       13.163       20.202      566.355      173.266      408.105        0.222        0.057       54.818       16.417        0.090      332.503        1.207      864.245
01/03/2014  08:36:00       36.360       21.714       17.546       23.081       19.249       21.639      532.749      370.537      468.231        0.174        0.069       42.350       10.988        0.067      332.578        1.332      864.253
01/03/2014  08:37:00       42.194       28.407        5.435       20.126       20.402       19.948      405.038      416.250      397.910        0.192        0.061       50.866        9.270        0.033      332.624        1.406      864.252
01/03/2014  08:38:00       42.876       38.565       -4.431       18.274       16.344       22.252      333.929      267.115      495.148        0.222        0.055       57.668        5.600        0.009      332.469        1.152      864.254
01/03/2014  08:39:00       12.967       21.561       22.965       17.333       17.804       16.751      300.447      316.982      280.587        0.103        0.045       25.160        8.067        0.103      332.793        1.687      864.261
01/03/2014  08:40:00        8.120       16.984       24.660       18.651       17.106       13.966      347.843      292.630      195.063        0.090        0.042       18.825       10.971        0.340      332.952        1.950      864.270
01/03/2014  08:41:00       15.387       -1.346       33.028       16.792       12.966       13.705      281.957      168.117      187.818        0.098        0.032       15.445        7.808        0.256      333.013        2.051      864.269
01/03/2014  08:42:00       -5.130       22.032       49.285       10.854       24.423       15.724      117.817      596.470      247.234        0.195        0.048       22.621       15.877        0.493      333.024        2.070      864.263
01/03/2014  08:43:00      -16.202       15.161       43.782       13.586       21.645       22.582      184.577      468.501      509.934        0.179        0.058       22.189       17.113        0.595      332.934        1.920      864.254
01/03/2014  08:44:00       -5.285       13.079       35.750        9.168       17.341       13.708       84.053      300.718      187.909        0.102        0.029       14.107       11.855        0.706      333.023        2.067      864.252
01/03/2014  08:45:00       -9.063       28.594       56.178       11.922       23.834       17.813      142.129      568.050      317.311        0.254        0.051       29.996       17.483        0.340      333.098        2.190      864.237
01/03/2014  08:46:00        0.853       27.012       41.133       15.904       20.949       13.784      252.928      438.861      189.992        0.165        0.044       27.025       13.493        0.249      332.953        1.951      864.215
01/03/2014  08:47:00       -7.339       26.615       56.979       10.213       19.760       11.919      104.296      390.445      142.072        0.232        0.032       27.608       12.074        0.191      333.160        2.293      864.209
01/03/2014  08:48:00       14.387       26.366       28.292       20.613       21.477       23.476      424.911      461.279      551.113        0.157        0.072       30.036       12.157        0.164      332.997        2.024      864.220
01/03/2014  08:49:00       45.893       37.572        1.738       24.327       29.761       19.555      591.816      885.745      382.413        0.269        0.093       59.311       16.134        0.074      332.863        1.803      864.224
01/03/2014  08:50:00       41.609       37.684        8.100       25.478       27.225       27.155      649.132      741.186      737.376        0.267        0.106       56.137       16.989        0.092      332.931        1.915      864.223
01/03/2014  08:51:00       85.963       57.235       15.395       36.453       25.120       28.075     1328.837      631.035      788.221        0.682        0.137      103.274       13.748        0.018      332.815        1.723      864.231
01/03/2014  08:52:00       76.219       59.802       11.115       21.184       19.038       19.083      448.755      362.447      364.152        0.534        0.059       96.880       10.448        0.012      332.625        1.410      864.243
01/03/2014  08:53:00       70.302       67.021        9.315       26.127       15.545       22.954      682.624      241.657      526.869        0.549        0.073       97.130       20.550        0.045      332.618        1.398      864.251
01/03/2014  08:54:00       49.017       37.442       14.091       23.716       21.488       26.589      562.470      461.753      706.992        0.287        0.087       61.681       14.842        0.058      332.874        1.820      864.254
01/03/2014  08:55:00       73.048       59.192       12.151       24.544       23.696       31.392      602.429      561.519      985.471        0.557        0.107       94.019        9.598        0.010      332.898        1.861      864.259
01/03/2014  08:56:00       74.624       70.987       48.561       34.888       30.873       33.487     1217.167      953.170     1121.364        0.813        0.165      102.994       27.333        0.070      332.858        1.793      864.252
01/03/2014  08:57:00       97.850       68.878       42.512       28.038       26.880       29.260      786.128      722.556      856.155        0.925        0.118      119.661       17.637        0.022      332.746        1.609      864.264
01/03/2014  08:58:00       10.865       69.243       69.841       32.420       33.872       27.296     1051.074     1147.300      745.054        0.637        0.147       70.090       17.847        0.065      333.052        2.115      864.284
01/03/2014  08:59:00       18.060       67.963       62.729       23.626       24.258       19.801      558.210      588.437      392.074        0.521        0.077       70.322       13.944        0.039      332.971        1.981      864.288
01/03/2014  09:00:00       13.152        2.232       41.956       23.923       40.477       22.673      572.334     1638.405      514.043        0.233        0.136       13.340       23.424        3.083      333.268        2.471      864.261
01/03/2014  09:01:00       35.739       52.276       56.740       32.259       30.840       30.726     1040.641      951.107      944.067        0.508        0.147       63.325       22.354        0.125      333.026        2.072      864.220
01/03/2014  09:02:00        7.874      -15.155       30.689       27.307       36.134       30.116      745.693     1305.656      906.998        0.210        0.148       17.079       29.122        2.908      333.194        2.351      864.218
01/03/2014  09:03:00       12.783        3.906       31.683       19.762       42.512       15.827      390.526     1807.229      250.491        0.181        0.122       13.366       11.369        0.724      333.326        2.567      864.224
01/03/2014  09:04:00       30.363       46.592       39.914       23.782       21.714       17.039      565.573      471.478      290.318        0.301        0.066       55.612        8.999        0.026      333.248        2.438      864.213
01/03/2014  09:05:00        0.047       28.682       57.441       20.904       32.980       22.713      436.971     1087.675      515.859        0.308        0.102       28.682       20.147        0.493      333.499        2.855      864.188
01/03/2014  09:06:00       15.025       40.873       46.459       22.478       21.764       17.313      505.274      473.656      299.723        0.267        0.064       43.547       11.950        0.075      333.192        2.345      864.157
01/03/2014  09:07:00        2.493        3.488       39.276       19.251       38.106       36.934      370.596     1452.057     1364.121        0.237        0.159        4.287       35.898       70.109      333.453        2.779      864.147
01/03/2014  09:08:00       11.651       23.809       44.007       21.409       22.532       11.609      458.356      507.686      134.780        0.187        0.055       26.507        9.686        0.134      333.582        2.993      864.143
01/03/2014  09:09:00       58.540       55.593       51.588       33.302       27.068       25.170     1109.043      732.651      633.549        0.583        0.124       80.732       17.580        0.047      333.178        2.324      864.146
01/03/2014  09:10:00       25.345       52.891       57.565       32.878       24.986       17.570     1080.957      624.300      308.709        0.438        0.101       58.650       16.618        0.080      333.223        2.397      864.118
01/03/2014  09:11:00       -5.138       35.760       56.031       21.046       28.752       18.029      442.927      826.688      325.029        0.302        0.080       36.127       12.676        0.123      333.453        2.778      864.111
01/03/2014  09:12:00       32.441       57.972       63.290       39.867       23.765       26.279     1589.387      564.765      690.578        0.563        0.142       66.432       21.060        0.100      333.188        2.339      864.098
01/03/2014  09:13:00       13.482       34.123       52.437       27.002       28.482       18.908      729.121      811.239      357.506        0.300        0.095       36.690       13.043        0.126      333.623        3.059      864.098
01/03/2014  09:14:00        5.484        7.761       42.896       18.796       30.639       18.654      353.278      938.760      347.968        0.178        0.082        9.503       18.713        3.878      333.813        3.375      864.096
01/03/2014  09:15:00        9.688       55.261       65.776       29.580       28.977       22.904      874.991      839.691      524.571        0.486        0.112       56.104       18.726        0.111      333.569        2.969      864.093
01/03/2014  09:16:00       13.508       24.064       37.956       24.523       23.025       22.696      601.398      530.141      515.116        0.192        0.082       27.596       17.494        0.402      333.581        2.990      864.082
01/03/2014  09:17:00       22.069       42.254       56.010       33.578       25.761       23.585     1127.492      663.643      556.270        0.388        0.117       47.670       21.567        0.205      333.542        2.925      864.076
01/03/2014  09:18:00       17.333       23.953       27.792       24.466       23.359       25.696      598.609      545.659      660.272        0.173        0.090       29.566       19.330        0.427      333.611        3.040      864.084
01/03/2014  09:19:00       40.627       50.377       27.186       35.317       23.460       25.110     1247.262      550.368      630.535        0.368        0.121       64.718       21.033        0.106      333.604        3.026      864.102
01/03/2014  09:20:00       95.490       45.300        1.263       28.712       33.162       29.287      824.386     1099.749      857.756        0.698        0.139      105.690       17.163        0.026      333.376        2.650      864.099
01/03/2014  09:21:00      104.454       61.840        4.541       47.161       32.773       35.066     2224.115     1074.052     1229.657        0.964        0.226      121.387       19.594        0.026      333.400        2.689      864.083
01/03/2014  09:22:00       40.375       73.227       40.503       46.665       41.055       49.378     2177.656     1685.544     2438.162        0.747        0.315       83.620       29.255        0.122      333.520        2.889      864.088
01/03/2014  09:23:00       71.110       65.835       29.659       64.728       46.140       40.755     4189.761     2128.886     1660.945        0.912        0.399       96.906       37.105        0.147      333.493        2.844      864.077
01/03/2014  09:24:00      130.276      103.747       10.453       40.909       30.636       35.970     1673.518      938.573     1293.873        1.587        0.195      166.539       16.419        0.010      333.017        2.057      864.043
01/03/2014  09:25:00       -4.445       66.071       83.337       33.738       48.177       48.565     1138.254     2321.036     2358.574        0.857        0.291       66.221       37.297        0.317      333.533        2.909      864.014
01/03/2014  09:26:00       72.796      110.542       91.390       70.287       37.897       43.120     4940.271     1436.159     1859.345        1.705        0.412      132.358       45.701        0.119      333.306        2.534      864.009
01/03/2014  09:27:00       83.275       68.911       65.242       52.367       48.410       39.081     2742.330     2343.573     1527.350        1.128        0.331      108.090       27.848        0.066      333.293        2.514      864.020
01/03/2014  09:28:00      109.794       80.865       58.403       54.627       54.951       50.723     2984.154     3019.618     2572.822        1.529        0.429      136.360       44.475        0.106      333.179        2.323      864.025
01/03/2014  09:29:00       98.004       52.905        7.081       40.540       34.942       25.154     1643.472     1220.938      632.738        0.797        0.175      111.372       17.804        0.026      333.155        2.285      864.034
01/03/2014  09:30:00      121.480       94.917       29.574       28.575       19.280       32.140      816.528      371.718     1032.976        1.343        0.111      154.164        9.507        0.004      333.173        2.315      864.029
01/03/2014  09:31:00      114.927       74.231       16.071       44.143       28.247       36.825     1948.608      797.871     1356.111        1.154        0.205      136.815        6.032        0.002      333.332        2.577      864.016
01/03/2014  09:32:00      129.135      104.859       31.633       40.126       34.782       40.044     1610.132     1209.802     1603.515        1.655        0.221      166.347       19.457        0.014      333.310        2.541      864.009
01/03/2014  09:33:00       97.148       60.101       19.690       57.271       32.676       33.850     3279.995     1067.730     1145.833        0.946        0.275      114.236       23.748        0.043      333.477        2.817      864.000
01/03/2014  09:34:00       35.347       88.659       96.715       40.584       39.084       30.943     1647.082     1527.555      957.448        1.130        0.207       95.445       30.036        0.099      333.438        2.752      863.997
01/03/2014  09:35:00       47.625       80.355       64.289       41.556       43.434       38.505     1726.884     1886.506     1482.616        0.898        0.255       93.408       20.047        0.046      333.425        2.731      863.992
01/03/2014  09:36:00       22.796       17.735       48.360       64.270       58.451       53.118     4130.590     3416.529     2821.506        0.677        0.518       28.882       51.108        3.131      333.612        3.042      863.973
01/03/2014  09:37:00        9.626       23.519       48.772       29.966       37.374       32.866      897.941     1396.783     1080.189        0.320        0.169       25.413       10.522        0.171      333.979        3.650      863.962
01/03/2014  09:38:00       17.089       62.448       70.997       25.580       35.398       17.234      654.314     1253.026      296.995        0.572        0.110       64.744        9.152        0.020      333.822        3.388      863.960
01/03/2014  09:39:00       31.161       54.089       83.154       48.020       45.713       42.769     2305.926     2089.633     1829.219        0.852        0.311       62.423       39.455        0.399      333.716        3.213      863.948
01/03/2014  09:40:00       51.215       67.972       59.118       34.112       28.992       32.398     1163.599      840.558     1049.650        0.690        0.153       85.107       25.889        0.093      333.628        3.068      863.938
01/03/2014  09:41:00       33.337       70.250       80.950       40.572       35.137       34.816     1646.060     1234.613     1212.120        0.835        0.205       77.758       27.224        0.123      333.562        2.958      863.919
01/03/2014  09:42:00       27.761       39.946       64.643       46.519       43.359       30.501     2164.018     1879.972      930.295        0.576        0.249       48.645       28.544        0.344      333.894        3.508      863.902
01/03/2014  09:43:00       58.425       35.879       56.508       36.352       37.488       35.992     1321.489     1405.326     1295.455        0.596        0.201       68.562       19.185        0.078      333.607        3.033      863.889
01/03/2014  09:44:00       29.955       68.617       35.072       32.910       41.259       39.273     1083.065     1702.284     1542.407        0.558        0.216       74.870       30.465        0.166      333.583        2.992      863.877
01/03/2014  09:45:00       48.715       67.568       48.994       28.955       24.625       22.629      838.363      606.372      512.089        0.565        0.098       83.298        9.484        0.013      333.594        3.012      863.869
01/03/2014  09:46:00       33.636       66.995       -5.554       19.078       15.581       27.347      363.958      242.777      747.858        0.350        0.068       74.964       13.640        0.033      333.653        3.109      863.865
01/03/2014  09:47:00       16.526       22.653       20.949       32.094       24.661       21.996     1030.007      608.189      483.825        0.167        0.106       28.040       21.827        0.606      334.133        3.904      863.869
01/03/2014  09:48:00       33.042       17.738       42.901       19.536       21.445       16.214      381.664      459.896      262.881        0.218        0.055       37.503        9.823        0.069      334.026        3.726      863.859
01/03/2014  09:49:00        9.285       25.585       25.090       27.077       22.276       24.862      733.137      496.209      618.118        0.161        0.092       27.218       10.803        0.158      334.077        3.811      863.850
01/03/2014  09:50:00       15.458       32.889       29.729       23.194       24.604       16.523      537.958      605.356      273.001        0.181        0.071       36.341       13.440        0.137      334.127        3.895      863.829
01/03/2014  09:51:00       24.289       50.793       60.302       22.314       26.372       17.075      497.922      695.465      291.539        0.415        0.074       56.302        8.522        0.023      333.982        3.654      863.815
01/03/2014  09:52:00        7.667       42.435       63.110       25.720       28.856       27.690      661.525      832.645      766.728        0.405        0.113       43.122       18.886        0.192      334.150        3.932      863.799
01/03/2014  09:53:00       43.898       45.499       44.180       31.890       20.459       27.459     1016.955      418.569      753.986        0.407        0.109       63.223       17.292        0.075      333.881        3.488      863.787
01/03/2014  09:54:00       70.829       49.949       10.507       28.694       39.626       41.978      823.336     1570.215     1762.171        0.589        0.208       86.670       24.863        0.082      333.889        3.500      863.787
01/03/2014  09:55:00       82.362       86.204       -5.322       29.025       22.565       25.327      842.469      509.186      641.462        0.812        0.100      119.225       14.923        0.016      333.838        3.415      863.775
01/03/2014  09:56:00       67.863       64.351      -10.311       35.230       20.286       19.560     1241.122      411.522      382.595        0.544        0.102       93.523       14.005        0.022      333.873        3.474      863.767
01/03/2014  09:57:00       14.071       59.558       14.565       28.458       26.073       29.389      809.839      679.821      863.712        0.315        0.118       61.198       22.474        0.135      334.325        4.225      863.773
01/03/2014  09:58:00       53.309       46.344       30.650       44.827       30.660       21.897     2009.492      940.014      479.482        0.468        0.171       70.637       22.299        0.100      334.463        4.451      863.772
01/03/2014  09:59:00       15.137       41.565       66.652       25.853       36.693       20.427      668.400     1346.399      417.265        0.442        0.122       44.235       13.945        0.099      334.653        4.767      863.775
01/03/2014  10:00:00       24.702       57.171       70.971       38.891       33.142       17.370     1512.521     1098.370      301.725        0.591        0.146       62.279       19.198        0.095      334.356        4.276      863.762
01/03/2014  10:01:00       19.763       72.576       76.815       36.974       38.560       23.272     1367.106     1486.904      541.570        0.748        0.170       75.219       17.706        0.055      334.309        4.197      863.764
01/03/2014  10:02:00       70.646       61.176       23.611       32.400       29.653       38.939     1049.750      879.325     1516.214        0.637        0.172       93.452       26.606        0.081      334.063        3.788      863.766
01/03/2014  10:03:00       76.854       60.450        2.238       32.129       24.934       25.158     1032.265      621.704      632.902        0.593        0.114       97.779       10.089        0.011      334.389        4.330      863.755
01/03/2014  10:04:00       71.789       53.422       16.527       43.177       28.351       27.667     1864.261      803.798      765.450        0.586        0.172       89.485       13.389        0.022      334.295        4.175      863.754
01/03/2014  10:05:00      -18.522        9.143       27.723       20.157       33.506       39.559      406.295     1122.624     1564.922        0.214        0.155       20.655       30.661        2.203      334.728        4.891      863.748
01/03/2014  10:06:00       11.038      -11.090       33.489       17.649       19.319       21.716      311.493      373.225      471.596        0.126        0.058       15.647       16.887        1.165      334.730        4.896      863.742
01/03/2014  10:07:00       51.295       47.689       46.445       40.773       27.275       21.753     1662.440      743.951      473.203        0.497        0.144       70.038       14.886        0.045      334.279        4.147      863.736
01/03/2014  10:08:00       39.372       56.106       10.203       27.491       13.337       22.670      755.736      177.880      513.948        0.312        0.072       68.542       10.918        0.025      334.138        3.913      863.725
01/03/2014  10:09:00       15.159       48.659       22.002       22.768       20.034       21.991      518.390      401.374      483.592        0.224        0.070       50.966       14.346        0.079      334.391        4.334      863.713
01/03/2014  10:10:00       26.762       52.117        3.699       25.465       23.332       27.000      648.465      544.368      728.985        0.268        0.096       58.586        9.909        0.029      334.380        4.315      863.701
01/03/2014  10:11:00       19.657       71.980       82.098       43.512       46.862       28.860     1893.273     2196.085      832.909        0.861        0.246       74.615       26.026        0.122      334.814        5.035      863.688
01/03/2014  10:12:00        0.990       36.484       60.693       16.431       28.527       14.989      269.993      813.818      224.679        0.316        0.065       36.498       13.250        0.132      334.818        5.043      863.705
01/03/2014  10:13:00       42.198       54.292       59.521       35.151       34.122       28.108     1235.567     1164.298      790.038        0.573        0.159       68.762       24.652        0.129      334.742        4.915      863.694
01/03/2014  10:14:00       37.364       81.233       82.625       43.778       35.525       28.803     1916.503     1262.033      829.600        0.941        0.200       89.414       26.720        0.089      334.718        4.875      863.643
01/03/2014  10:15:00       27.578       58.833       61.771       45.111       44.639       42.560     2035.044     1992.654     1811.390        0.694        0.292       64.976       35.321        0.296      334.645        4.756      863.615
01/03/2014  10:16:00       64.209       53.370       20.077       30.656       18.145       21.140      939.791      329.234      446.905        0.454        0.086       83.493        6.639        0.006      334.365        4.291      863.612
01/03/2014  10:17:00       72.565       36.206       11.801       22.483       18.152       25.954      505.488      329.496      673.596        0.411        0.075       81.096       14.912        0.034      334.422        4.385      863.609
01/03/2014  10:18:00       41.447       45.806       48.337       44.437       43.889       41.469     1974.678     1926.261     1719.672        0.589        0.281       61.774       32.473        0.276      334.779        4.977      863.569
01/03/2014  10:19:00       -0.801       68.579       92.917       29.479       41.935       32.270      868.989     1758.564     1041.333        0.850        0.183       68.584       31.778        0.215      334.955        5.270      863.529
01/03/2014  10:20:00      -13.835       20.105       42.529       13.058       19.332       16.006      170.516      373.745      256.199        0.160        0.040       24.405       10.960        0.202      335.291        5.828      863.532
01/03/2014  10:21:00       22.385      -39.930       23.557       33.835       48.427       32.437     1144.774     2345.175     1052.164        0.360        0.227       45.776       25.299        0.305      335.141        5.580      863.540
01/03/2014  10:22:00       62.843       70.128       66.835       45.571       49.099       37.380     2076.762     2410.711     1397.300        0.961        0.294       94.165       27.262        0.084      334.829        5.061      863.540
01/03/2014  10:23:00       16.775      -16.252       33.510       23.200       57.731       29.003      538.251     3332.901      841.148        0.319        0.236       23.356       30.175        1.669      335.041        5.412      863.563
01/03/2014  10:24:00       15.189       36.075       33.669       38.496       42.649       34.817     1481.922     1818.963     1212.245        0.359        0.226       39.142       24.258        0.384      335.283        5.814      863.581
01/03/2014  10:25:00       25.021       41.375       46.033       42.710       40.691       31.627     1824.159     1655.793     1000.252        0.447        0.224       48.352       25.539        0.279      335.308        5.856      863.579
01/03/2014  10:26:00       14.870       27.799       54.808       45.791       62.122       47.131     2096.813     3859.204     2221.349        0.609        0.409       31.526       41.371        1.722      335.201        5.679      863.564
01/03/2014  10:27:00        7.873       65.159       91.620       31.111       45.477       27.424      967.909     2068.139      752.077        0.824        0.189       65.633       30.979        0.223      334.950        5.261      863.568
01/03/2014  10:28:00       45.896       25.195       35.014       42.989       57.455       45.693     1848.026     3301.093     2087.849        0.560        0.362       52.357       46.630        0.793      335.010        5.361      863.550
01/03/2014  10:29:00       58.807       36.073       17.998       76.890       62.453       34.484     5912.098     3900.331     1189.151        0.804        0.550       68.989       40.005        0.336      335.248        5.756      863.543
01/03/2014  10:30:00       64.855       78.210       28.294       51.980       47.527       39.109     2701.955     2258.849     1529.539        0.881        0.325      101.602       30.911        0.093      335.211        5.693      863.536
01/03/2014  10:31:00       30.882       87.756        3.746       51.076       45.366       36.622     2608.736     2058.062     1341.191        0.734        0.300       93.031       27.444        0.087      334.947        5.256      863.528
01/03/2014  10:32:00        1.752       89.273       19.402       43.611       47.958       40.813     1901.919     2299.947     1665.690        0.711        0.293       89.290       41.268        0.214      335.080        5.477      863.529
01/03/2014  10:33:00       28.298       57.415       62.997       30.226       26.899       17.825      913.628      723.540      317.746        0.501        0.098       64.010       10.255        0.026      335.050        5.427      863.482
01/03/2014  10:34:00       17.165      -40.642       36.843       39.693       69.722       39.949     1575.546     4861.147     1595.934        0.567        0.402       44.118       46.275        1.100      335.330        5.893      863.444
01/03/2014  10:35:00       82.797       77.884       64.818       55.076       29.623       38.392     3033.345      877.512     1473.979        1.125        0.269      113.671       40.420        0.126      334.888        5.158      863.432
01/03/2014  10:36:00       43.828       24.653        2.074       38.560       30.319       34.255     1486.890      919.254     1173.425        0.306        0.179       50.286       28.562        0.323      334.813        5.032      863.433
01/03/2014  10:37:00       -9.767       59.605       -2.879       21.955       38.168       23.588      482.015     1456.759      556.386        0.308        0.125       60.400       20.238        0.112      335.044        5.417      863.428
01/03/2014  10:38:00       16.120       45.120        8.330       53.341       36.978       36.088     2845.235     1367.345     1302.334        0.394        0.276       47.914       32.983        0.474      335.212        5.696      863.399
01/03/2014  10:39:00       -1.212       52.499       95.680       27.496       39.516       25.491      756.027     1561.540      649.794        0.744        0.148       52.513       25.611        0.238      335.408        6.022      863.386
01/03/2014  10:40:00        0.239       59.335       89.008       30.190       35.161       25.134      911.436     1236.291      631.707        0.711        0.139       59.335       19.483        0.108      335.376        5.967      863.378
01/03/2014  10:41:00       70.758       72.432       74.225       58.946       43.826       45.384     3474.613     1920.744     2059.710        1.161        0.373      101.257       38.549        0.145      335.286        5.818      863.374
01/03/2014  10:42:00       29.287      122.542      120.571       42.019       44.148       23.961     1765.594     1949.063      574.149        1.735        0.214      125.993       18.100        0.021      335.044        5.417      863.357
01/03/2014  10:43:00       12.128       65.671       87.905       30.598       40.448       27.542      936.209     1636.042      758.557        0.776        0.167       66.782       24.880        0.139      335.322        5.880      863.355
01/03/2014  10:44:00       22.020       58.859       80.359       30.748       55.202       25.703      945.426     3047.244      660.667        0.753        0.233       62.843       30.082        0.229      335.458        6.104      863.349
01/03/2014  10:45:00       72.626       78.699       13.397       39.845       32.081       37.645     1587.636     1029.209     1417.112        0.784        0.202      107.089       31.165        0.085      335.190        5.659      863.341
01/03/2014  10:46:00       69.225       86.105      -19.805       34.924       24.490       20.841     1219.661      599.741      434.365        0.743        0.113      110.481       14.149        0.016      335.162        5.613      863.315
01/03/2014  10:47:00       67.643       56.876       30.082       63.372       44.267       38.360     4016.002     1959.606     1471.483        0.808        0.372       88.377       32.959        0.139      335.479        6.139      863.276
01/03/2014  10:48:00       53.533       58.505       13.619       37.034       34.919       35.726     1371.522     1219.360     1276.366        0.517        0.193       79.301       15.374        0.038      335.477        6.138      863.269
01/03/2014  10:49:00       17.785       39.237       37.512       45.557       36.770       49.846     2075.435     1352.057     2484.604        0.459        0.296       43.080       41.037        0.907      335.695        6.499      863.252
01/03/2014  10:50:00        0.130       22.756       73.153       30.354       56.838       26.106      921.387     3230.540      681.506        0.535        0.242       22.757       18.446        0.657      335.883        6.815      863.219
01/03/2014  10:51:00       13.607       29.947       65.413       50.820       36.139       31.858     2582.680     1306.018     1014.944        0.513        0.245       32.893       16.414        0.249      336.029        7.058      863.205
01/03/2014  10:52:00       42.800       67.902       73.449       37.987       34.847       25.238     1443.043     1214.318      636.946        0.757        0.165       80.265       10.789        0.018      335.592        6.328      863.186
01/03/2014  10:53:00       27.887       52.035       79.812       38.830       38.884       25.600     1507.790     1511.986      655.372        0.676        0.184       59.037       22.969        0.151      335.616        6.368      863.160
01/03/2014  10:54:00       48.955       69.590       68.696       40.442       73.151       44.209     1635.587     5351.004     1954.400        1.045        0.447       85.085       43.330        0.259      335.597        6.336      863.132
01/03/2014  10:55:00        9.921       22.637       43.527       24.709       36.736       35.473      610.518     1349.566     1258.357        0.286        0.161       24.716       19.663        0.633      336.049        7.090      863.127
01/03/2014  10:56:00       33.550       51.504       55.530       47.842       41.022       35.551     2288.843     1682.797     1263.865        0.605        0.262       61.468       26.185        0.181      335.897        6.837      863.116
01/03/2014  10:57:00       34.391       59.218       47.827       48.050       41.690       32.389     2308.814     1738.027     1049.074        0.604        0.255       68.480       23.695        0.120      335.792        6.663      863.096
01/03/2014  10:58:00       27.863      -51.217       30.277       45.652       64.778       40.910     2084.104     4196.191     1673.633        0.613        0.398       58.305       43.835        0.565      335.733        6.564      863.062
01/03/2014  10:59:00        5.774       -8.636       39.676       23.783       41.032       20.552      565.618     1683.588      422.377        0.218        0.134       10.388       12.299        1.402      336.141        7.244      863.046
01/03/2014  11:00:00       52.958       95.373       91.148       67.558       45.207       33.342     4564.036     2043.631     1111.674        1.396        0.386      109.090       32.976        0.091      335.781        6.642      863.000
01/03/2014  11:01:00       80.522       67.827       67.450       36.785       39.615       32.783     1353.154     1569.317     1074.720        0.981        0.200      105.282       25.639        0.059      335.495        6.167      862.999
01/03/2014  11:02:00       87.525       79.421       29.443       56.501       34.544       31.991     3192.396     1193.315     1023.396        1.012        0.270      118.188       17.580        0.022      335.542        6.244      862.985
01/03/2014  11:03:00       15.379        2.707       21.287       35.819       29.942       24.524     1282.981      896.502      601.424        0.174        0.139       15.615       18.594        1.418      336.077        7.137      862.977
01/03/2014  11:04:00       26.275       28.503       53.799       34.028       27.085       16.912     1157.915      733.600      286.015        0.329        0.109       38.766       13.928        0.129      336.068        7.122      862.981
01/03/2014  11:05:00       15.908       58.117       42.300       21.692       37.455       28.872      470.528     1402.881      833.600        0.406        0.135       60.255       18.211        0.091      335.885        6.816      862.966
01/03/2014  11:06:00       -3.842       44.801       71.013       19.776       33.787       20.463      391.073     1141.576      418.734        0.451        0.098       44.966       19.468        0.187      336.343        7.581      862.963
01/03/2014  11:07:00       29.883        0.879       40.134       52.548       53.148       38.547     2761.299     2824.704     1485.880        0.479        0.354       29.896       41.089        1.889      336.085        7.150      862.925
01/03/2014  11:08:00       53.123     -104.813      -23.034       45.034       65.127       40.152     2028.103     4241.505     1612.196        1.111        0.394      117.506       39.790        0.115      335.835        6.733      862.884
01/03/2014  11:09:00       27.754        0.726       24.751       60.104       69.514       57.556     3612.510     4832.174     3312.643        0.657        0.588       27.763       55.313        3.969      336.127        7.221      862.862
01/03/2014  11:10:00       -5.230      -13.596       28.518       22.663       37.110       27.720      513.615     1377.143      768.413        0.184        0.133       14.567       22.443        2.374      336.376        7.635      862.864
01/03/2014  11:11:00       90.041       75.400       44.105       44.669       36.113       38.198     1995.354     1304.122     1459.059        1.025        0.238      117.442       17.162        0.021      335.907        6.853      862.864
01/03/2014  11:12:00       94.130       56.184       38.678       40.456       41.317       35.317     1636.655     1707.108     1247.294        0.905        0.230      109.623       26.502        0.058      335.916        6.867      862.859
01/03/2014  11:13:00        7.105       45.093       84.043       26.953       43.420       31.734      726.449     1885.269     1007.053        0.638        0.181       45.649       28.911        0.401      336.301        7.511      862.831
01/03/2014  11:14:00       -7.538       27.480       72.493       22.814       37.650       22.931      520.500     1417.495      525.809        0.427        0.123       28.495       16.760        0.346      336.417        7.705      862.826
01/03/2014  11:15:00       16.354      -29.292       42.285       32.719       43.953       33.542     1070.539     1931.900     1125.092        0.352        0.206       33.548       30.522        0.828      336.258        7.439      862.822
01/03/2014  11:16:00        7.914       -1.340       45.065       16.842       30.779       17.848      283.637      947.321      318.556        0.182        0.077        8.027       17.068        4.521      336.577        7.972      862.801
01/03/2014  11:17:00       69.946       74.544       39.402       32.954       30.521       34.223     1085.966      931.517     1171.217        0.759        0.159      102.222       12.655        0.015      336.165        7.283      862.780
01/03/2014  11:18:00      111.520       63.429        6.417       57.378       44.438       27.410     3292.190     1974.743      751.283        1.126        0.301      128.297       10.673        0.007      336.112        7.194      862.753
01/03/2014  11:19:00      119.429      105.036       11.653       44.830       37.435       36.103     2009.716     1401.416     1303.432        1.507        0.236      159.047       26.124        0.027      335.904        6.848      862.735
01/03/2014  11:20:00       76.578       58.821        2.966       34.103       31.419       27.517     1162.991      987.175      757.207        0.612        0.145       96.561       14.745        0.023      335.949        6.924      862.722
01/03/2014  11:21:00      110.247       69.801        7.686       46.761       36.895       29.191     2186.560     1361.258      852.115        1.074        0.220      130.486       10.820        0.007      336.037        7.070      862.707
01/03/2014  11:22:00       46.278       45.446       18.312       39.940       30.233       26.474     1595.193      914.024      700.867        0.388        0.161       64.862       14.955        0.053      336.460        7.777      862.691
01/03/2014  11:23:00       39.475       58.306       55.054       46.534       41.267       28.812     2165.389     1702.997      830.153        0.634        0.235       70.412       17.579        0.062      336.381        7.643      862.650
01/03/2014  11:24:00      102.464       65.606       16.717       37.359       39.949       32.825     1395.729     1595.899     1077.501        0.957        0.203      121.668       11.545        0.009      336.129        7.223      862.609
01/03/2014  11:25:00       68.930       63.174       -2.669       42.711       36.253       31.887     1824.209     1314.300     1016.778        0.645        0.208       93.500       21.205        0.051      336.208        7.355      862.585
01/03/2014  11:26:00       53.161       80.940        0.249       37.803       45.881       35.634     1429.074     2105.062     1269.805        0.709        0.240       96.837       28.295        0.085      336.138        7.238      862.576
01/03/2014  11:27:00       62.500       53.782        9.061       32.426       21.096       21.088     1051.429      445.056      444.696        0.441        0.097       82.454       14.472        0.031      336.315        7.533      862.570
01/03/2014  11:28:00       17.544       -0.509       18.987       48.506       49.332       34.045     2352.803     2433.609     1159.073        0.331        0.297       17.552       26.080        2.208      336.679        8.143      862.557
01/03/2014  11:29:00       42.713      -35.465       15.331       49.008       50.869       45.133     2401.821     2587.657     2037.013        0.517        0.351       55.518       41.816        0.567      336.628        8.056      862.512
01/03/2014  11:30:00       24.354       14.250       45.357       33.901       39.494       35.929     1149.281     1559.798     1290.889        0.343        0.200       28.216       28.450        1.017      336.800        8.345      862.495
01/03/2014  11:31:00       15.000       30.714       49.556       43.502       47.292       31.247     1892.408     2236.495      976.358        0.436        0.255       34.181       29.109        0.725      336.767        8.290      862.503
01/03/2014  11:32:00       53.982       52.157       14.675       42.331       33.737       32.682     1791.917     1138.183     1068.116        0.492        0.200       75.063       21.779        0.084      336.567        7.955      862.506
01/03/2014  11:33:00       50.790       34.390        9.203       40.501       25.910       23.012     1640.340      671.323      529.574        0.334        0.142       61.337        7.705        0.016      336.265        7.451      862.498
01/03/2014  11:34:00       39.801       70.112        2.809       23.354       36.768       31.641      545.401     1351.873     1001.141        0.470        0.145       80.621       27.509        0.116      336.332        7.562      862.445
01/03/2014  11:35:00       89.392      113.681       75.642       57.407       46.808       54.570     3295.620     2190.946     2977.888        1.755        0.423      144.618       41.617        0.083      336.409        7.690      862.402
01/03/2014  11:36:00       14.702       58.667       57.411       31.566       32.900       33.827      996.413     1082.403     1144.273        0.509        0.161       60.481       23.099        0.146      337.001        8.680      862.375
01/03/2014  11:37:00       10.254       52.178       67.555       29.960       43.890       30.577      897.584     1926.340      934.973        0.557        0.188       53.176       20.904        0.155      337.047        8.757      862.375
01/03/2014  11:38:00       40.685       44.185       61.518       44.475       43.394       39.151     1978.055     1883.049     1532.816        0.639        0.270       60.063       37.252        0.385      336.717        8.206      862.385
01/03/2014  11:39:00       76.642       76.842       74.628       40.075       39.371       25.357     1606.037     1550.094      642.961        1.057        0.190      108.529       23.543        0.047      336.519        7.875      862.376
01/03/2014  11:40:00       49.595        5.902       22.139       45.099       36.726       37.670     2033.934     1348.831     1419.018        0.389        0.240       49.945       30.580        0.375      336.551        7.930      862.352
01/03/2014  11:41:00      -13.318       36.659        2.937       22.718       51.841       23.531      516.103     2687.502      553.693        0.264        0.188       39.003       15.559        0.159      336.763        8.282      862.323
01/03/2014  11:42:00       -0.593       56.299        4.077       24.996       48.857       27.992      624.798     2386.984      783.526        0.349        0.190       56.302       22.711        0.163      336.787        8.323      862.335
01/03/2014  11:43:00       -8.591       22.573        7.738       16.125       23.576       21.738      260.015      555.810      472.529        0.097        0.064       24.153       17.751        0.540      337.121        8.882      862.336
01/03/2014  11:44:00        6.486        8.195       21.536       19.363       21.339       21.089      374.907      455.374      444.732        0.092        0.064       10.451        7.749        0.550      337.193        9.001      862.310
01/03/2014  11:45:00       53.847       94.699       95.325       82.324       61.350       59.525     6777.179     3763.876     3543.266        1.752        0.704      108.938       56.620        0.270      336.799        8.342      862.253
01/03/2014  11:46:00      103.553       49.995       35.513       52.154       31.794       33.192     2720.014     1010.836     1101.713        0.966        0.242      114.990       23.519        0.042      336.582        7.980      862.229
01/03/2014  11:47:00       65.134       38.750       52.676       62.998       51.810       47.518     3968.697     2684.308     2257.913        0.871        0.446       75.789       41.479        0.300      336.793        8.333      862.213
01/03/2014  11:48:00      104.084       75.030       27.522       47.402       41.069       41.745     2246.945     1686.689     1742.623        1.145        0.284      128.308       32.870        0.066      336.547        7.923      862.199
01/03/2014  11:49:00       34.835       50.994       38.196       46.538       28.754       27.559     2165.743      826.785      759.506        0.451        0.188       61.757       29.831        0.233      336.975        8.638      862.164
01/03/2014  11:50:00       67.798       56.833        8.874       46.364       26.655       18.555     2149.574      710.483      344.302        0.555        0.160       88.467       14.498        0.027      336.786        8.322      862.137
01/03/2014  11:51:00       84.703       52.442       11.377       48.031       35.924       27.209     2307.003     1290.562      740.335        0.720        0.217       99.623       22.286        0.050      336.742        8.248      862.106
01/03/2014  11:52:00       -8.578       14.909       44.967       20.011       50.684       31.704      400.446     2568.838     1005.140        0.315        0.199       17.200       34.721        4.075      337.341        9.249      862.074
01/03/2014  11:53:00       27.961       -7.705       19.884       34.364       47.564       32.442     1180.911     2262.301     1052.511        0.287        0.225       29.003       30.814        1.129      336.939        8.577      862.086
01/03/2014  11:54:00       19.332       34.361       36.256       33.827       31.446       40.215     1144.254      988.868     1617.215        0.331        0.188       39.425       28.707        0.530      337.128        8.892      862.054
01/03/2014  11:55:00       -5.437       89.708      116.258       28.018       55.089       32.631      785.003     3034.782     1064.797        1.324        0.244       89.873       37.211        0.171      337.152        8.933      862.014
01/03/2014  11:56:00       42.015       50.582       45.693       46.831       53.035       44.004     2193.184     2812.717     1936.373        0.668        0.347       65.756       39.944        0.369      337.192        9.000      861.990
01/03/2014  11:57:00        2.052       -0.656       33.399       21.197       22.987       13.069      449.332      528.392      170.796        0.113        0.057        2.154       13.156       37.297      337.589        9.667      861.984
01/03/2014  11:58:00       15.932       10.504       16.323       19.806       18.491       15.641      392.260      341.906      244.646        0.080        0.049       19.083        9.502        0.248      337.554        9.605      861.987
01/03/2014  11:59:00       64.581       53.144       45.621       45.209       41.193       41.237     2043.895     1696.865     1700.514        0.726        0.272       83.636       10.977        0.017      337.478        9.478      861.960
01/03/2014  12:00:00       93.148       91.202       38.104       35.330       27.923       36.290     1248.182      779.696     1316.960        1.089        0.167      130.363       21.512        0.027      336.982        8.647      861.929
01/03/2014  12:01:00        0.745       23.539       -4.879       16.048       37.150       22.403      257.532     1380.108      501.899        0.136        0.107       23.550       16.229        0.475      337.420        9.382      861.890
01/03/2014  12:02:00       17.388      -23.102        2.019       40.105       47.477       23.471     1608.388     2254.095      550.877        0.263        0.221       28.914       22.871        0.626      337.707        9.863      861.883
01/03/2014  12:03:00       10.794       24.152        4.665       31.970       26.551       19.804     1022.094      704.940      392.190        0.142        0.106       26.455       16.204        0.375      337.779        9.982      861.889
01/03/2014  12:04:00      118.152       62.286        4.876       41.650       34.428       35.640     1734.727     1185.302     1270.228        1.103        0.210      133.564       24.598        0.034      337.286        9.157      861.871
01/03/2014  12:05:00       41.159       62.223       -6.737       26.898       29.100       22.929      723.481      846.838      525.741        0.385        0.105       74.604       17.174        0.053      337.241        9.082      861.856
01/03/2014  12:06:00       -2.530       29.382       11.230       16.839       37.546       19.847      283.552     1409.696      393.900        0.154        0.104       29.491       20.547        0.485      337.986       10.332      861.828
01/03/2014  12:07:00        9.840       -9.763        7.882       27.356       37.535       18.226      748.345     1408.850      332.204        0.137        0.124       13.862       13.083        0.891      337.708        9.866      861.795
01/03/2014  12:08:00        2.385       55.600       62.995       25.981       42.291       28.567      675.033     1788.560      816.097        0.517        0.164       55.651       28.161        0.256      337.996       10.347      861.773
01/03/2014  12:09:00       52.994       76.108       60.806       62.936       43.894       36.433     3960.983     1926.711     1327.347        0.976        0.361       92.740       30.669        0.109      337.575        9.642      861.760
01/03/2014  12:10:00      105.665       60.015       37.102       65.223       39.148       29.303     4253.992     1532.605      858.660        1.139        0.332      121.519       21.630        0.032      337.504        9.522      861.747
01/03/2014  12:11:00       54.280       75.344       62.089       70.035       41.229       36.429     4904.956     1699.852     1327.081        1.020        0.397       92.860       39.184        0.178      337.625        9.725      861.723
01/03/2014  12:12:00       40.303       47.700       27.771       49.114       35.036       32.174     2412.155     1227.505     1035.139        0.467        0.234       62.447       24.034        0.148      337.848       10.100      861.671
01/03/2014  12:13:00        7.071      -58.213       12.366       38.366       55.532       34.866     1471.966     3083.789     1215.610        0.468        0.289       58.641       22.335        0.145      337.815       10.042      861.633
01/03/2014  12:14:00       48.238       72.388       62.114       46.673       43.616       42.618     2178.343     1902.371     1816.316        0.866        0.295       86.988       33.389        0.147      337.666        9.795      861.613
01/03/2014  12:15:00       98.419      -80.689       -0.372       58.829       72.756       38.400     3460.839     5293.407     1474.580        1.321        0.511      127.267       47.600        0.140      337.477        9.477      861.593
01/03/2014  12:16:00       30.536       71.781       36.283       51.334       33.632       45.179     2635.160     1131.131     2041.127        0.660        0.290       78.006       17.239        0.049      337.933       10.243      861.592
01/03/2014  12:17:00       65.367       65.010       27.280       48.956       35.490       36.932     2396.670     1259.528     1363.940        0.713        0.251       92.190       27.082        0.086      337.804       10.025      861.580
01/03/2014  12:18:00       11.198       13.361        6.871       33.312       32.372       30.127     1109.701     1047.932      907.619        0.171        0.153       17.434       11.507        0.436      337.964       10.294      861.571
01/03/2014  12:19:00       99.018      -53.778       14.778       45.668       62.007       41.236     2085.605     3844.848     1700.422        1.027        0.382      112.679       38.518        0.117      337.700        9.852      861.552
01/03/2014  12:20:00       41.190      -31.917       22.161       39.491       42.500       32.605     1559.502     1806.289     1063.068        0.382        0.221       52.108       31.618        0.368      337.797       10.015      861.551
01/03/2014  12:21:00       31.121       -1.895       18.291       17.634       29.766       23.113      310.967      886.016      534.196        0.152        0.087       31.179       19.181        0.378      337.647        9.762      861.518
01/03/2014  12:22:00       20.537       22.168       53.805       29.317       23.261       32.707      859.458      541.077     1069.746        0.314        0.124       30.219       22.984        0.578      338.226       10.735      861.501
01/03/2014  12:23:00       41.761       75.102       77.009       53.916       41.233       21.418     2906.897     1700.126      458.746        0.919        0.253       85.932       19.463        0.051      338.154       10.612      861.495
01/03/2014  12:24:00       -4.512       82.106       98.134       37.795       47.158       45.017     1428.457     2223.871     2026.499        1.103        0.284       82.230       28.803        0.123      338.239       10.754      861.468
01/03/2014  12:25:00       10.742       31.127       65.251       38.206      103.568       44.197     1459.720    10726.374     1953.369        0.974        0.707       32.928       56.830        2.979      337.783        9.990      861.439
01/03/2014  12:26:00       48.671     -123.171        0.188       23.076       32.293       16.902      532.517     1042.819      285.670        0.970        0.093      132.438        6.093        0.002      337.532        9.570      861.446
01/03/2014  12:27:00       68.784      -99.372       -0.868       36.367       22.642       18.951     1322.564      512.680      359.153        0.840        0.110      120.855       12.115        0.010      337.779        9.984      861.439
01/03/2014  12:28:00       46.640      -34.489        9.519       29.894       31.004       27.528      893.669      961.272      757.808        0.303        0.131       58.007       27.568        0.226      337.921       10.222      861.449
01/03/2014  12:29:00       16.946      -35.291       35.734       29.611       58.787       37.043      876.790     3455.947     1372.164        0.426        0.285       39.149       39.900        1.039      338.268       10.805      861.448
01/03/2014  12:30:00       89.686      -80.308       -0.528       47.967       55.085       38.939     2300.876     3034.379     1516.245        1.067        0.343      120.387       38.576        0.103      337.822       10.057      861.419
01/03/2014  12:31:00       68.253      -44.377       17.774       49.243       77.848       56.191     2424.894     6060.265     3157.427        0.929        0.582       81.411       60.493        0.552      337.959       10.286      861.386
01/03/2014  12:32:00       53.958       78.656       57.582       51.666       46.311       32.530     2669.395     2144.725     1058.206        0.914        0.294       95.385       21.021        0.049      338.230       10.739      861.365
01/03/2014  12:33:00       38.924       52.695       52.048       44.605       41.997       28.125     1989.608     1763.770      790.999        0.577        0.227       65.512       23.239        0.126      338.316       10.885      861.360
01/03/2014  12:34:00       53.816       59.332       33.832       38.516       30.968       33.846     1483.511      959.031     1145.556        0.557        0.179       80.103       26.371        0.108      338.158       10.620      861.339
01/03/2014  12:35:00       45.573       -4.742       24.508       50.076      112.661       50.929     2507.561    12692.607     2593.783        1.024        0.890       45.819       56.215        1.505      338.280       10.825      861.282
01/03/2014  12:36:00       43.245       43.929       72.839       51.832       72.853       52.384     2686.515     5307.551     2744.077        0.992        0.537       61.644       48.027        0.607      338.229       10.739      861.230
01/03/2014  12:37:00       49.762      -48.153       23.671       54.682       81.577       41.559     2990.120     6654.829     1727.110        0.836        0.569       69.246       44.132        0.406      338.276       10.818      861.184
01/03/2014  12:38:00       35.053       -5.878       40.203       50.020       69.363       43.048     2501.976     4811.262     1853.136        0.602        0.458       35.542       46.466        1.709      338.301       10.861      861.172
01/03/2014  12:39:00       29.774       20.989       42.170       30.613       62.106       35.023      937.155     3857.172     1226.603        0.456        0.301       36.428       40.563        1.240      338.325       10.899      861.189
01/03/2014  12:40:00       66.928      -12.129       24.111       57.160       63.892       41.223     3267.237     4082.210     1699.355        0.713        0.452       68.018       42.394        0.388      338.165       10.633      861.182
01/03/2014  12:41:00       28.589       21.572       35.462       48.646       42.113       35.004     2366.402     1773.488     1225.308        0.395        0.268       35.815       23.588        0.434      338.221       10.726      861.167
01/03/2014  12:42:00       33.295       40.350       63.054       57.357       51.216       35.834     3289.879     2623.086     1284.053        0.695        0.360       52.313       37.928        0.526      338.255       10.782      861.158
01/03/2014  12:43:00       81.871       51.634       44.577       51.202       57.079       52.364     2621.624     3258.034     2741.939        0.999        0.431       96.794       43.007        0.197      337.993       10.342      861.141
01/03/2014  12:44:00       63.520      149.211      127.132       48.118       37.259       26.948     2315.323     1388.249      726.202        2.344        0.221      162.169       19.176        0.014      337.937       10.248      861.078
01/03/2014  12:45:00       69.823       79.766       86.249       56.103       57.797       36.160     3147.569     3340.446     1307.535        1.323        0.390      106.009       32.466        0.094      338.072       10.476      861.032
01/03/2014  12:46:00       47.628       88.778      101.218       59.683       52.028       36.104     3562.022     2706.884     1303.495        1.398        0.379      100.747       27.470        0.074      338.175       10.649      861.004
01/03/2014  12:47:00       59.143       54.815       76.872       34.865       38.694       27.175     1215.545     1497.221      738.505        0.793        0.173       80.639       22.546        0.078      338.067       10.468      861.017
01/03/2014  12:48:00       62.747       35.215       39.097       22.767       31.534       25.539      518.330      994.412      652.232        0.443        0.108       71.954       22.108        0.094      338.057       10.450      861.014
01/03/2014  12:49:00       50.485       26.404       39.024       42.398       31.975       36.253     1797.581     1022.373     1314.249        0.445        0.207       56.973       25.757        0.204      338.268       10.805      860.993
01/03/2014  12:50:00       34.638        7.133       40.437       49.064       39.275       34.084     2407.238     1542.535     1161.704        0.400        0.256       35.364       34.933        0.976      338.396       11.019      860.969
01/03/2014  12:51:00        3.801        3.824       21.220       16.923       20.222       17.127      286.400      408.928      293.320        0.073        0.049        5.392       15.121        7.866      338.491       11.179      860.967
01/03/2014  12:52:00       30.174       33.219      -16.908       16.664       14.432       21.576      277.698      208.282      465.531        0.163        0.048       44.877        9.005        0.040      338.160       10.623      860.944
01/03/2014  12:53:00       44.982       42.314       21.677       55.918       40.081       38.371     3126.821     1606.479     1472.312        0.524        0.310       61.757       33.616        0.296      338.354       10.948      860.882
01/03/2014  12:54:00       40.507       62.273       82.132       53.045       38.458       44.552     2813.791     1479.010     1984.880        0.927        0.314       74.288       36.691        0.244      338.334       10.915      860.869
01/03/2014  12:55:00       12.883      -37.851        7.649       47.524      101.643       38.031     2258.541    10331.202     1446.341        0.784        0.702       39.983       44.210        1.223      338.437       11.087      860.856
01/03/2014  12:56:00       84.672     -106.113      -11.403       53.089       54.663       34.070     2818.490     2988.023     1160.779        1.276        0.348      135.754       38.210        0.079      338.260       10.790      860.843
01/03/2014  12:57:00       15.611       29.660       68.800       30.123       37.340       22.524      907.416     1394.265      507.341        0.433        0.140       33.517       13.711        0.167      338.843       11.769      860.816
01/03/2014  12:58:00       71.392        4.850       32.610       66.130       50.191       44.820     4373.113     2519.122     2008.809        0.754        0.445       71.556       47.966        0.449      338.604       11.369      860.798
01/03/2014  12:59:00       55.150       22.526       17.889       52.484       40.610       43.911     2754.614     1649.181     1928.206        0.510        0.317       59.573       38.250        0.412      338.484       11.167      860.792
01/03/2014  13:00:00       45.384       29.227       26.070       27.265       26.957       30.160      743.357      726.674      909.654        0.299        0.119       53.981       14.101        0.068      338.545       11.270      860.795
01/03/2014  13:01:00       27.592       24.102       13.483       33.164       20.086       25.098     1099.874      403.440      629.927        0.183        0.107       36.636       10.274        0.079      338.672       11.484      860.787
01/03/2014  13:02:00       28.278        4.489        7.167       41.003       67.775       27.042     1681.255     4593.441      731.267        0.394        0.350       28.632       32.940        1.324      338.654       11.452      860.773
01/03/2014  13:03:00       62.517       22.441       62.446       42.637       67.379       36.443     1817.871     4539.943     1328.091        0.800        0.384       66.423       39.337        0.351      338.553       11.283      860.771
01/03/2014  13:04:00       80.157       63.909       72.397       48.508       46.568       42.339     2352.998     2168.537     1792.591        1.103        0.316      102.516       35.900        0.123      338.452       11.112      860.759
01/03/2014  13:05:00       66.605       63.183       31.686       40.581       47.262       33.120     1646.815     2233.743     1096.937        0.720        0.249       91.806       19.704        0.046      338.621       11.396      860.732
01/03/2014  13:06:00       11.364        5.478       17.016       47.001       20.841       23.875     2209.076      434.366      570.038        0.183        0.161       12.615       24.831        3.874      338.736       11.591      860.704
01/03/2014  13:07:00       -2.887       46.532       -5.593       33.510       26.291       31.506     1122.914      691.214      992.610        0.251        0.140       46.621       19.177        0.169      338.528       11.240      860.677
01/03/2014  13:08:00       -3.704      -31.775      -11.580       19.565       34.407       25.596      382.772     1183.813      655.158        0.169        0.111       31.990       14.394        0.202      338.677       11.490      860.655
01/03/2014  13:09:00       48.549       15.728       50.645       41.745       57.316       41.311     1742.641     3285.128     1706.634        0.595        0.337       51.033       39.167        0.589      338.823       11.736      860.617
01/03/2014  13:10:00       82.791     -104.500       -2.369       45.403       89.793       45.887     2061.398     8062.815     2105.612        1.500        0.611      133.321       56.816        0.182      338.518       11.224      860.595
01/03/2014  13:11:00       22.870      -38.139       19.490       45.143       60.997       34.135     2037.870     3720.620     1165.189        0.464        0.346       44.470       33.424        0.565      338.905       11.874      860.600
01/03/2014  13:12:00       57.778        2.281       16.645       41.890       70.240       36.842     1754.751     4933.671     1357.360        0.583        0.402       57.823       21.192        0.134      338.882       11.834      860.618
01/03/2014  13:13:00       74.004       79.444       57.960       55.172       42.621       45.974     3043.935     1816.514     2113.650        1.106        0.349      108.573       26.279        0.059      338.784       11.671      860.612
01/03/2014  13:14:00       50.459       93.910      103.432       53.058       59.408       38.745     2815.162     3529.335     1501.187        1.495        0.392      106.608       45.391        0.181      338.698       11.526      860.583
01/03/2014  13:15:00       69.396       46.256       54.535       70.007       44.163       37.608     4901.049     1950.337     1414.364        0.910        0.413       83.399       41.540        0.248      338.657       11.457      860.551
01/03/2014  13:16:00       25.792       52.307       72.629       29.784       41.969       30.770      887.069     1761.396      946.797        0.613        0.180       58.320       32.864        0.318      338.653       11.451      860.534
01/03/2014  13:17:00       67.213      -85.263        1.948       50.271       65.956       33.697     2527.150     4350.130     1135.498        0.990        0.401      108.570       31.836        0.086      338.630       11.410      860.519
01/03/2014  13:18:00       76.788      -36.602       12.897       49.007       77.506       41.013     2401.640     6007.105     1682.085        0.874        0.505       85.065       49.028        0.332      338.692       11.516      860.495
01/03/2014  13:19:00       29.022       40.727       45.223       40.192       43.775       31.788     1615.414     1916.224     1010.471        0.454        0.227       50.010       23.089        0.213      338.908       11.881      860.494
01/03/2014  13:20:00       54.221       41.332       66.895       55.600       46.216       36.335     3091.326     2135.921     1320.214        0.783        0.327       68.178       38.619        0.321      338.835       11.757      860.495
01/03/2014  13:21:00       53.816       -6.200       12.069       37.183       65.319       33.687     1382.550     4266.526     1134.782        0.493        0.339       54.172       35.487        0.429      338.726       11.574      860.488
01/03/2014  13:22:00       24.080      -12.632       14.472       40.685       33.783       21.523     1655.291     1141.262      463.228        0.210        0.163       27.192        7.216        0.070      339.068       12.149      860.488
01/03/2014  13:23:00        3.677        1.686       13.357       17.265       34.557       21.535      298.083     1194.172      463.754        0.108        0.098        4.045       16.620       16.882      339.160       12.303      860.493
01/03/2014  13:24:00       18.709       11.563        8.744       12.495        9.071       12.937      156.113       82.274      167.358        0.048        0.020       21.994        5.923        0.073      339.067       12.147      860.474
01/03/2014  13:25:00       34.924       38.736       26.170       24.040       21.668       18.455      577.928      469.492      340.585        0.240        0.069       52.156       16.193        0.096      339.077       12.164      860.426
01/03/2014  13:26:00       24.364       55.261       45.990       36.522       28.867       34.371     1333.866      833.325     1181.370        0.455        0.167       60.394       22.328        0.137      339.137       12.265      860.379
01/03/2014  13:27:00       55.308       66.273       31.260       48.879       48.407       43.318     2389.162     2343.270     1876.425        0.752        0.330       86.320       34.635        0.161      339.183       12.341      860.362
01/03/2014  13:28:00       38.027       47.550       30.237       46.066       46.609       43.628     2122.115     2172.407     1903.384        0.541        0.310       60.886       30.000        0.243      339.277       12.501      860.370
01/03/2014  13:29:00       11.279       52.255       57.310       42.212       37.625       30.714     1781.875     1415.667      943.335        0.514        0.207       53.459       33.592        0.395      339.037       12.096      860.385
01/03/2014  13:30:00       82.552       66.363       38.032       53.773       27.786       30.235     2891.533      772.045      914.152        0.862        0.229      105.919       32.483        0.094      338.923       11.905      860.387
01/03/2014  13:31:00       56.113       67.329       37.787       53.638       47.274       52.699     2877.001     2234.825     2777.168        0.850        0.394       87.647       34.992        0.159      338.996       12.027      860.358
01/03/2014  13:32:00       58.215       84.092       76.145       32.309       31.244       29.109     1043.881      976.205      847.327        0.956        0.143      102.276       23.461        0.053      338.991       12.019      860.316
01/03/2014  13:33:00       67.395      104.460       80.256       56.686       51.647       55.889     3213.267     2667.420     3123.621        1.545        0.450      124.314       43.885        0.125      339.010       12.050      860.274
01/03/2014  13:34:00       27.641       23.538       44.950       37.891       36.226       30.840     1435.746     1312.332      951.110        0.352        0.185       36.305       20.936        0.333      339.217       12.399      860.283
01/03/2014  13:35:00       65.177      -26.365       22.830       26.650       64.047       29.003      710.221     4102.044      841.168        0.556        0.283       70.307       35.957        0.262      338.981       12.003      860.294
01/03/2014  13:36:00       72.163       38.693       33.457       19.726       26.886       25.636      389.121      722.876      657.183        0.480        0.088       81.882       10.712        0.017      338.835       11.758      860.283
01/03/2014  13:37:00       13.958       49.100       48.944       29.521       16.671       24.914      871.496      277.908      620.695        0.339        0.089       51.045       25.226        0.244      339.082       12.172      860.259
01/03/2014  13:38:00       27.489       -4.188       14.000       25.572       37.474       32.139      653.941     1404.333     1032.919        0.203        0.155       27.806       33.005        1.409      339.234       12.427      860.250
01/03/2014  13:39:00       45.615       36.737       16.471       35.666       26.815       30.321     1272.029      719.037      919.348        0.331        0.146       58.569       18.059        0.095      339.246       12.447      860.222
01/03/2014  13:40:00       62.778       59.674       27.315       40.564       28.612       30.578     1645.420      818.618      935.039        0.582        0.170       86.615       21.135        0.060      339.286       12.515      860.183
01/03/2014  13:41:00       54.873       51.356       11.502       43.526       40.311       33.422     1894.492     1625.009     1117.054        0.521        0.232       75.157       27.807        0.137      339.202       12.372      860.160
01/03/2014  13:42:00       60.385       54.942       27.129       57.065       50.528       54.550     3256.359     2553.092     2975.662        0.809        0.439       81.639       45.343        0.308      339.263       12.477      860.142
01/03/2014  13:43:00       72.799       21.940       23.501       41.694       31.202       39.914     1738.387      973.543     1593.124        0.532        0.215       76.033       28.888        0.144      339.315       12.564      860.128
01/03/2014  13:44:00       89.872       56.151        9.946       33.813       33.450       39.091     1143.326     1118.894     1528.121        0.756        0.190      105.971       23.424        0.049      339.147       12.280      860.097
01/03/2014  13:45:00      117.000       54.015        3.390       35.983       32.516       33.510     1294.798     1057.319     1122.909        1.005        0.174      128.867       21.893        0.029      339.046       12.111      860.087
01/03/2014  13:46:00       92.026       50.499       12.371       44.502       31.623       29.226     1980.435      999.988      854.180        0.750        0.192      104.971       22.464        0.046      339.155       12.294      860.076
01/03/2014  13:47:00       66.115       51.225       44.175       49.176       44.938       39.544     2418.318     2019.399     1563.722        0.747        0.300       83.637       20.462        0.060      339.350       12.623      860.046
01/03/2014  13:48:00       61.391       46.024       14.701       44.785       36.851       38.533     2005.727     1357.970     1484.806        0.547        0.242       76.727       22.932        0.089      339.306       12.548      860.036
01/03/2014  13:49:00       48.258       44.124        8.416       35.694       25.317       31.524     1274.083      640.939      993.748        0.363        0.145       65.390       22.914        0.123      339.252       12.457      860.041
01/03/2014  13:50:00        8.120       36.082       31.722       24.042       24.078       39.692      577.997      579.758     1575.481        0.255        0.137       36.984       30.077        0.661      339.519       12.906      860.039
01/03/2014  13:51:00       -6.817       37.700       54.824       18.580       29.468       20.647      345.220      868.358      426.288        0.306        0.082       38.311       19.126        0.249      339.773       13.337      860.037
01/03/2014  13:52:00        8.192      -11.251       15.342       29.240       41.129       31.981      854.954     1691.630     1022.799        0.200        0.178       13.917       20.490        2.168      339.612       13.065      860.038
01/03/2014  13:53:00       81.832      -82.402        2.103       47.771       63.574       36.668     2282.104     4041.623     1344.537        1.058        0.383      116.132       40.992        0.125      339.279       12.503      860.031
01/03/2014  13:54:00       12.833      -10.094       35.282       35.350       54.154       30.631     1249.646     2932.611      938.280        0.331        0.256       16.327       16.853        1.066      339.516       12.904      860.010
01/03/2014  13:55:00       67.338     -100.361       -0.738       48.630       73.011       35.405     2364.913     5330.569     1253.518        1.178        0.447      120.858       50.775        0.177      339.307       12.551      859.995
01/03/2014  13:56:00       80.915      -97.871      -15.170       31.038       30.859       18.313      963.333      952.293      335.382        0.930        0.113      126.988       14.776        0.014      339.195       12.362      859.984
01/03/2014  13:57:00       34.485      -48.537       -3.986       31.270       24.353       19.084      977.793      593.077      364.185        0.275        0.097       59.540       18.087        0.092      339.312       12.560      859.988
01/03/2014  13:58:00       15.348      -68.482       -4.974       29.647       20.022       21.142      878.957      400.899      446.978        0.334        0.086       70.181       10.344        0.022      339.580       13.010      859.982
01/03/2014  13:59:00       22.334      -39.479       -1.731       30.479       22.462       19.868      928.984      504.546      394.722        0.194        0.091       45.358       19.118        0.178      339.407       12.718      859.995
01/03/2014  14:00:00       58.480      -17.068        4.082       22.814       37.038       21.472      520.478     1371.778      461.027        0.304        0.118       60.920       21.771        0.128      339.344       12.613      859.999
01/03/2014  14:01:00       54.022       43.882       15.992       20.584       17.361       24.081      423.719      301.395      579.918        0.320        0.065       69.599       19.659        0.080      339.380       12.673      859.990
01/03/2014  14:02:00       64.540       61.495       46.401       69.296       43.250       49.741     4801.907     1870.575     2474.168        0.962        0.457       89.146       32.573        0.134      339.536       12.934      859.951
01/03/2014  14:03:00       90.911       48.998       20.696       60.251       59.916       35.140     3630.242     3589.880     1234.827        0.977        0.423      103.274       31.337        0.092      339.479       12.839      859.932
01/03/2014  14:04:00      175.233      125.498       18.124       63.571       48.194       46.808     4041.305     2322.698     2191.021        2.767        0.428      215.537       22.415        0.011      339.446       12.781      859.926
01/03/2014  14:05:00       76.094       62.604       47.521       82.149       51.426       51.876     6748.492     2644.618     2691.171        1.202        0.604       98.537       48.174        0.239      339.577       13.005      859.909
01/03/2014  14:06:00      104.016       56.278       26.574       44.016       39.681       36.517     1937.386     1574.602     1333.494        0.977        0.242      118.265       25.522        0.047      339.600       13.046      859.893
01/03/2014  14:07:00       35.246       34.548       17.754       56.550       39.387       30.252     3197.942     1551.372      915.176        0.421        0.283       49.354       19.281        0.153      339.760       13.315      859.898
01/03/2014  14:08:00       62.134       45.618       27.909       37.730       30.503       28.216     1423.580      930.441      796.138        0.493        0.158       77.081       12.310        0.026      339.773       13.336      859.920
01/03/2014  14:09:00       48.742       -3.429       19.170       30.798       66.388       35.711      948.509     4407.359     1275.244        0.469        0.332       48.862       39.495        0.653      339.566       12.988      859.922
01/03/2014  14:10:00       41.791        7.334       -7.560       27.630       24.624       18.917      763.397      606.357      357.848        0.179        0.086       42.429       17.380        0.168      339.479       12.840      859.925
01/03/2014  14:11:00        8.751        5.973        6.425       13.217       11.075       18.397      174.692      122.653      338.457        0.039        0.032       10.595       13.946        1.732      339.752       13.302      859.906
01/03/2014  14:12:00       29.241       34.980       15.394       23.427       24.387       32.512      548.841      594.736     1057.062        0.226        0.110       45.592        7.679        0.028      339.656       13.139      859.883
01/03/2014  14:13:00       74.948       73.474       46.380       38.867       38.720       39.617     1510.608     1499.250     1569.490        0.887        0.229      104.955       33.399        0.101      339.681       13.181      859.855
01/03/2014  14:14:00      105.301       83.820       66.041       61.864       35.426       43.444     3827.156     1254.973     1887.362        1.472        0.348      134.589       39.733        0.087      339.732       13.266      859.818
01/03/2014  14:15:00       94.258       70.928       46.602       73.815       53.884       53.641     5448.617     2903.528     2877.327        1.366        0.561      117.963       52.498        0.198      339.761       13.315      859.790
01/03/2014  14:16:00      142.380       36.960       14.150       77.844       41.741       40.044     6059.697     1742.299     1603.510        1.562        0.470      147.099       21.080        0.021      339.640       13.110      859.778
01/03/2014  14:17:00       52.698       15.515       30.405       59.184       49.402       40.826     3502.689     2440.600     1666.722        0.577        0.381       54.935       35.434        0.416      339.810       13.398      859.753
01/03/2014  14:18:00       47.876       13.249       35.899       48.418       44.375       39.824     2344.254     1969.162     1585.953        0.483        0.295       49.675       37.078        0.557      339.804       13.389      859.763
01/03/2014  14:19:00        4.668      -60.286       -5.848       16.049       19.003       19.677      257.583      361.113      387.173        0.235        0.050       60.466       10.554        0.030      339.802       13.385      859.795
01/03/2014  14:20:00       -2.466      -14.469       13.310       19.865       22.384       13.301      394.613      501.034      176.904        0.073        0.054       14.677       13.324        0.824      340.278       14.189      859.812
01/03/2014  14:21:00       11.962        8.765        7.970       11.829       10.985       10.834      139.933      120.676      117.378        0.033        0.019       14.830        3.181        0.046      340.156       13.982      859.809
01/03/2014  14:22:00       17.082       31.394       38.836       39.300       35.240       32.410     1544.503     1241.848     1050.379        0.331        0.192       35.741       21.012        0.346      340.108       13.903      859.784
01/03/2014  14:23:00       23.010       32.777       48.044       34.067       42.498       34.151     1160.571     1806.089     1166.289        0.402        0.207       40.047       22.333        0.311      339.997       13.713      859.740
01/03/2014  14:24:00       47.873       48.836       56.245       48.828       39.098       34.859     2384.133     1528.639     1215.150        0.648        0.256       68.386       30.429        0.198      339.915       13.575      859.694
01/03/2014  14:25:00       76.142       47.932       42.049       49.829       32.290       27.438     2482.921     1042.675      752.821        0.707        0.214       89.973       18.634        0.043      339.896       13.544      859.684
01/03/2014  14:26:00        6.605       39.486       36.233       20.691       28.682       29.626      428.112      822.637      877.728        0.252        0.106       40.035       22.288        0.310      340.100       13.888      859.661
01/03/2014  14:27:00       13.402        6.963        9.273       22.792       29.966       16.200      519.480      897.977      262.450        0.100        0.084       15.103       12.281        0.661      340.080       13.854      859.649
01/03/2014  14:28:00       69.416       33.851       10.524       55.835       29.230       26.759     3117.553      854.420      716.070        0.538        0.234       77.230       14.675        0.036      340.015       13.743      859.669
01/03/2014  14:29:00        7.318        5.269       22.577       23.788       21.476       16.502      565.870      461.226      272.317        0.094        0.065        9.017        7.856        0.759      340.284       14.199      859.714
01/03/2014  14:30:00       40.512      -12.419        5.188       23.644       18.715       17.745      559.051      350.249      314.883        0.152        0.061       42.372        9.731        0.053      339.980       13.684      859.713
01/03/2014  14:31:00       87.665       21.069       20.439       36.261       42.730       24.985     1314.883     1825.849      624.226        0.616        0.188       90.161       23.255        0.067      339.886       13.526      859.658
01/03/2014  14:32:00       62.855       36.333       27.753       38.629       49.114       30.885     1492.178     2412.196      953.854        0.545        0.243       72.600       32.108        0.196      339.902       13.552      859.615
01/03/2014  14:33:00       56.400       40.421       37.407       55.478       31.540       25.146     3077.765      994.790      632.299        0.546        0.235       69.389       25.233        0.132      340.046       13.796      859.612
01/03/2014  14:34:00        8.392       25.133       29.854       29.396       19.502       11.412      864.143      380.311      130.245        0.148        0.069       26.497        9.512        0.129      340.199       14.056      859.636
01/03/2014  14:35:00       41.705       32.197       32.040       27.563       30.178       24.728      759.706      910.699      611.454        0.304        0.114       52.688       22.104        0.176      340.088       13.867      859.655
01/03/2014  14:36:00       68.237       50.973       46.529       34.261       29.726       27.435     1173.818      883.636      752.656        0.611        0.141       85.173       17.861        0.044      339.920       13.586      859.633
01/03/2014  14:37:00      108.371       73.698       65.671       46.607       31.356       42.007     2172.237      983.180     1764.600        1.320        0.246      131.056       25.563        0.038      339.927       13.596      859.609
01/03/2014  14:38:00      106.545       88.798       38.747       36.248       33.730       36.678     1313.927     1137.689     1345.308        1.227        0.190      138.697       24.089        0.030      339.923       13.590      859.598
01/03/2014  14:39:00       86.356       81.942       70.733       61.272       47.783       46.508     3754.281     2283.244     2162.952        1.369        0.410      119.045       41.995        0.124      340.059       13.817      859.582
01/03/2014  14:40:00       45.082       74.863       92.496       48.785       46.553       27.349     2380.000     2167.225      747.955        1.074        0.265       87.390       33.703        0.149      340.046       13.797      859.609
01/03/2014  14:41:00       44.286       24.791       23.183       41.487       44.155       36.823     1721.201     1949.684     1355.925        0.407        0.251       50.753       32.067        0.399      340.063       13.825      859.619
01/03/2014  14:42:00        0.471      -26.037       15.975       30.104       28.815       29.900      906.238      830.327      894.036        0.178        0.132       26.041       19.562        0.564      340.377       14.356      859.619
01/03/2014  14:43:00       43.365       32.329       40.005       44.100       53.092       37.979     1944.780     2818.800     1442.404        0.536        0.310       54.090       33.426        0.382      340.187       14.036      859.598
01/03/2014  14:44:00       19.575       48.039       47.226       35.508       40.695       38.381     1260.794     1656.102     1473.100        0.465        0.219       51.874       31.075        0.359      340.231       14.109      859.577
01/03/2014  14:45:00       64.434       76.147       60.287       58.841       35.500       42.929     3462.306     1260.240     1842.911        1.007        0.328       99.751       37.162        0.139      340.111       13.906      859.556
01/03/2014  14:46:00       73.137       56.168       37.836       52.242       31.096       36.268     2729.219      966.987     1315.335        0.747        0.251       92.216       29.306        0.101      340.103       13.892      859.537
01/03/2014  14:47:00      -31.068      -18.105       13.565       38.358       35.262       23.278     1471.365     1243.417      541.885        0.237        0.163       35.958       25.511        0.503      340.386       14.369      859.555
01/03/2014  14:48:00        3.238      -57.478        0.801       40.278       23.944       26.434     1622.292      573.301      698.737        0.310        0.145       57.569       10.741        0.035      340.363       14.331      859.572
01/03/2014  14:49:00        9.601       15.803       47.426       28.058       34.417       24.770      787.265     1184.510      613.564        0.259        0.129       18.491       22.719        1.510      340.474       14.518      859.549
01/03/2014  14:50:00      117.163     -125.317      -26.174       64.362       62.237       46.380     4142.528     3873.447     2151.093        2.014        0.508      171.556       48.544        0.080      340.169       14.001      859.497
01/03/2014  14:51:00       64.653      -45.692       27.247       55.881       82.656       50.699     3122.736     6832.048     2570.378        0.977        0.626       79.169       58.102        0.539      340.231       14.108      859.487
01/03/2014  14:52:00      140.518     -152.403      -35.109       33.936       45.410       24.554     1151.646     2062.077      602.916        2.401        0.191      207.297       22.307        0.012      340.025       13.758      859.492
01/03/2014  14:53:00       67.901      -62.017       18.087       52.062       91.275       44.512     2710.475     8331.055     1981.280        1.090        0.651       91.960       62.593        0.463      340.084       13.861      859.508
01/03/2014  14:54:00       27.579       33.174       52.813       30.478       50.196       37.263      928.893     2519.618     1388.547        0.474        0.242       43.141       37.634        0.761      340.263       14.162      859.515
01/03/2014  14:55:00       73.728      -81.941       -3.081       69.773       52.803       35.557     4868.269     2788.206     1264.278        1.054        0.446      110.228       41.106        0.139      340.282       14.195      859.521
01/03/2014  14:56:00       44.778     -147.273       -9.002       29.524       38.715       25.441      871.675     1498.827      647.229        1.340        0.151      153.930       20.834        0.018      340.137       13.950      859.514
01/03/2014  14:57:00       49.407      -55.137       -3.519       28.113       35.263       19.474      790.364     1243.460      379.247        0.395        0.121       74.035       14.494        0.038      340.226       14.101      859.506
01/03/2014  14:58:00       38.998       13.062       12.011       30.596       45.394       20.158      936.102     2060.604      406.336        0.262        0.170       41.128       18.115        0.194      340.238       14.119      859.476
01/03/2014  14:59:00       63.621       42.718       45.662       42.844       44.099       48.058     1835.593     1944.741     2309.600        0.702        0.304       76.632       32.772        0.183      340.279       14.190      859.441
01/03/2014  15:00:00       48.514       94.665       86.002       49.948       47.267       42.992     2494.832     2234.158     1848.282        1.264        0.329      106.372       33.734        0.101      340.184       14.030      859.396
01/03/2014  15:01:00      120.842       60.410       27.163       51.252       43.027       31.950     2626.783     1851.316     1020.804        1.224        0.275      135.101       25.955        0.037      340.223       14.095      859.365
01/03/2014  15:02:00       73.872       13.690       29.790       41.299       32.721       32.996     1705.624     1070.672     1088.706        0.520        0.193       75.129       26.828        0.128      340.210       14.073      859.358
01/03/2014  15:03:00       34.697       37.368       27.556       20.662       24.405       25.828      426.918      595.617      667.102        0.252        0.084       50.993       12.230        0.058      340.288       14.205      859.357
01/03/2014  15:04:00       38.928       47.214       54.022       36.992       28.531       31.033     1368.414      814.007      963.040        0.490        0.157       61.193       14.341        0.055      340.326       14.269      859.351
01/03/2014  15:05:00       34.114       42.088       30.892       46.185       25.284       28.198     2133.089      639.292      795.149        0.373        0.178       54.177       16.104        0.088      340.353       14.314      859.358
01/03/2014  15:06:00       75.334       28.274        4.555       30.116       34.979       27.049      906.992     1223.502      731.626        0.468        0.143       80.465        5.136        0.004      340.226       14.099      859.349
01/03/2014  15:07:00       56.954       37.649       25.989       35.310       35.507       31.376     1246.790     1260.725      984.457        0.441        0.175       68.273       27.689        0.164      340.249       14.139      859.338
01/03/2014  15:08:00       35.974       -4.785       36.671       42.863       86.223       46.209     1837.202     7434.355     2135.233        0.703        0.570       36.290       58.170        2.569      340.383       14.365      859.319
01/03/2014  15:09:00      110.409      -92.925      -22.913       50.134       57.918       34.607     2513.450     3354.548     1197.656        1.421        0.353      144.309       34.260        0.056      340.214       14.080      859.311
01/03/2014  15:10:00       67.797      -26.567       16.524       35.276       30.252       26.258     1244.419      915.174      689.489        0.421        0.142       72.817       23.227        0.102      340.255       14.149      859.326
01/03/2014  15:11:00       29.790        7.292       36.790       33.380       28.188       21.367     1114.254      794.551      456.532        0.233        0.118       30.669       20.782        0.459      340.385       14.369      859.312
01/03/2014  15:12:00       40.195       11.112       48.367       53.252       59.187       36.273     2835.792     3503.087     1315.743        0.587        0.383       41.703       42.472        1.037      340.403       14.398      859.277
01/03/2014  15:13:00       80.697      -52.452        2.279       45.291       60.551       34.472     2051.237     3666.373     1188.302        0.809        0.345       96.246       34.184        0.126      340.305       14.234      859.244
01/03/2014  15:14:00        6.981       -8.084       31.793       20.206       36.362       23.891      408.294     1322.229      570.764        0.171        0.115       10.681       16.014        2.248      340.523       14.603      859.233
01/03/2014  15:15:00       25.004      -55.371        9.204       30.704       52.501       32.622      942.722     2756.367     1064.203        0.427        0.238       60.755       31.943        0.276      340.459       14.494      859.223
01/03/2014  15:16:00       52.554     -100.620      -11.296       38.099       44.513       29.419     1451.514     1981.406      865.468        0.866        0.215      113.518       25.712        0.051      340.348       14.307      859.217
01/03/2014  15:17:00       68.624      -69.190      -11.903       40.532       30.043       25.090     1642.833      902.566      629.501        0.641        0.159       97.450       20.884        0.046      340.329       14.274      859.220
01/03/2014  15:18:00       68.953      -76.280       -4.860       21.838       55.844       21.081      476.880     3118.509      444.428        0.732        0.202      102.826       27.292        0.070      340.234       14.114      859.215
01/03/2014  15:19:00       52.366      -91.199       -9.698       24.063       29.852       15.306      579.004      891.125      234.278        0.643        0.085      105.164       16.121        0.023      340.282       14.195      859.215
01/03/2014  15:20:00       -1.725      -24.635       -0.187       11.758       28.083       13.347      138.253      788.641      178.131        0.086        0.055       24.695        3.448        0.019      340.542       14.633      859.229
01/03/2014  15:21:00       37.162        4.582        0.997       22.870       16.601       15.329      523.058      275.605      234.984        0.122        0.052       37.444       11.396        0.093      340.372       14.348      859.233
01/03/2014  15:22:00       18.070      -24.897        5.018       19.374       16.365       16.821      375.350      267.814      282.946        0.095        0.046       30.763       13.076        0.181      340.550       14.649      859.237
01/03/2014  15:23:00      -12.831      -65.457      -18.292       29.599       25.193       21.642      876.083      634.699      468.361        0.338        0.099       66.703       16.992        0.065      340.553       14.652      859.250
01/03/2014  15:24:00      -38.487      -34.628        2.524       40.955       27.022       20.596     1677.334      730.195      424.212        0.276        0.142       51.772       14.279        0.076      340.560       14.665      859.251
01/03/2014  15:25:00       -7.919      -33.066        3.706       33.926       20.312       14.798     1150.981      412.567      218.971        0.148        0.089       34.001        6.862        0.041      340.585       14.708      859.252
01/03/2014  15:26:00      -20.214      -40.992        6.460       24.062       34.379       27.072      578.984     1181.922      732.892        0.231        0.125       45.705       19.086        0.174      340.612       14.753      859.233
01/03/2014  15:27:00      -19.771      -62.762        0.154       21.718       30.119       25.536      471.680      907.140      652.068        0.318        0.102       65.802       10.748        0.027      340.615       14.758      859.209
01/03/2014  15:28:00       -2.720      -78.616      -18.368       35.463       34.541       17.271     1257.646     1193.075      298.287        0.464        0.137       78.663       19.041        0.059      340.545       14.640      859.204
01/03/2014  15:29:00       57.465      -82.821      -11.090       45.703       56.802       22.646     2088.740     3226.501      512.863        0.806        0.291      100.804       22.468        0.050      340.449       14.477      859.194
01/03/2014  15:30:00       26.901        1.668       18.071       28.358       30.203       30.423      804.196      912.198      925.566        0.185        0.132       26.953       19.461        0.521      340.431       14.445      859.189
01/03/2014  15:31:00       60.394      -41.408       14.444       48.728       41.818       29.624     2374.404     1748.710      877.567        0.528        0.250       73.226       29.945        0.167      340.492       14.550      859.166
01/03/2014  15:32:00       41.002      -33.874       13.330       35.663       30.492       21.635     1271.816      929.734      468.066        0.284        0.133       53.185       23.587        0.197      340.552       14.651      859.157
01/03/2014  15:33:00       -8.616        1.723       25.609       16.798       29.606       14.447      282.167      876.527      208.719        0.105        0.068        8.786       15.325        3.042      340.695       14.893      859.155
01/03/2014  15:34:00        8.057        2.110       19.459       18.838       25.566       17.694      354.879      653.630      313.069        0.088        0.066        8.329       14.797        3.156      340.619       14.764      859.146
01/03/2014  15:35:00       38.618      -44.217       -9.646       21.533       25.899       24.109      463.667      670.770      581.227        0.263        0.086       58.707       23.063        0.154      340.479       14.528      859.150
01/03/2014  15:36:00        9.444       -0.581       16.390       17.471       20.025       17.771      305.235      400.995      315.808        0.069        0.051        9.462       16.522        3.049      340.635       14.792      859.151
01/03/2014  15:37:00       31.507       -5.677       15.298       20.511       22.038       14.063      420.702      485.678      197.760        0.118        0.055       32.015       11.780        0.135      340.479       14.528      859.138
01/03/2014  15:38:00       20.502      -32.203        4.122       21.551       31.033       14.904      464.450      963.037      222.127        0.156        0.082       38.176       16.546        0.188      340.655       14.826      859.123
01/03/2014  15:39:00       -3.606      -33.631        3.443       14.235       14.186       15.882      202.629      201.256      252.247        0.091        0.033       33.823       12.417        0.135      340.714       14.924      859.111
01/03/2014  15:40:00      -27.038       -6.031        5.528        9.418       16.091       10.559       88.699      258.925      111.488        0.063        0.023       27.703        8.041        0.084      340.624       14.774      859.110
01/03/2014  15:41:00      -35.436      -17.548       -2.399       15.948       17.706        8.482      254.339      313.485       71.948        0.110        0.032       39.543        7.134        0.033      340.591       14.717      859.099
01/03/2014  15:42:00      -19.153      -17.289        6.448       33.566       13.687       10.613     1126.680      187.326      112.632        0.107        0.071       25.802        8.458        0.107      340.511       14.581      859.075
01/03/2014  15:43:00       51.525      -16.288       11.496       19.877       17.751       18.132      395.110      315.093      328.763        0.205        0.052       54.038        6.529        0.015      340.479       14.527      859.042
01/03/2014  15:44:00       25.155       18.283       28.112       36.065       31.896       29.815     1300.671     1017.370      888.918        0.248        0.160       31.097       34.415        1.225      340.490       14.547      859.011
01/03/2014  15:45:00       11.515       28.933       28.279       16.562       18.112       11.044      274.295      328.059      121.963        0.125        0.036       31.141        5.781        0.034      340.557       14.659      858.990
01/03/2014  15:46:00        9.799       10.152        7.815        9.727        9.944       10.983       94.618       98.878      120.618        0.029        0.016       14.110        5.608        0.158      340.496       14.557      858.972
01/03/2014  15:47:00        1.213        7.363        1.730        6.700        7.924       10.252       44.884       62.795      105.094        0.014        0.011        7.462        5.319        0.508      340.604       14.739      858.963
01/03/2014  15:48:00        9.496       24.757        3.579        9.302        8.591        6.268       86.532       73.801       39.290        0.046        0.010       26.516        1.895        0.005      340.520       14.595      858.953
01/03/2014  15:49:00       10.351      -12.676        7.377       18.866       31.043       13.884      355.913      963.695      192.768        0.092        0.076       16.365        5.982        0.134      340.558       14.660      858.943
01/03/2014  15:50:00       33.690      -43.898       -3.410       22.892       15.692       13.726      524.044      246.224      188.392        0.202        0.048       55.336        9.310        0.028      340.505       14.570      858.932
01/03/2014  15:51:00       35.934      -43.693       -1.686       22.290       35.096       16.139      496.848     1231.709      260.453        0.260        0.099       56.571       17.484        0.096      340.532       14.618      858.920
01/03/2014  15:52:00       30.221      -60.971       -3.949       26.006       22.791       10.849      676.332      519.446      117.693        0.298        0.066       68.049        7.587        0.012      340.584       14.706      858.915
01/03/2014  15:53:00       59.249      -74.822       -3.032       23.531       18.785       14.221      553.686      352.859      202.238        0.511        0.055       95.440       13.237        0.019      340.523       14.602      858.911
01/03/2014  15:54:00       23.008       -8.580        5.876       24.556       20.264       13.166      602.998      410.640      173.349        0.091        0.059       24.556        7.843        0.102      340.515       14.589      858.904
01/03/2014  15:55:00       21.736      -22.259        4.244       19.573       25.586       15.291      383.121      654.630      233.823        0.113        0.064       31.112       16.171        0.270      340.618       14.764      858.895
01/03/2014  15:56:00        2.720      -17.888        8.516       20.650       21.093       17.082      426.430      444.899      291.801        0.078        0.058       18.094        8.313        0.211      340.684       14.874      858.903
01/03/2014  15:57:00       55.824      -48.163       -4.916       18.820       26.852       16.991      354.179      721.041      288.706        0.341        0.068       73.729       11.290        0.023      340.538       14.629      858.913
01/03/2014  15:58:00       42.209        7.953        6.878       19.195       24.485       19.061      368.450      599.495      363.331        0.161        0.067       42.952       16.241        0.143      340.426       14.438      858.919
01/03/2014  15:59:00       69.748       32.829        1.590       20.882       17.972       16.506      436.065      322.998      272.439        0.349        0.052       77.088       10.511        0.019      340.400       14.395      858.921
01/03/2014  16:00:00       83.370       40.239       20.719       27.361       21.192       21.021      748.602      449.119      441.881        0.532        0.082       92.573       11.581        0.016      340.294       14.215      858.932
01/03/2014  16:01:00       83.235       45.923       17.319       35.007       21.447       22.486     1225.459      459.990      505.604        0.576        0.110       95.063       16.229        0.029      340.355       14.319      858.947
01/03/2014  16:02:00       98.670       46.473       17.515       29.912       17.590       19.057      894.754      309.405      363.161        0.688        0.078      109.067       14.544        0.018      340.417       14.423      858.959
01/03/2014  16:03:00       74.217       44.301        4.804       21.466       17.507       15.015      460.805      306.508      225.445        0.424        0.050       86.433        9.164        0.011      340.371       14.344      858.964
01/03/2014  16:04:00       54.433       17.717       18.766       32.007       26.479       16.175     1024.423      701.159      261.615        0.281        0.099       57.243       10.087        0.031      340.354       14.316      858.963
01/03/2014  16:05:00       70.821        0.406       18.011       28.315       18.846       17.015      801.719      355.159      289.511        0.339        0.072       70.822       14.687        0.043      340.370       14.344      858.947
01/03/2014  16:06:00       32.957       16.412       29.218       26.692       21.396       16.528      712.477      457.810      273.177        0.183        0.072       36.818       17.051        0.214      340.422       14.431      858.939
01/03/2014  16:07:00        7.767       26.862       41.238       20.228       18.793       14.436      409.179      353.174      208.401        0.173        0.049       27.962       12.052        0.186      340.529       14.613      858.936
01/03/2014  16:08:00       10.459      -12.578       26.240       24.240       35.095       21.525      587.565     1231.645      463.312        0.162        0.114       16.358       21.539        1.734      340.526       14.609      858.926
01/03/2014  16:09:00       52.762      -22.248       11.674       33.642       38.288       25.737     1131.806     1465.972      662.369        0.334        0.163       57.260       29.770        0.270      340.411       14.412      858.911
01/03/2014  16:10:00       11.081       40.566       50.239       24.209       29.138       17.268      586.058      849.041      298.167        0.301        0.087       42.052       10.319        0.060      340.408       14.410      858.891
01/03/2014  16:11:00       -8.912       25.924       51.757       12.178       21.908       19.080      148.313      479.966      364.039        0.221        0.050       27.413       15.826        0.333      340.445       14.470      858.889
01/03/2014  16:12:00        5.515       -1.653       25.347       19.670       23.782       20.773      386.915      565.590      431.506        0.103        0.069        5.757       16.352        8.067      340.428       14.442      858.890
01/03/2014  16:13:00       31.198      -49.277        0.911       19.383       23.400       19.711      375.712      547.547      388.525        0.236        0.066       58.322       15.404        0.070      340.493       14.550      858.901
01/03/2014  16:14:00       19.033       -5.041        8.171       16.846       17.495       14.702      283.776      306.076      216.151        0.063        0.040       19.689       11.890        0.365      340.521       14.599      858.911
01/03/2014  16:15:00       50.035       -1.739        5.442       16.904       15.447       11.697      285.746      238.623      136.819        0.160        0.033       50.065        6.826        0.019      340.445       14.469      858.917
01/03/2014  16:16:00       47.523       13.149        9.860       18.280       16.862       11.393      334.159      284.338      129.809        0.164        0.037       49.309        8.713        0.031      340.319       14.257      858.913
01/03/2014  16:17:00       53.430       24.745       -0.081       25.609       16.847       15.174      655.817      283.806      230.242        0.232        0.058       58.882       12.957        0.048      340.307       14.236      858.900
01/03/2014  16:18:00       80.344       31.916        9.312       20.719       16.484       16.350      429.277      271.706      267.332        0.426        0.048       86.451       12.275        0.020      340.328       14.272      858.886
01/03/2014  16:19:00       76.744       32.038       12.760       31.591       23.313       13.231      997.965      543.483      175.059        0.440        0.086       83.163       14.056        0.029      340.328       14.273      858.868
01/03/2014  16:20:00       82.158       30.779       10.931       23.297       16.141       13.523      542.770      260.519      182.871        0.440        0.049       87.734        7.749        0.008      340.331       14.278      858.863
01/03/2014  16:21:00       54.702       25.230        2.795       16.655       13.123        8.905      277.393      172.207       79.299        0.208        0.026       60.240        7.198        0.014      340.370       14.344      858.871
01/03/2014  16:22:00       20.161       13.439        9.121       10.550       10.471        6.786      111.299      109.643       46.056        0.047        0.013       24.230        4.971        0.042      340.330       14.276      858.860
01/03/2014  16:23:00       20.663       15.425       -1.226       12.140        9.974        5.723      147.390       99.473       32.749        0.047        0.014       25.785        4.198        0.027      340.378       14.357      858.850
01/03/2014  16:24:00       28.698       25.885        3.088        5.746       10.095        4.853       33.020      101.900       23.548        0.083        0.008       38.647        4.516        0.014      340.392       14.383      858.847
01/03/2014  16:25:00       51.597       42.596        3.370       16.028       13.019       15.408      256.906      169.490      237.406        0.258        0.033       66.908       11.620        0.030      340.303       14.233      858.838
01/03/2014  16:26:00       34.370       50.738      -10.543       24.869       29.650       19.968      618.461      879.097      398.727        0.288        0.095       61.283       16.246        0.070      340.194       14.046      858.835
01/03/2014  16:27:00       21.609       77.102      -17.982       17.233       21.171       13.047      296.978      448.205      170.233        0.383        0.046       80.073        8.893        0.012      340.183       14.027      858.842
01/03/2014  16:28:00       -3.228       91.163      -17.037       14.413       14.003        7.583      207.735      196.081       57.504        0.454        0.023       91.220        7.369        0.007      340.296       14.219      858.856
01/03/2014  16:29:00       -5.987      116.378      -22.420        9.205       15.695        8.615       84.739      246.347       74.223        0.724        0.020      116.532        6.015        0.003      340.296       14.219      858.870
01/03/2014  16:30:00       -3.182      106.389      -17.775       11.452       12.038        8.262      131.152      144.920       68.258        0.599        0.017      106.437        6.700        0.004      340.350       14.309      858.876
01/03/2014  16:31:00       -3.283      101.884      -16.240       11.216       14.615       10.421      125.808      213.585      108.606        0.555        0.022      101.937        6.965        0.005      340.316       14.254      858.873
01/03/2014  16:32:00        0.377      102.971      -14.921        8.952       11.628        7.797       80.129      135.202       60.792        0.555        0.014      102.972        5.490        0.003      340.338       14.290      858.868
01/03/2014  16:33:00       21.519       93.977      -15.828       10.510        9.938        4.224      110.455       98.765       17.840        0.489        0.011       96.409        4.747        0.002      340.327       14.269      858.855
01/03/2014  16:34:00       36.898       46.289      -11.952       13.074       19.368        9.472      170.941      375.120       89.721        0.214        0.032       59.195        6.911        0.014      340.156       13.981      858.832
01/03/2014  16:35:00       61.540       23.071        6.432       14.675       10.615       10.077      215.363      112.668      101.546        0.240        0.021       65.722        4.901        0.006      339.940       13.617      858.808
01/03/2014  16:36:00       49.553       32.445       15.637       19.622       20.990       18.858      385.005      440.572      355.634        0.247        0.059       59.230       15.093        0.065      339.625       13.086      858.784
01/03/2014  16:37:00       50.188       11.071        5.127       29.358       13.944       13.473      861.882      194.439      181.518        0.195        0.062       51.394        5.867        0.013      339.774       13.339      858.761
01/03/2014  16:38:00      -31.642       45.089      -15.100       33.869       35.824       16.969     1147.135     1283.374      287.931        0.299        0.136       55.084       23.880        0.188      339.952       13.638      858.781
01/03/2014  16:39:00     -102.555        7.110      -15.760       28.712       20.675       12.437      824.374      427.458      154.683        0.611        0.070      102.801       10.377        0.010      339.140       12.271      858.816
01/03/2014  16:40:00     -103.927        7.430      -11.848       20.311       23.207       13.893      412.544      538.573      193.009        0.607        0.057      104.192        7.595        0.005      338.684       11.504      858.837
01/03/2014  16:41:00      -46.237       35.380      -18.317       42.046       13.059       11.381     1767.852      170.543      129.535        0.290        0.103       58.220       14.067        0.058      339.578       13.007      858.826
01/03/2014  16:42:00      117.565       52.939       11.841       43.536       30.037       21.701     1895.377      902.231      470.931        1.002        0.163      128.935       15.177        0.014      339.755       13.306      858.783
01/03/2014  16:43:00       90.529       27.406       42.507       59.725       38.519       37.971     3567.038     1483.704     1441.795        0.862        0.325       94.586       31.323        0.110      339.377       12.668      858.722
01/03/2014  16:44:00       59.209       29.485       11.312       53.406       23.125       22.626     2852.247      534.776      511.917        0.420        0.195       66.144       13.474        0.041      339.764       13.320      858.725
01/03/2014  16:45:00     -110.991        5.615      -14.977       50.270       36.557       24.704     2527.049     1336.417      610.280        0.852        0.224      111.133       23.019        0.043      338.781       11.667      858.758
01/03/2014  16:46:00     -241.881       45.923      -31.538       87.132       53.880       34.338     7591.899     2903.079     1179.121        3.664        0.584      246.202       38.561        0.025      338.519       11.222      858.771
01/03/2014  16:47:00     -146.479       28.123      -22.696       92.441       32.005       23.375     8545.426     1024.316      546.382        1.644        0.506      149.154       28.531        0.037      338.733       11.584      858.784
01/03/2014  16:48:00      -67.721       44.687      -14.231       25.712       28.255       20.087      661.087      798.351      403.470        0.432        0.093       81.136       15.580        0.037      339.469       12.824      858.787
01/03/2014  16:49:00      -36.177       23.889       -8.583       28.383       31.424       12.788      805.620      987.450      163.541        0.195        0.098       43.352        9.534        0.048      339.667       13.156      858.762
01/03/2014  16:50:00      -82.231      -23.140      -15.433       16.468       12.999       13.246      271.195      168.970      175.449        0.408        0.031       85.425       10.566        0.015      338.825       11.738      858.767
01/03/2014  16:51:00     -129.118      -58.370      -16.934       31.486       35.248       20.193      991.339     1242.421      407.773        1.150        0.132      141.699       12.955        0.008      338.481       11.162      858.783
01/03/2014  16:52:00     -161.854      -30.504      -14.124       47.928       43.479       24.795     2297.076     1890.437      614.768        1.606        0.240      164.704       23.659        0.021      338.291       10.843      858.790
01/03/2014  16:53:00     -102.113      -26.310       -0.969       34.957       38.510       20.162     1221.966     1482.988      406.487        0.712        0.156      105.448       15.977        0.023      338.905       11.875      858.795
01/03/2014  16:54:00       25.465       40.967        3.133       43.089       14.711        9.568     1856.658      216.424       91.540        0.225        0.108       48.237       16.543        0.118      339.992       13.706      858.750
01/03/2014  16:55:00       44.996       41.939       -3.709       26.806       11.056        7.848      718.537      122.244       61.598        0.235        0.045       61.510        9.475        0.024      339.925       13.592      858.736
01/03/2014  16:56:00      -63.009       34.357      -11.287       39.077       15.846       12.370     1527.026      251.099      153.009        0.360        0.097       71.767       15.315        0.046      339.505       12.885      858.747
01/03/2014  16:57:00     -139.609       -6.935      -20.134       37.384       37.721       22.940     1397.594     1422.846      526.262        1.164        0.167      139.781       15.789        0.013      338.164       10.630      858.785
01/03/2014  16:58:00     -102.404       43.736      -23.491       41.676       31.840       21.466     1736.848     1013.785      460.798        0.808        0.161      111.353       21.626        0.038      338.471       11.145      858.799
01/03/2014  16:59:00      -67.526        2.981      -19.595       26.405       19.293       13.334      697.243      372.234      177.793        0.310        0.062       67.591       13.179        0.038      338.703       11.535      858.797
01/03/2014  17:00:00     -162.299       -0.736      -21.968       96.004       39.065       23.911     9216.789     1526.062      571.736        1.907        0.566      162.300       28.898        0.032      338.400       11.027      858.815
01/03/2014  17:01:00     -260.481       22.788      -39.574       89.704       86.111       37.629     8046.846     7415.136     1415.927        4.340        0.844      261.476       39.937        0.023      338.402       11.026      858.840
01/03/2014  17:02:00     -175.156      -14.782      -26.631       44.794       57.030       27.823     2006.521     3252.418      774.127        1.882        0.302      175.778       19.135        0.012      338.523       11.232      858.852
01/03/2014  17:03:00      -99.445       19.660      -18.872       34.682       35.204       19.533     1202.817     1239.324      381.547        0.673        0.141      101.369       16.186        0.025      339.055       12.127      858.848
01/03/2014  17:04:00      -10.418       34.434       -7.594       19.133       20.218       12.177      366.065      408.764      148.282        0.114        0.046       35.976        8.263        0.053      339.832       13.436      858.829
01/03/2014  17:05:00      -16.948       31.149       -0.347       21.669       14.208       11.814      469.538      201.871      139.578        0.103        0.041       35.461        9.244        0.068      339.627       13.090      858.827
01/03/2014  17:06:00      -72.473       46.237      -18.681       17.033       20.273       10.883      290.109      410.989      118.433        0.428        0.041       85.966        9.347        0.012      339.616       13.071      858.832
01/03/2014  17:07:00     -122.831        4.525      -14.883       57.721       31.635       23.963     3331.751     1000.745      574.231        1.012        0.245      122.914       25.162        0.042      338.327       10.903      858.849
01/03/2014  17:08:00     -124.352        9.657      -25.773       45.709       42.536       17.212     2089.307     1809.341      296.260        1.021        0.210      124.727       10.693        0.007      338.390       11.009      858.855
01/03/2014  17:09:00      -66.476      103.136      -27.592       22.888       30.037       12.399      523.879      902.200      153.742        0.870        0.079      122.704       10.564        0.007      339.445       12.783      858.848
01/03/2014  17:10:00      -60.061       44.018      -16.977       23.191       35.564       11.601      537.816     1264.819      134.572        0.388        0.097       74.465       11.497        0.024      338.868       11.813      858.846
01/03/2014  17:11:00      -78.974       69.418      -15.932       21.446       44.985       18.778      459.943     2023.623      352.606        0.707        0.142      105.147       18.495        0.031      339.038       12.098      858.848
01/03/2014  17:12:00      -67.634       43.047      -12.812       19.107       43.112       16.834      365.060     1858.648      283.371        0.455        0.125       80.171       18.306        0.052      338.767       11.642      858.856
01/03/2014  17:13:00      -64.556       32.197      -10.821       16.535       25.251       11.914      273.416      637.593      141.949        0.319        0.053       72.139       10.292        0.020      338.746       11.605      858.863
01/03/2014  17:14:00      -49.804        1.483       -4.692       13.601       26.654        9.593      184.981      710.426       92.028        0.175        0.049       49.826        5.733        0.013      338.413       11.049      858.871
01/03/2014  17:15:00     -103.333      -23.720      -11.420       31.648       17.060       12.462     1001.569      291.061      155.290        0.641        0.072      106.021        7.138        0.005      337.944       10.261      858.881
01/03/2014  17:16:00     -110.045        0.941      -12.312       50.795       32.852       22.884     2580.089     1079.221      523.670        0.822        0.209      110.049       22.779        0.043      337.859       10.118      858.889
01/03/2014  17:17:00     -109.957       18.950      -23.146       42.949       34.789       24.470     1844.648     1210.304      598.776        0.832        0.183      111.578       23.156        0.043      338.297       10.853      858.889
01/03/2014  17:18:00     -141.370       53.849      -25.126       46.303       34.590       26.873     2143.929     1196.481      722.138        1.379        0.203      151.278       18.015        0.014      338.303       10.863      858.897
01/03/2014  17:19:00      -92.053       77.076      -18.508       30.590       34.148       17.808      935.747     1166.068      317.125        0.859        0.121      120.060       15.949        0.018      339.030       12.085      858.889
01/03/2014  17:20:00      -88.414       55.228      -20.213       29.215       47.484       17.431      853.520     2254.735      303.838        0.734        0.171      104.246       20.913        0.040      339.210       12.389      858.892
01/03/2014  17:21:00      -93.405      -40.273      -14.903       19.947       20.600       17.929      397.870      424.375      321.456        0.586        0.057      101.717        6.494        0.004      338.155       10.615      858.911
01/03/2014  17:22:00     -122.137      -15.008      -17.726       33.010       21.116       17.113     1089.685      445.869      292.842        0.864        0.091      123.055       16.832        0.019      338.013       10.376      858.924
01/03/2014  17:23:00     -120.252      -37.056      -17.368       35.407       35.691       23.835     1253.662     1273.868      568.112        0.961        0.155      125.832       20.451        0.026      337.850       10.103      858.941
01/03/2014  17:24:00     -140.998      -28.213      -19.152       33.197       27.229       15.116     1102.014      741.400      228.485        1.156        0.104      143.792        9.481        0.004      337.749        9.934      858.964
01/03/2014  17:25:00     -122.177      -52.117      -25.938       21.001       33.867       14.067      441.056     1146.974      197.892        1.005        0.089      132.828        9.134        0.005      337.878       10.149      858.973
01/03/2014  17:26:00      -90.499      -61.293      -19.493       24.016       24.090       17.206      576.746      580.341      296.046        0.689        0.073      109.302        9.661        0.008      337.846       10.095      858.987
01/03/2014  17:27:00      -38.163        3.504      -15.267       30.827       41.709       11.333      950.304     1739.667      128.434        0.226        0.141       38.323       18.270        0.227      338.937       11.931      858.982
01/03/2014  17:28:00       33.592       27.684        0.674       11.322       10.375        9.300      128.198      107.632       86.484        0.111        0.016       43.529        6.920        0.025      339.980       13.684      858.974
01/03/2014  17:29:00      -82.495        0.472      -13.604       71.823       16.316       17.421     5158.511      266.197      303.496        0.636        0.286       82.496       29.677        0.129      338.757       11.626      858.989
01/03/2014  17:30:00     -122.156       -4.154       -9.710       54.707       43.598       27.978     2992.813     1900.756      782.755        1.035        0.284      122.226       23.900        0.038      337.730        9.902      859.008
01/03/2014  17:31:00      -38.796        6.226      -15.576       19.754       20.892       12.053      390.230      436.457      145.269        0.138        0.049       39.292        8.845        0.051      338.368       10.973      859.029
01/03/2014  17:32:00     -104.265      -53.653      -16.113       34.481       16.441       13.440     1188.958      270.303      180.622        0.782        0.082      117.260       12.628        0.012      337.897       10.182      859.039
01/03/2014  17:33:00      -75.824      -38.946      -21.571       30.169       23.678       13.081      910.174      560.624      171.108        0.469        0.082       85.241       10.379        0.015      337.808       10.032      859.061
01/03/2014  17:34:00     -103.063        1.324      -24.382       24.962       12.873       10.669      623.115      165.717      113.825        0.606        0.045      103.071        2.620        0.001      338.380       10.993      859.064
01/03/2014  17:35:00      -78.346      -22.905      -16.663       19.949       37.997       19.475      397.965     1443.779      379.264        0.458        0.111       81.625       17.805        0.048      338.035       10.413      859.097
01/03/2014  17:36:00      -21.145       24.844       -6.129       17.925       33.042       12.794      321.288     1091.745      163.687        0.134        0.079       32.624       14.223        0.190      338.739       11.595      859.120
01/03/2014  17:37:00      -79.178      -29.217      -17.804       26.924       24.632       11.192      724.916      606.752      125.269        0.445        0.073       84.397        9.604        0.013      338.054       10.445      859.140
01/03/2014  17:38:00      -53.305      -17.569      -11.802       10.862       23.898        8.654      117.993      571.107       74.886        0.203        0.038       56.126        2.339        0.002      338.175       10.648      859.152
01/03/2014  17:39:00      -36.894      -45.207      -19.895       25.616       23.430       13.049      656.202      548.951      170.267        0.259        0.069       58.351        5.706        0.010      337.815       10.044      859.167
01/03/2014  17:40:00      -46.392      -36.542      -12.592       32.888       19.532       13.727     1081.603      381.503      188.430        0.265        0.083       59.056        7.850        0.018      337.764        9.957      859.164
01/03/2014  17:41:00      -78.819      -37.024       -9.650       15.801       14.111       10.116      249.681      199.120      102.329        0.411        0.028       87.081        5.666        0.004      337.607        9.695      859.163
01/03/2014  17:42:00      -71.301      -47.864       -7.615       18.398       14.194       12.192      338.497      201.478      148.650        0.406        0.034       85.877        6.855        0.006      337.770        9.968      859.161
01/03/2014  17:43:00     -128.682      -25.423      -14.207       35.015       30.727       15.615     1226.056      944.172      243.824        0.991        0.121      131.169        9.690        0.005      338.545       11.271      859.150
01/03/2014  17:44:00     -183.436       22.673      -19.032       37.676       26.897       17.031     1419.509      723.446      290.067        1.848        0.122      184.832       13.293        0.005      339.126       12.245      859.135
01/03/2014  17:45:00     -203.912       23.586      -22.045       36.154       27.736       21.471     1307.132      769.266      461.022        2.258        0.127      205.271       21.209        0.011      339.178       12.332      859.132
01/03/2014  17:46:00     -181.399       50.520      -13.969       40.133       22.559       17.444     1610.645      508.902      304.297        1.904        0.121      188.303       17.582        0.009      339.132       12.255      859.144
01/03/2014  17:47:00     -191.215       45.039      -11.307       34.210       21.106       15.548     1170.316      445.457      241.727        2.029        0.093      196.448       11.621        0.003      339.141       12.270      859.139
01/03/2014  17:48:00     -135.105       26.658       -7.084       32.127       15.660       11.935     1032.176      245.236      142.436        1.022        0.071      137.710       13.097        0.009      338.906       11.876      859.139
01/03/2014  17:49:00     -126.189       13.186       -8.807       21.239       17.662       15.037      451.098      311.939      226.097        0.858        0.049      126.876       12.335        0.009      338.681       11.497      859.134
01/03/2014  17:50:00     -149.213       15.890      -10.784       21.991       17.559       12.917      483.617      308.308      166.852        1.180        0.048      150.057       10.048        0.004      338.542       11.265      859.128
01/03/2014  17:51:00     -158.974       62.814      -12.478       45.610       23.547       20.400     2080.294      554.467      416.158        1.621        0.153      170.934       20.073        0.014      338.648       11.440      859.131
01/03/2014  17:52:00     -134.832       46.902      -14.237       31.133       24.722       20.968      969.265      611.179      439.667        1.130        0.101      142.757       17.792        0.016      338.747       11.609      859.128
01/03/2014  17:53:00     -100.177      -27.487      -12.181       38.862       26.068       21.794     1510.264      679.528      474.991        0.680        0.133      103.880       22.563        0.047      338.521       11.229      859.136
01/03/2014  17:54:00     -131.035      -41.839      -14.244       19.879       24.666       16.458      395.187      608.434      270.867        1.020        0.064      137.552       12.857        0.009      338.248       10.770      859.131
01/03/2014  17:55:00     -144.840       -1.230      -12.723       38.560       28.349       15.214     1486.882      803.691      231.461        1.183        0.126      144.845       16.726        0.013      338.137       10.584      859.145
01/03/2014  17:56:00     -152.610       63.262      -13.449       40.039       25.762       28.159     1603.143      663.690      792.955        1.527        0.153      165.202       20.078        0.015      338.654       11.452      859.153
01/03/2014  17:57:00     -112.407      -32.364       -4.306       35.292       48.116       23.456     1245.491     2315.115      550.197        0.891        0.206      116.973       26.492        0.051      338.343       10.931      859.173
01/03/2014  17:58:00     -144.856      -16.302      -16.094       28.623       22.828       20.004      819.251      521.122      400.149        1.162        0.087      145.771        7.822        0.003      338.181       10.657      859.178
01/03/2014  17:59:00     -198.450       13.875      -27.547       36.589       21.938       17.394     1338.759      481.266      302.562        2.123        0.106      198.934       13.796        0.005      338.171       10.640      859.180
01/03/2014  18:00:00     -217.517       45.261      -22.490       27.856       22.820       13.318      775.963      520.772      177.360        2.567        0.074      222.176        9.623        0.002      338.282       10.826      859.201
01/03/2014  18:01:00     -148.355       70.908      -15.055       62.124       42.726       30.210     3859.344     1825.474      912.660        1.693        0.330      164.430       28.813        0.031      338.822       11.735      859.200
01/03/2014  18:02:00      -99.952       53.578      -14.429       51.365       62.069       32.782     2638.383     3852.563     1074.632        1.032        0.378      113.406       35.454        0.098      338.877       11.828      859.203
01/03/2014  18:03:00      -82.171       68.033      -10.737       49.245       51.991       28.476     2425.090     2703.059      810.877        0.872        0.297      106.680       32.243        0.091      339.135       12.261      859.210
01/03/2014  18:04:00     -111.380      -24.158       -4.724       34.733       46.043       19.350     1206.403     2119.991      374.432        0.836        0.185      113.969       16.236        0.020      338.133       10.577      859.219
01/03/2014  18:05:00     -137.473      -30.189      -17.349       28.861       29.661       11.765      832.960      879.771      138.409        1.098        0.093      140.749       15.366        0.012      338.082       10.494      859.218
01/03/2014  18:06:00     -153.448       -4.807      -21.185       13.750       16.773       11.669      189.058      281.332      136.169        1.231        0.030      153.523        8.024        0.003      338.254       10.782      859.217
01/03/2014  18:07:00     -161.041       14.295      -18.635       19.647       31.202       16.532      386.021      973.543      273.299        1.406        0.082      161.675        8.812        0.003      338.655       11.454      859.214
01/03/2014  18:08:00     -147.730       10.050      -15.889       20.678       24.892       15.362      427.560      619.590      236.001        1.173        0.064      148.072        6.802        0.002      338.720       11.563      859.219
01/03/2014  18:09:00     -117.130      -16.133      -11.752       23.142       15.351       13.357      535.546      235.642      178.410        0.753        0.047      118.236       11.033        0.009      338.488       11.173      859.229
01/03/2014  18:10:00     -145.142        1.865      -17.719       33.439       38.261       16.426     1118.182     1463.907      269.828        1.212        0.143      145.154       18.074        0.016      338.799       11.696      859.240
01/03/2014  18:11:00     -135.875      -15.552      -14.572       42.243       28.993       29.146     1784.489      840.585      849.475        1.119        0.174      136.762       23.782        0.030      338.553       11.283      859.261
01/03/2014  18:12:00     -135.541       11.827      -16.052       31.263       28.638       13.983      977.368      820.163      195.526        1.038        0.100      136.056        8.656        0.004      338.435       11.085      859.274
01/03/2014  18:13:00     -188.676       24.268      -20.658       21.085       31.809       14.615      444.575     1011.787      213.600        1.914        0.083      190.230       13.638        0.005      338.559       11.293      859.287
01/03/2014  18:14:00     -156.189      -16.807      -19.172       17.171       22.028       14.497      294.840      485.228      210.168        1.302        0.050      157.090        8.180        0.003      338.451       11.112      859.303
01/03/2014  18:15:00     -163.035       -8.007      -22.637       20.857       22.057       13.882      435.021      486.519      192.710        1.414        0.056      163.231        9.996        0.004      338.387       11.004      859.320
01/03/2014  18:16:00     -153.226       -8.682      -22.034       25.889       13.791       12.932      670.264      190.188      167.242        1.253        0.051      153.472       13.638        0.008      338.263       10.796      859.343
01/03/2014  18:17:00     -114.395      -56.582       -5.228       36.784       32.349       19.090     1353.054     1046.461      364.433        0.954        0.138      127.623       18.573        0.021      337.936       10.248      859.342
01/03/2014  18:18:00     -155.882      -81.226       -3.582       29.938       23.518       17.031      896.273      553.075      290.067        1.632        0.087      175.775       14.664        0.007      337.894       10.175      859.352
01/03/2014  18:19:00     -159.377      -51.195      -11.031       27.989       22.276       15.382      783.377      496.200      236.593        1.483        0.076      167.398       14.544        0.008      337.998       10.351      859.369
01/03/2014  18:20:00     -133.669      -54.578       -7.937       21.655       26.595       16.658      468.942      707.288      277.497        1.118        0.073      144.382       13.254        0.008      338.055       10.446      859.381
01/03/2014  18:21:00     -176.506      -38.458      -17.094       28.669       21.858       15.039      821.905      477.775      226.169        1.723        0.076      180.647       14.609        0.007      338.009       10.370      859.395
01/03/2014  18:22:00     -177.078      -16.478      -21.280       22.211       26.957       10.803      493.338      726.699      116.709        1.671        0.067      177.843       11.134        0.004      338.283       10.829      859.408
01/03/2014  18:23:00     -161.824       29.187      -13.174       27.518       24.639       15.381      757.225      607.064      236.578        1.441        0.080      164.435       11.473        0.005      338.513       11.217      859.409
01/03/2014  18:24:00     -191.384       -9.039      -25.547       26.207       21.186       17.357      686.806      448.830      301.281        1.940        0.072      191.598       15.180        0.006      338.262       10.792      859.419
01/03/2014  18:25:00     -212.352      -17.669      -26.420       17.492       20.782       10.889      305.966      431.890      118.576        2.348        0.043      213.086       10.075        0.002      338.104       10.528      859.419
01/03/2014  18:26:00     -210.987       45.791      -19.976       44.707       38.364       21.431     1998.711     1471.829      459.270        2.547        0.196      215.899       14.948        0.005      338.201       10.689      859.423
01/03/2014  18:27:00     -181.637       54.715       -8.623       39.678       25.499       18.757     1574.330      650.197      351.836        1.932        0.129      189.699       15.062        0.006      338.400       11.027      859.426
01/03/2014  18:28:00     -190.301       58.607      -13.799       40.576       23.919       23.098     1646.385      572.139      533.536        2.130        0.138      199.121       12.383        0.004      338.423       11.062      859.410
01/03/2014  18:29:00     -163.708       43.836      -13.732       33.047       40.244       24.757     1092.123     1619.593      612.933        1.612        0.166      169.476       13.276        0.006      338.477       11.155      859.403
01/03/2014  18:30:00     -144.572       18.114      -10.978       31.254       35.714       29.174      976.810     1275.504      851.133        1.223        0.155      145.702       23.781        0.027      338.391       11.010      859.404
01/03/2014  18:31:00     -157.691       -5.866      -19.606       24.337       38.333       18.282      592.312     1469.418      334.225        1.384        0.120      157.800       13.069        0.007      338.236       10.750      859.398
01/03/2014  18:32:00     -196.669       -9.593      -22.938       56.605       37.935       28.267     3204.130     1439.090      798.998        2.237        0.272      196.902       30.241        0.024      337.977       10.314      859.406
01/03/2014  18:33:00     -197.989       17.389      -19.783       36.914       25.565       20.497     1362.612      653.591      420.129        2.116        0.122      198.752       16.360        0.007      338.058       10.451      859.411
01/03/2014  18:34:00     -217.170       11.669      -28.087       27.765       35.598       19.816      770.900     1267.226      392.657        2.526        0.122      217.483       12.742        0.003      338.048       10.432      859.428
01/03/2014  18:35:00     -198.755       40.870      -13.401       31.331       22.854       20.525      981.616      522.300      421.285        2.164        0.096      202.914       15.119        0.006      338.263       10.795      859.450
01/03/2014  18:36:00     -194.144       32.545      -26.873       38.761       35.119       23.921     1502.400     1233.358      572.216        2.139        0.165      196.853       21.081        0.011      338.321       10.892      859.451
01/03/2014  18:37:00      -92.428        7.812       -9.275       38.968       32.681       23.866     1518.527     1068.077      569.604        0.592        0.158       92.758       14.211        0.023      338.115       10.548      859.463
01/03/2014  18:38:00     -166.554       46.880      -19.829       50.082       48.074       32.437     2508.200     2311.101     1052.168        1.810        0.294      173.026       25.792        0.022      338.255       10.781      859.487
01/03/2014  18:39:00     -155.260        7.866      -16.923       47.413       41.006       30.077     2247.949     1681.503      904.644        1.464        0.242      155.459       31.127        0.040      338.094       10.512      859.485
01/03/2014  18:40:00     -161.927       73.419      -19.698       50.734       44.601       24.955     2573.986     1989.226      622.763        1.859        0.259      177.794       25.425        0.020      338.121       10.556      859.484
01/03/2014  18:41:00     -204.367       60.719      -30.748       46.576       33.349       31.141     2169.360     1112.126      969.744        2.532        0.213      213.196       24.344        0.013      338.102       10.522      859.493
01/03/2014  18:42:00     -162.855       60.299      -23.615       42.483       34.636       27.376     1804.783     1199.655      749.463        1.723        0.188      173.660       21.881        0.016      338.058       10.450      859.496
01/03/2014  18:43:00     -157.120       35.395      -19.014       30.478       30.205       21.029      928.903      912.323      442.206        1.429        0.114      161.057       16.459        0.010      337.953       10.276      859.475
01/03/2014  18:44:00     -156.370       24.139      -13.868       26.278       35.666       20.908      690.550     1272.091      437.147        1.381        0.120      158.223       12.527        0.006      338.036       10.414      859.477
01/03/2014  18:45:00     -132.854       -7.656      -10.579       33.800       38.854       21.584     1142.420     1509.666      465.854        1.047        0.156      133.075       18.985        0.020      337.946       10.264      859.492
01/03/2014  18:46:00     -112.079       -6.964      -16.802       49.796       46.640       25.362     2479.598     2175.261      643.244        0.909        0.265      112.295       23.209        0.043      338.009       10.370      859.503
01/03/2014  18:47:00     -148.129        6.984      -15.793       43.471       51.741       29.575     1889.713     2677.151      874.662        1.384        0.272      148.294       27.250        0.034      337.975       10.312      859.509
01/03/2014  18:48:00     -163.366       35.334      -27.828       39.110       28.992       25.635     1529.597      840.540      657.159        1.587        0.151      167.143       18.120        0.012      338.159       10.623      859.511
01/03/2014  18:49:00     -129.110       26.940      -19.799       31.123       32.676       22.190      968.633     1067.737      492.376        1.016        0.126      131.891       16.294        0.015      338.066       10.464      859.505
01/03/2014  18:50:00     -133.792       63.249      -20.539       31.282       26.394       21.663      978.585      696.659      469.294        1.223        0.107      147.989        9.704        0.004      338.108       10.535      859.498
01/03/2014  18:51:00     -145.763        9.904      -25.038       26.687       40.908       25.216      712.185     1673.494      635.847        1.250        0.151      146.099       17.196        0.014      337.951       10.274      859.503
01/03/2014  18:52:00     -150.341      -40.502      -14.585       43.402       44.938       29.656     1883.702     2019.448      879.482        1.462        0.239      155.701       15.815        0.010      337.789        9.999      859.487
01/03/2014  18:53:00     -147.985       45.371      -15.123       36.581       34.190       21.802     1338.142     1168.961      475.346        1.358        0.149      154.784       13.233        0.007      338.061       10.457      859.464
01/03/2014  18:54:00     -131.906       21.473      -17.295       37.895       30.983       27.892     1436.015      959.936      777.974        1.067        0.159      133.643       22.194        0.028      338.031       10.406      859.454
01/03/2014  18:55:00     -123.626       53.169      -21.540       44.934       39.249       26.798     2019.041     1540.498      718.152        1.143        0.214      134.574       28.217        0.044      338.031       10.406      859.456
01/03/2014  18:56:00     -138.617       16.716      -14.299       37.246       38.921       20.188     1387.230     1514.825      407.555        1.150        0.165      139.621       12.906        0.009      337.991       10.340      859.445
01/03/2014  18:57:00     -123.666       16.736      -13.007       44.959       46.484       27.653     2021.350     2160.719      764.672        1.034        0.247      124.793       22.414        0.032      337.994       10.346      859.445
01/03/2014  18:58:00     -146.895       57.753      -15.169       37.515       24.312       20.938     1407.338      591.082      438.401        1.379        0.122      157.840       14.674        0.009      338.223       10.730      859.449
01/03/2014  18:59:00     -159.730       18.454      -18.146       36.109       23.968       19.277     1303.876      574.485      371.595        1.422        0.112      160.793       17.912        0.012      338.002       10.357      859.467
01/03/2014  19:00:00     -138.773       22.308      -15.023       42.285       33.295       25.853     1788.002     1108.528      668.385        1.177        0.178      140.555       23.754        0.029      337.885       10.161      859.491
01/03/2014  19:01:00     -130.833       48.550      -10.699       43.658       44.874       27.094     1906.059     2013.685      734.091        1.212        0.233      139.551       23.009        0.027      337.934       10.244      859.517
01/03/2014  19:02:00     -120.949       63.214      -19.004       35.462       32.783       21.181     1257.565     1074.720      448.633        1.088        0.139      136.472       20.403        0.022      338.298       10.854      859.524
01/03/2014  19:03:00     -145.594       72.451      -12.412       62.815       37.132       30.673     3945.767     1378.809      940.841        1.643        0.313      162.624       22.405        0.019      338.565       11.301      859.529
01/03/2014  19:04:00     -173.836       35.833      -10.379       38.047       37.008       23.329     1447.599     1369.588      544.257        1.749        0.168      177.491       16.510        0.009      338.322       10.895      859.562
01/03/2014  19:05:00     -183.450       44.808      -22.387       43.647       34.083       21.578     1905.076     1161.658      465.622        1.985        0.177      188.843       12.902        0.005      338.017       10.383      859.595
01/03/2014  19:06:00     -162.889       85.814      -31.847       38.371       50.685       29.781     1472.315     2568.990      886.887        1.992        0.246      184.111       31.190        0.029      338.462       11.129      859.606
01/03/2014  19:07:00     -166.323       39.123      -14.130       32.419       32.333       21.651     1050.966     1045.438      468.772        1.598        0.128      170.862       10.961        0.004      338.307       10.869      859.614
01/03/2014  19:08:00     -141.008       15.883      -19.054       49.058       32.635       25.701     2406.714     1065.029      660.519        1.231        0.207      141.899       24.844        0.031      338.193       10.679      859.622
01/03/2014  19:09:00     -162.594       69.938      -22.054       37.344       32.826       22.053     1394.581     1077.548      486.340        1.739        0.148      176.997       15.188        0.007      338.590       11.346      859.646
01/03/2014  19:10:00     -123.507       52.731      -23.501       31.705       51.000       23.758     1005.215     2600.985      564.430        1.138        0.209      134.293       19.607        0.021      338.584       11.335      859.652
01/03/2014  19:11:00     -119.201       26.317      -15.370       40.081       32.391       20.951     1606.510     1049.174      438.945        0.912        0.155      122.071       16.797        0.019      338.452       11.114      859.664
01/03/2014  19:12:00     -155.492       41.240      -18.167       41.356       48.826       27.636     1710.287     2383.943      763.770        1.553        0.243      160.868       25.400        0.025      338.400       11.025      859.686
01/03/2014  19:13:00     -127.190       69.660      -10.442       41.499       35.441       31.376     1722.196     1256.072      984.482        1.255        0.198      145.016       21.792        0.023      338.331       10.909      859.710
01/03/2014  19:14:00     -118.658       62.684      -13.717       42.225       26.566       23.279     1782.979      705.751      541.893        1.061        0.152      134.198        9.980        0.006      338.488       11.173      859.713
01/03/2014  19:15:00     -121.473       57.113      -10.460       45.191       30.715       25.840     2042.188      943.397      667.692        1.089        0.183      134.229       12.330        0.008      338.533       11.249      859.701
01/03/2014  19:16:00     -130.329       49.817      -22.619       30.990       45.573       27.456      960.373     2076.858      753.858        1.188        0.190      139.525       15.783        0.013      338.257       10.785      859.694
01/03/2014  19:17:00     -129.032      -19.837      -22.285       34.703       47.822       18.180     1204.277     2286.990      330.515        1.068        0.191      130.547       15.767        0.015      337.728        9.897      859.694
01/03/2014  19:18:00     -154.495      -14.395      -16.979       42.764       30.263       23.432     1828.762      915.859      549.039        1.383        0.165      155.164       23.653        0.023      337.613        9.706      859.706
01/03/2014  19:19:00     -171.081        5.765      -19.719       21.359       29.071       14.815      456.203      845.115      219.485        1.561        0.076      171.178       12.437        0.005      337.800       10.020      859.700
01/03/2014  19:20:00     -181.022       10.657      -20.541       29.853       38.140       15.704      891.182     1454.664      246.601        1.795        0.130      181.335       13.656        0.006      337.894       10.176      859.705
01/03/2014  19:21:00     -150.655      -57.211       -7.367       61.495       50.782       29.895     3781.663     2578.829      893.687        1.664        0.363      161.152       29.887        0.034      337.732        9.905      859.706
01/03/2014  19:22:00     -118.484      -27.037       -9.287       49.954       30.115       19.303     2495.424      906.933      372.624        0.931        0.189      121.530       19.224        0.025      337.735        9.909      859.718
01/03/2014  19:23:00     -139.682      -33.656      -18.204       32.139       34.678       20.440     1032.935     1202.590      417.804        1.181        0.133      143.679       15.631        0.012      337.762        9.955      859.718
01/03/2014  19:24:00     -167.074      -93.949       -2.271       48.742       46.754       30.227     2375.752     2185.969      913.702        2.111        0.274      191.677       25.027        0.017      337.808       10.031      859.732
01/03/2014  19:25:00     -174.681      -21.392       -9.346       45.952       56.270       30.050     2111.555     3166.308      903.030        1.862        0.309      175.986       27.847        0.025      337.953       10.275      859.729
01/03/2014  19:26:00     -115.055      -60.187        5.364       65.438       42.370       28.461     4282.070     1795.177      810.028        1.189        0.344      129.847       28.897        0.050      337.962       10.290      859.716
01/03/2014  19:27:00     -144.197      -45.828      -11.532       53.847       34.304       23.282     2899.493     1176.742      542.062        1.382        0.231      151.304       20.409        0.018      337.984       10.327      859.698
01/03/2014  19:28:00     -141.661      -60.501        2.693       43.222       35.460       26.160     1868.123     1257.437      684.342        1.377        0.190      154.040       24.916        0.026      338.031       10.406      859.679
01/03/2014  19:29:00     -129.559      -47.910       -5.059       39.630       25.129       20.365     1570.547      631.470      414.727        1.086        0.131      138.133       19.099        0.019      337.955       10.278      859.678
01/03/2014  19:30:00     -115.730      -28.956       -8.374       51.386       28.799       23.661     2640.516      829.379      559.865        0.917        0.201      119.297       26.005        0.048      337.821       10.055      859.678
01/03/2014  19:31:00     -106.339      -15.222       -4.276       34.071       44.888       21.669     1160.800     2014.945      469.545        0.760        0.182      107.423       11.138        0.011      338.009       10.368      859.677
01/03/2014  19:32:00     -128.876      -34.518       -8.186       39.392       28.528       24.667     1551.739      813.848      608.475        1.042        0.149      133.419       15.538        0.014      338.171       10.640      859.673
01/03/2014  19:33:00     -124.138       -4.719       -1.564       55.360       38.237       22.108     3064.713     1462.088      488.784        1.022        0.251      124.228       25.340        0.042      337.957       10.281      859.686
01/03/2014  19:34:00     -168.209        6.834      -11.119       51.721       45.852       28.749     2675.102     2102.364      826.508        1.703        0.280      168.348       29.677        0.031      338.239       10.755      859.694
01/03/2014  19:35:00     -116.200        7.892        2.229       48.267       44.986       32.495     2329.710     2023.753     1055.950        0.949        0.270      116.468       31.127        0.071      338.238       10.753      859.699
01/03/2014  19:36:00     -102.859      -27.285      -15.924       43.582       40.033       21.343     1899.398     1602.650      455.544        0.777        0.198      106.416       14.080        0.018      338.081       10.490      859.703
01/03/2014  19:37:00      -80.616      -23.657       -4.656       35.606       28.194       22.672     1267.777      794.885      514.021        0.483        0.129       84.015       21.530        0.066      337.906       10.197      859.705
01/03/2014  19:38:00     -109.280        6.519      -10.535       40.800       23.991       14.897     1664.633      575.590      221.926        0.728        0.123      109.474       11.551        0.011      337.883       10.159      859.696
01/03/2014  19:39:00      -87.313      -34.006      -12.341       38.123       39.727       22.408     1453.378     1578.269      502.120        0.623        0.177       93.702       18.358        0.038      337.743        9.923      859.702
01/03/2014  19:40:00     -105.935      -22.584       -6.602       42.780       44.425       25.319     1830.161     1973.575      641.071        0.811        0.222      108.316       21.411        0.039      337.829       10.069      859.705
01/03/2014  19:41:00     -142.215      -12.133       -6.170       65.955       48.593       26.153     4350.058     2361.255      684.004        1.390        0.370      142.732       28.148        0.039      337.806       10.029      859.717
01/03/2014  19:42:00     -164.546       -3.866       -8.437       50.078       62.059       28.175     2507.847     3851.350      793.842        1.716        0.358      164.591       19.042        0.013      337.972       10.306      859.728
01/03/2014  19:43:00     -155.825      -41.416       -5.115       61.463       59.607       34.248     3777.658     3552.973     1172.908        1.726        0.425      161.235       33.450        0.043      338.013       10.374      859.731
01/03/2014  19:44:00     -153.693      -49.651       -1.962       56.838       71.490       39.276     3230.531     5110.853     1542.583        1.799        0.494      161.514       30.696        0.036      337.988       10.334      859.732
01/03/2014  19:45:00     -170.510      -19.371      -16.873       46.382       45.548       35.504     2151.306     2074.638     1260.530        1.761        0.274      171.606       26.519        0.024      338.073       10.476      859.725
01/03/2014  19:46:00     -162.254      -44.781      -15.297       53.179       45.273       33.484     2828.048     2049.617     1121.182        1.728        0.300      168.320       20.463        0.015      338.042       10.425      859.727
01/03/2014  19:47:00     -183.712      -44.270      -18.727       46.543       48.064       28.864     2166.231     2310.109      833.140        2.068        0.265      188.971       22.752        0.014      337.909       10.199      859.732
01/03/2014  19:48:00     -195.746      -46.673      -33.447       66.240       51.401       31.885     4387.707     2642.088     1016.677        2.483        0.402      201.233       25.457        0.016      337.999       10.350      859.741
01/03/2014  19:49:00     -188.988      -47.034      -29.803       57.861       61.766       39.517     3347.874     3815.032     1561.602        2.377        0.436      194.753       25.612        0.017      337.832       10.070      859.737
01/03/2014  19:50:00     -170.075      -62.942      -19.826       59.939       73.711       42.013     3592.697     5433.251     1765.054        2.203        0.540      181.348       25.956        0.020      337.819       10.049      859.745
01/03/2014  19:51:00     -217.771      -46.742      -17.999       63.624       53.265       32.189     4047.984     2837.139     1036.105        2.893        0.396      222.731       22.181        0.010      338.003       10.357      859.731
01/03/2014  19:52:00     -262.155      -40.489      -24.402       75.386       66.011       43.575     5683.099     4357.409     1898.767        4.145        0.597      265.263       36.102        0.019      338.173       10.641      859.718
01/03/2014  19:53:00     -185.415      -35.019      -12.187       81.975       55.403       35.401     6719.932     3069.459     1253.196        2.340        0.552      188.693       38.856        0.042      338.067       10.466      859.709
01/03/2014  19:54:00     -208.301      -43.282      -10.554       75.085       67.779       41.585     5637.798     4593.965     1729.277        2.867        0.598      212.750       33.617        0.025      338.100       10.519      859.709
01/03/2014  19:55:00     -230.058      -30.336      -24.562       67.443       80.085       37.664     4548.566     6413.647     1418.599        3.341        0.619      232.050       35.301        0.023      338.208       10.699      859.706
01/03/2014  19:56:00     -164.985      -33.774      -15.743       55.018       48.615       34.783     3026.974     2363.453     1209.830        1.760        0.330      168.407       23.925        0.020      338.116       10.548      859.714
01/03/2014  19:57:00     -167.518      -73.184       -8.959       70.729       75.494       36.727     5002.615     5699.345     1348.899        2.277        0.603      182.806       30.108        0.027      338.238       10.751      859.706
01/03/2014  19:58:00     -171.001      -74.679      -13.889       53.144       60.718       36.331     2824.268     3686.728     1319.959        2.142        0.392      186.597       25.036        0.018      338.233       10.744      859.707
01/03/2014  19:59:00     -127.066      -31.373       -4.478       48.407       51.934       32.354     2343.218     2697.192     1046.787        1.162        0.304      130.881       28.645        0.048      338.094       10.512      859.712
01/03/2014  20:00:00     -128.351      -37.026       -7.541       55.825       44.329       25.342     3116.479     1965.054      642.208        1.181        0.286      133.585       19.346        0.021      338.121       10.558      859.716
01/03/2014  20:01:00     -109.961      -17.242      -13.494       48.562       48.726       27.587     2358.260     2374.245      761.026        0.903        0.275      111.304       20.130        0.033      338.182       10.661      859.705
01/03/2014  20:02:00      -23.315      -34.934       -6.565       33.794       30.061       20.786     1142.051      903.656      432.048        0.214        0.124       42.000       16.354        0.152      338.133       10.579      859.709
01/03/2014  20:03:00       -4.244       -1.894       13.235       35.148       45.958       25.088     1235.370     2112.134      629.384        0.209        0.199        4.648       18.853       16.454      338.090       10.506      859.701
01/03/2014  20:04:00       34.359        1.288        7.494       22.896       34.744       27.011      524.234     1207.147      729.619        0.185        0.123       34.383       27.828        0.655      337.985       10.330      859.703
01/03/2014  20:05:00       25.360       13.180       23.241       48.961       36.497       26.972     2397.191     1332.024      727.467        0.291        0.223       28.581       22.698        0.631      337.933       10.242      859.706
01/03/2014  20:06:00       42.073      -47.103       -8.153       23.146       38.502       18.371      535.748     1482.416      337.503        0.321        0.118       63.157       12.704        0.040      337.786        9.995      859.716
01/03/2014  20:07:00       26.955      -38.936       -5.552       22.005       29.245       20.554      484.202      855.299      422.455        0.202        0.088       47.356       17.657        0.139      337.526        9.560      859.717
01/03/2014  20:08:00       37.219      -62.996       -7.280       27.903       41.376       26.317      778.602     1711.971      692.597        0.429        0.159       73.170       26.109        0.127      337.436        9.408      859.710
01/03/2014  20:09:00       -6.653       24.886       40.360       15.349       26.022       21.795      235.606      677.147      475.032        0.184        0.069       25.760       20.507        0.634      337.269        9.129      859.714
01/03/2014  20:10:00       46.322       43.479       34.698       34.776       18.680       19.056     1209.387      348.940      363.133        0.358        0.096       63.530       14.616        0.053      337.282        9.150      859.727
01/03/2014  20:11:00       70.421       47.446       30.700       29.338       18.090       17.516      860.694      327.257      306.814        0.482        0.075       84.913       16.958        0.040      337.208        9.028      859.720
01/03/2014  20:12:00       47.430       23.138       26.118       39.647       27.439       20.749     1571.862      752.904      430.517        0.311        0.138       52.773       17.581        0.111      337.141        8.915      859.714
01/03/2014  20:13:00       46.549       18.910       31.617       44.860       34.121       24.102     2012.449     1164.266      580.918        0.364        0.188       50.243       20.495        0.166      337.059        8.777      859.712
01/03/2014  20:14:00       46.650       53.951       65.929       46.976       45.311       39.518     2206.763     2053.043     1561.682        0.763        0.291       71.323       39.695        0.310      337.095        8.838      859.689
01/03/2014  20:15:00       15.920       -9.998        4.927       19.515       19.364       21.113      380.820      374.974      445.776        0.079        0.060       18.799       15.616        0.690      337.108        8.860      859.718
01/03/2014  20:16:00        8.634       28.324       55.546       21.163       23.032       15.902      447.855      530.492      252.880        0.260        0.062       29.611       10.964        0.137      337.061        8.780      859.704
01/03/2014  20:17:00       24.820       40.870       54.750       28.114       28.038       26.348      790.382      786.140      694.194        0.378        0.114       47.816       18.164        0.144      336.958        8.608      859.722
01/03/2014  20:18:00       11.523       30.898       60.814       26.430       56.012       39.674      698.556     3137.318     1574.042        0.510        0.270       32.977       43.546        1.744      336.954        8.602      859.726
01/03/2014  20:19:00       21.428        2.636       32.658       28.868       34.220       32.967      833.343     1171.034     1086.848        0.231        0.155       21.589       22.041        1.042      336.906        8.522      859.738
01/03/2014  20:20:00       40.502      -11.671       12.500       27.827       21.073       20.383      774.352      444.086      415.480        0.178        0.082       42.150       12.762        0.092      336.957        8.606      859.749
01/03/2014  20:21:00       57.961       36.080       47.721       30.130       37.370       30.006      907.829     1396.487      900.385        0.507        0.160       68.273       27.766        0.165      336.902        8.514      859.755
01/03/2014  20:22:00       32.188       22.273       46.896       35.854       34.764       30.423     1285.531     1208.561      925.530        0.357        0.171       39.143       26.484        0.458      336.880        8.479      859.761
01/03/2014  20:23:00       22.283        2.385       23.717       24.520       24.323       15.801      601.214      591.598      249.675        0.125        0.072       22.411       11.884        0.281      336.801        8.347      859.794
01/03/2014  20:24:00        5.809       13.376       33.322       24.283       20.459       15.525      589.672      418.564      241.035        0.129        0.062       14.583       14.374        0.972      336.772        8.298      859.811
01/03/2014  20:25:00       53.651      108.238      103.494       38.739       74.391       54.071     1500.740     5534.054     2923.657        1.763        0.498      120.806       60.024        0.247      336.728        8.223      859.805
01/03/2014  20:26:00      -59.759       28.678       25.585       51.903       51.560       41.671     2693.883     2658.432     1736.474        0.607        0.354       66.284       38.955        0.345      336.662        8.114      859.839
01/03/2014  20:27:00       11.073       -5.827       10.061       70.868       26.520       28.234     5022.246      703.310      797.187        0.339        0.326       12.512       33.008        6.959      336.709        8.194      859.878
01/03/2014  20:28:00       -4.170       61.106       85.078       22.853       32.334       22.832      522.267     1045.481      521.308        0.654        0.104       61.248       21.529        0.124      336.694        8.168      859.844
01/03/2014  20:29:00       27.414       23.715       55.185       31.440       34.177       18.691      988.457     1168.062      349.366        0.343        0.125       36.249       18.937        0.273      336.568        7.958      859.860
01/03/2014  20:30:00       83.472       88.538       74.813       40.299       31.081       41.589     1624.041      966.055     1729.660        1.236        0.216      121.682       21.931        0.032      336.615        8.037      859.854
01/03/2014  20:31:00        2.778       91.102       99.066       42.848       50.634       38.820     1835.942     2563.757     1507.022        1.201        0.295       91.144       30.777        0.114      336.571        7.962      859.825
01/03/2014  20:32:00       48.078       59.034       48.630       47.229       55.842       32.920     2230.598     3118.360     1083.694        0.730        0.322       76.135       31.826        0.175      336.574        7.967      859.852
01/03/2014  20:33:00       66.798       42.191       31.976       47.626       35.307       31.424     2268.190     1246.577      987.437        0.588        0.225       79.006       17.643        0.050      336.417        7.705      859.864
01/03/2014  20:34:00      140.677       74.859       21.472       40.190       25.369       25.300     1615.216      643.575      640.079        1.438        0.145      159.354       10.227        0.004      336.388        7.657      859.881
01/03/2014  20:35:00      131.197       76.114       37.488       45.799       36.682       31.008     2097.574     1345.597      961.471        1.441        0.220      151.677       14.424        0.009      336.348        7.587      859.886
01/03/2014  20:36:00      111.176       60.458       31.199       43.711       34.352       27.650     1910.644     1180.045      764.509        1.042        0.193      126.551       22.817        0.033      336.251        7.427      859.878
01/03/2014  20:37:00       27.403       34.243       57.212       39.872       29.831       28.260     1589.788      889.886      798.617        0.424        0.164       43.858       27.293        0.387      336.366        7.620      859.873
01/03/2014  20:38:00       29.088       73.667       82.474       49.229       39.239       39.923     2423.455     1539.699     1593.862        0.931        0.278       79.202       34.374        0.188      336.489        7.825      859.875
01/03/2014  20:39:00       32.436       82.184       70.811       46.021       36.353       34.603     2117.909     1321.557     1197.379        0.873        0.232       88.353       32.065        0.132      336.402        7.679      859.890
01/03/2014  20:40:00      139.476       71.311       34.055       34.237       29.750       31.057     1172.189      885.089      964.511        1.436        0.151      156.649       24.059        0.024      336.363        7.615      859.913
01/03/2014  20:41:00       93.141       33.690       44.388       45.806       27.900       31.810     2098.167      778.438     1011.898        0.783        0.194       99.047       27.323        0.076      336.281        7.478      859.927
01/03/2014  20:42:00      110.748       79.861       39.125       45.749       24.027       33.473     2092.937      577.280     1120.449        1.198        0.190      136.539       26.247        0.037      336.192        7.329      859.941
01/03/2014  20:43:00      180.343       90.451        9.688       55.180       39.795       32.597     3044.875     1583.656     1062.594        2.324        0.285      201.755       22.043        0.012      336.192        7.324      859.939
01/03/2014  20:44:00       80.326       54.547       35.866       66.801       28.230       37.924     4462.388      796.951     1438.263        0.870        0.335       97.096       39.171        0.163      336.111        7.192      859.947
01/03/2014  20:45:00       75.751       10.693       25.174       45.227       20.277       21.875     2045.467      411.166      478.517        0.471        0.147       76.502       21.995        0.083      336.021        7.043      859.964
01/03/2014  20:46:00       83.073       32.771       46.342       49.798       33.851       40.526     2479.847     1145.922     1642.368        0.769        0.263       89.304       30.964        0.120      336.043        7.081      859.956
01/03/2014  20:47:00        3.123       10.782       51.395       26.854       32.515       25.651      721.151     1057.215      657.958        0.260        0.122       11.226       21.817        3.777      336.136        7.236      859.949
01/03/2014  20:48:00       45.640      -30.206       12.357       40.052       30.324       23.612     1604.160      919.567      557.514        0.311        0.154       54.731       22.011        0.162      336.458        7.773      859.998
01/03/2014  20:49:00       91.829       44.512       20.619       42.905       32.247       22.990     1840.798     1039.870      528.554        0.712        0.170      102.048       20.921        0.042      336.311        7.529      859.998
01/03/2014  20:50:00      110.545       62.772       20.809       27.025       29.795       33.486      730.332      887.732     1121.314        0.967        0.137      127.124       22.688        0.032      336.347        7.588      859.997
01/03/2014  20:51:00      121.182       52.374        8.033       38.262       24.112       23.185     1463.977      581.385      537.564        1.004        0.129      132.016       23.230        0.031      336.382        7.646      860.016
01/03/2014  20:52:00       71.424       30.328        7.652       21.386       17.237       15.665      457.340      297.104      245.389        0.354        0.050       77.596        8.889        0.013      336.420        7.709      860.039
01/03/2014  20:53:00       81.074       49.622        8.597       20.447       10.943       10.021      418.064      119.753      100.416        0.487        0.032       95.054        6.238        0.004      336.310        7.527      860.046
01/03/2014  20:54:00      124.739       68.683       12.861       26.018       24.830       19.507      676.947      616.512      380.531        1.106        0.084      142.397       11.423        0.006      336.316        7.536      860.058
01/03/2014  20:55:00       72.619       41.954       40.542       60.044       33.090       28.314     3605.273     1094.934      801.668        0.709        0.275       83.867       28.528        0.116      336.314        7.532      860.059
01/03/2014  20:56:00       20.756       49.326       53.823       36.343       34.008       25.017     1320.787     1156.558      625.832        0.443        0.155       53.515       17.393        0.106      336.161        7.277      860.059
01/03/2014  20:57:00       26.108       10.067       20.700       32.539       22.017       22.348     1058.806      484.750      499.431        0.163        0.102       27.982       17.264        0.381      336.183        7.314      860.069
01/03/2014  20:58:00       69.853       27.660       14.767       29.334       27.399       25.235      860.454      750.727      636.801        0.405        0.112       75.130       16.789        0.050      336.396        7.670      860.079
01/03/2014  20:59:00       61.399       81.325       45.514       34.015       38.966       42.069     1157.045     1518.336     1769.791        0.845        0.222      101.900       26.306        0.067      336.498        7.841      860.051
01/03/2014  21:00:00       20.514       72.396       65.781       27.442       38.746       29.778      753.059     1501.220      886.711        0.656        0.157       75.246       27.700        0.136      336.383        7.649      860.053
01/03/2014  21:01:00       -4.238       25.862       49.307       12.278       24.328       12.013      150.745      591.864      144.324        0.200        0.044       26.207       11.709        0.200      336.499        7.843      860.061
01/03/2014  21:02:00       -5.059       -6.370       15.381       10.393       20.952       23.218      108.013      438.996      539.060        0.069        0.054        8.134       17.067        4.402      336.505        7.852      860.078
01/03/2014  21:03:00       58.956       41.084        9.157       45.123       37.358       15.185     2036.098     1395.653      230.571        0.445        0.183       71.859       11.381        0.025      336.535        7.903      860.087
01/03/2014  21:04:00      119.246       60.090       18.888       18.373       18.469       17.974      337.584      341.118      323.062        0.959        0.050      133.530       11.400        0.007      336.453        7.766      860.111
01/03/2014  21:05:00      155.727       84.869       36.751       43.979       26.409       30.146     1934.172      697.428      908.784        1.817        0.177      177.352       22.008        0.015      336.442        7.745      860.123
01/03/2014  21:06:00      118.701       69.410       24.552       55.997       32.891       29.828     3135.698     1081.816      889.718        1.231        0.255      137.505       19.847        0.021      336.403        7.679      860.109
01/03/2014  21:07:00       52.093       12.659       15.792       39.219       23.526       18.390     1538.142      553.492      338.190        0.278        0.121       53.610        8.584        0.026      336.380        7.644      860.133
01/03/2014  21:08:00       31.046        8.957       15.131       26.245       22.972       15.263      688.818      527.716      232.956        0.136        0.072       32.312       10.017        0.096      336.464        7.783      860.149
01/03/2014  21:09:00       83.416       23.306       15.245       37.107       20.753       12.333     1376.922      430.707      152.091        0.485        0.098       86.610       10.558        0.015      336.594        8.000      860.151
01/03/2014  21:10:00      111.158       51.791       20.203       30.582       22.559       26.428      935.232      508.929      698.457        0.879        0.107      122.631       18.587        0.023      336.670        8.128      860.122
01/03/2014  21:11:00      122.813       46.009       16.235       41.797       33.516       27.550     1747.022     1123.313      759.012        1.055        0.181      131.148       15.131        0.013      336.553        7.931      860.114
01/03/2014  21:12:00      108.551       19.444       10.777       51.109       35.076       28.951     2612.099     1230.306      838.133        0.848        0.234      110.279       16.537        0.022      336.681        8.146      860.122
01/03/2014  21:13:00       39.127       13.994        6.481       20.058       22.356       14.809      402.330      499.804      219.302        0.144        0.056       41.554        8.721        0.044      336.650        8.096      860.157
01/03/2014  21:14:00       95.542       59.840       21.993       25.163       19.694       16.719      633.153      387.861      279.523        0.725        0.065      112.735        8.851        0.006      336.663        8.116      860.151
01/03/2014  21:15:00      110.240       67.954       26.972       26.635       22.233       16.376      709.429      494.301      268.184        0.948        0.074      129.501        9.942        0.006      336.768        8.292      860.147
01/03/2014  21:16:00      110.326       57.104       19.849       36.280       22.315       23.555     1316.238      497.974      554.857        0.910        0.118      124.228       18.669        0.023      336.606        8.021      860.133
01/03/2014  21:17:00      104.806       55.362        7.199       43.035       27.661       23.445     1851.984      765.116      549.646        0.863        0.158      118.529       20.604        0.030      336.540        7.911      860.122
01/03/2014  21:18:00       84.641       49.201       13.842       41.845       30.974       21.633     1750.967      959.358      468.008        0.648        0.159       97.902       16.522        0.028      336.652        8.097      860.120
01/03/2014  21:19:00       20.794       19.837        3.262       21.324       23.974       12.321      454.693      574.748      151.798        0.101        0.059       28.739        7.323        0.065      336.630        8.061      860.123
01/03/2014  21:20:00       57.267       34.377       17.066       12.791       10.607       10.311      163.600      112.501      106.325        0.257        0.019       66.793        5.852        0.008      336.699        8.177      860.107
01/03/2014  21:21:00       63.940       40.403        7.845       22.259       19.022       10.639      495.484      361.828      113.190        0.338        0.049       75.636        4.783        0.004      336.710        8.194      860.104
01/03/2014  21:22:00       80.718       49.208       13.524       25.006       25.524       16.913      625.317      651.472      286.045        0.534        0.078       94.534       10.180        0.012      336.795        8.337      860.082
01/03/2014  21:23:00       10.436      -15.914       -3.215       21.577       22.809        9.328      465.560      520.232       87.005        0.072        0.054       19.030        8.943        0.221      336.698        8.176      860.073
01/03/2014  21:24:00       30.602       16.590        7.123       10.309       15.210       12.043      106.275      231.354      145.036        0.087        0.024       34.810        8.653        0.062      336.796        8.339      860.065
01/03/2014  21:25:00       75.379       42.059       14.056       17.544       11.430       11.031      307.784      130.640      121.686        0.410        0.028       86.318        7.078        0.007      336.716        8.206      860.050
01/03/2014  21:26:00      104.287       60.985        9.930       16.606       12.957       10.882      275.746      167.883      118.414        0.763        0.028      120.809        6.370        0.003      336.674        8.135      860.037
01/03/2014  21:27:00       89.037       51.372        6.557       23.664       13.087       19.226      559.972      171.262      369.651        0.586        0.055      102.795       14.069        0.019      336.621        8.046      860.029
01/03/2014  21:28:00       97.312       48.545       -3.499       27.216       16.546       12.699      740.736      273.759      161.254        0.651        0.059      108.749        6.884        0.004      336.670        8.128      860.026
01/03/2014  21:29:00       28.021       41.587       -4.013       49.917       16.717       14.747     2491.669      279.442      217.477        0.276        0.149       50.146       10.942        0.048      336.508        7.858      860.053
01/03/2014  21:30:00       46.407       39.427       28.935       53.137       21.499       26.244     2823.565      462.194      688.731        0.426        0.199       60.894       33.144        0.296      336.484        7.817      860.029
01/03/2014  21:31:00        6.160       30.179       41.809       17.434       16.257        7.751      303.960      264.277       60.083        0.166        0.031       30.802        8.005        0.068      336.256        7.434      860.038
01/03/2014  21:32:00       15.474      -25.200       16.996       25.723       40.788       25.856      661.685     1663.657      668.509        0.208        0.150       29.572       25.186        0.725      336.199        7.341      860.036
01/03/2014  21:33:00       10.964       20.013       47.235       25.910       37.201       41.096      671.320     1383.885     1688.890        0.325        0.187       22.820       32.631        2.045      335.988        6.985      860.048
01/03/2014  21:34:00       -3.503       99.534      122.351       33.423       48.192       25.639     1117.121     2322.514      657.373        1.449        0.205       99.596       28.578        0.082      335.999        7.006      860.041
01/03/2014  21:35:00       11.106       55.145       61.779       39.527       45.209       35.088     1562.408     2043.851     1231.148        0.591        0.242       56.253       29.484        0.275      336.065        7.116      860.057
01/03/2014  21:36:00       59.996       34.608       36.302       69.651       27.870       26.166     4851.326      776.762      684.659        0.621        0.316       69.262       21.998        0.101      336.145        7.249      860.079
01/03/2014  21:37:00      121.430       29.634        7.692       53.234       36.363       38.625     2833.835     1322.246     1491.880        1.066        0.282      124.994       31.370        0.063      336.175        7.299      860.085
01/03/2014  21:38:00       65.566       49.233       48.861       40.923       37.769       31.529     1674.732     1426.495      994.069        0.660        0.205       81.993       29.289        0.128      336.124        7.214      860.106
01/03/2014  21:39:00       30.223       48.817       55.016       36.278       37.364       32.846     1316.100     1396.034     1078.848        0.506        0.190       57.415       31.475        0.301      336.136        7.234      860.119
01/03/2014  21:40:00       12.184       34.074       56.628       31.953       37.364       30.485     1021.001     1396.068      929.342        0.393        0.167       36.187       22.777        0.396      336.081        7.144      860.114
01/03/2014  21:41:00       11.066       29.811       60.904       27.543       36.148       28.286      758.605     1306.678      800.123        0.379        0.143       31.799       11.148        0.123      335.996        7.001      860.098
01/03/2014  21:42:00       33.330        8.231       46.337       36.305       43.230       34.971     1318.071     1868.811     1222.940        0.387        0.220       34.331       31.113        0.821      336.034        7.064      860.095
01/03/2014  21:43:00       34.639      -18.828       19.563       28.214       33.076       19.089      796.057     1094.024      364.397        0.210        0.113       39.425       22.475        0.325      336.219        7.373      860.113
01/03/2014  21:44:00       54.139      -59.976       -3.764       37.914       33.665       27.047     1437.479     1133.320      731.517        0.492        0.165       80.797       20.892        0.067      336.346        7.587      860.115
01/03/2014  21:45:00       17.408        3.801       35.448       26.113       31.258       21.273      681.866      977.084      452.545        0.184        0.106       17.819       15.021        0.711      336.181        7.310      860.107
01/03/2014  21:46:00       11.680       16.932       44.693       27.804       34.339       21.189      773.044     1179.150      448.983        0.241        0.120       20.570       21.357        1.078      336.193        7.330      860.101
01/03/2014  21:47:00       42.606      -36.368       11.248       27.473       23.798       13.858      754.746      566.331      192.039        0.239        0.076       56.017       15.915        0.081      336.573        7.967      860.113
01/03/2014  21:48:00       28.659      -16.693       21.072       29.671       37.173       20.349      880.376     1381.835      414.079        0.211        0.134       33.167       26.415        0.634      336.657        8.105      860.118
01/03/2014  21:49:00       85.400       67.208       35.299       42.652       23.127       27.253     1819.188      534.838      742.704        0.808        0.155      108.675       16.975        0.024      336.528        7.891      860.085
01/03/2014  21:50:00       99.189       65.795       43.857       48.739       33.711       37.030     2375.529     1136.441     1371.203        1.049        0.244      119.027       32.485        0.074      336.602        8.015      860.056
01/03/2014  21:51:00       33.050       35.566       50.709       42.645       33.629       24.410     1818.605     1130.897      595.832        0.424        0.177       48.552       20.800        0.184      336.410        7.693      860.061
01/03/2014  21:52:00      -27.366      -12.803        4.227       23.561       17.196       14.036      555.122      295.704      197.012        0.099        0.052       30.213       12.421        0.169      336.326        7.552      860.096
01/03/2014  21:53:00      -21.783       20.323       -8.271       44.386       22.628       12.012     1970.100      512.035      144.277        0.179        0.131       29.792       13.000        0.190      336.317        7.539      860.086
01/03/2014  21:54:00       76.848       60.598       19.615       26.277       23.929       25.762      690.467      572.607      663.664        0.594        0.096       97.866       10.851        0.012      336.489        7.824      860.079
01/03/2014  21:55:00      117.505       59.110       24.697       39.316       30.263       26.994     1545.751      915.867      728.672        1.055        0.160      131.535       21.780        0.027      336.682        8.149      860.084
01/03/2014  21:56:00       80.920       57.243       11.903       39.001       26.311       23.870     1521.074      692.268      569.765        0.637        0.139       99.121       11.117        0.013      336.567        7.956      860.113
01/03/2014  21:57:00       65.282       23.369       13.792       25.860       28.462       20.753      668.716      810.089      430.703        0.345        0.095       69.338       16.551        0.057      336.655        8.102      860.120
01/03/2014  21:58:00       26.558       24.343       -2.054       37.221       39.041       16.179     1385.423     1524.164      261.766        0.224        0.159       36.027       19.145        0.282      336.804        8.350      860.141
01/03/2014  21:59:00       27.818       47.067       -2.648       21.744       31.734       18.564      472.808     1007.032      344.630        0.241        0.091       54.673       17.776        0.106      336.727        8.225      860.144
01/03/2014  22:00:00       58.275       20.542       11.485       11.354       11.175       14.818      128.903      124.884      219.569        0.221        0.024       61.789        3.992        0.004      336.656        8.106      860.136
01/03/2014  22:01:00       36.320       22.762        6.711       10.380        9.186        8.244      107.748       84.374       67.958        0.107        0.013       42.863        5.447        0.016      336.629        8.060      860.148
01/03/2014  22:02:00       70.001       54.528        7.083       27.121       26.805       15.769      735.567      718.507      248.671        0.481        0.085       88.733       13.527        0.023      336.769        8.293      860.158
01/03/2014  22:03:00      116.657       74.259       22.217       39.267       24.720       21.556     1541.878      611.077      464.676        1.112        0.131      138.287       15.311        0.012      336.845        8.420      860.161
01/03/2014  22:04:00       95.538       70.545       15.226       33.136       23.050       23.330     1098.003      531.304      544.286        0.825        0.109      118.761       15.389        0.017      336.629        8.060      860.167
01/03/2014  22:05:00       57.149       43.370       12.471       27.140       25.678       19.742      736.570      659.342      389.765        0.354        0.089       71.743       15.433        0.046      336.496        7.837      860.187
01/03/2014  22:06:00       38.220       19.397        5.994       16.100       16.540       14.928      259.212      273.584      222.845        0.131        0.038       42.861       11.348        0.070      336.384        7.650      860.197
01/03/2014  22:07:00       29.321       39.531       -4.753       18.860       15.665        9.518      355.705      245.406       90.589        0.157        0.035       49.218        9.276        0.036      336.504        7.850      860.200
01/03/2014  22:08:00       10.214       37.515       -6.330       18.179       20.318        9.964      330.474      412.838       99.281        0.120        0.042       38.880        9.583        0.061      336.567        7.956      860.210
01/03/2014  22:09:00       28.821       10.297        8.248       11.494       11.828        9.710      132.110      139.897       94.279        0.069        0.018       30.606        5.275        0.030      336.394        7.664      860.215
01/03/2014  22:10:00       55.838       31.023        9.677       21.192       12.334       13.491      449.105      152.117      181.999        0.248        0.039       63.877        9.765        0.023      336.481        7.812      860.212
01/03/2014  22:11:00       57.842       17.785        2.804       19.480       14.693       15.149      379.485      215.891      229.494        0.225        0.041       60.514        9.172        0.023      336.484        7.818      860.222
01/03/2014  22:12:00        2.496      -17.194       11.242       18.002       35.439       11.973      324.068     1255.914      143.346        0.108        0.086       17.375       11.932        0.472      336.546        7.922      860.243
01/03/2014  22:13:00       53.600      -56.193       -9.457       17.411       23.935       13.464      303.135      572.908      181.269        0.359        0.053       77.657        9.985        0.017      336.517        7.873      860.249
01/03/2014  22:14:00       48.958      -64.775       -3.928       18.906       23.446       16.562      357.434      549.701      274.284        0.389        0.059       81.195       12.900        0.025      336.655        8.103      860.266
01/03/2014  22:15:00       24.173      -13.614       14.567       28.704       32.957       24.135      823.904     1086.196      582.492        0.174        0.125       27.743       22.723        0.671      336.367        7.621      860.281
01/03/2014  22:16:00       23.795       20.177       31.390       28.555       33.693       22.282      815.411     1135.207      496.478        0.220        0.122       31.198       22.941        0.541      335.930        6.891      860.277
01/03/2014  22:17:00       56.738      -54.028        3.681       21.967       11.767       14.505      482.538      138.455      210.397        0.349        0.042       78.347        7.959        0.010      336.295        7.501      860.269
01/03/2014  22:18:00       -1.373       20.730       41.011       12.528       22.772       10.859      156.950      518.546      117.924        0.145        0.040       20.776        9.945        0.229      335.936        6.902      860.279
01/03/2014  22:19:00       -0.173       21.895       27.924       10.140       16.067       14.623      102.811      258.164      213.836        0.092        0.029       21.896       13.472        0.379      335.801        6.676      860.310
01/03/2014  22:20:00       52.539       23.462       12.069       30.680       14.103       13.471      941.232      198.890      181.472        0.239        0.066       57.540        9.599        0.028      335.972        6.961      860.314
01/03/2014  22:21:00       18.647       49.843       60.398       31.278       25.069       18.415      978.291      628.454      339.111        0.421        0.097       53.217       21.234        0.159      336.023        7.045      860.322
01/03/2014  22:22:00        9.853       38.096       46.858       20.499       20.466       12.082      420.225      418.841      145.985        0.236        0.049       39.350        9.696        0.061      336.034        7.065      860.341
01/03/2014  22:23:00        3.099        2.110       21.982       26.877       28.991       17.319      722.356      840.482      299.942        0.118        0.093        3.749       21.311       32.314      336.006        7.018      860.349
01/03/2014  22:24:00      -22.776      -30.563       -2.539       22.420       18.369       15.890      502.643      337.422      252.498        0.128        0.055       38.116       13.955        0.134      335.342        5.912      860.370
01/03/2014  22:25:00      -63.940      -68.762       -9.410       30.174       34.073       25.987      910.494     1160.992      675.329        0.583        0.137       93.896       18.466        0.039      335.758        6.605      860.380
01/03/2014  22:26:00      -52.209      -18.000       -4.565       18.363       32.016       11.684      337.186     1025.030      136.513        0.228        0.075       55.225        7.076        0.016      335.937        6.903      860.377
01/03/2014  22:27:00      -55.060       15.574       -9.403       16.883       12.912       11.838      285.045      166.716      140.148        0.198        0.030       57.220        8.202        0.021      336.009        7.024      860.402
01/03/2014  22:28:00      -18.112      -24.786       -4.930       20.084       13.313       10.247      403.357      177.225      104.997        0.083        0.034       30.698       10.787        0.123      336.007        7.020      860.420
01/03/2014  22:29:00      -36.829      -46.667       -0.982       26.554       22.139       11.298      705.134      490.128      127.635        0.243        0.066       59.448       12.212        0.042      336.122        7.213      860.431
01/03/2014  22:30:00      -32.902      -19.662        4.569       24.755       18.900       12.197      612.793      357.206      148.763        0.130        0.056       38.329       10.562        0.076      335.656        6.435      860.437
01/03/2014  22:31:00        2.341        0.884        2.308       16.711       17.723       14.093      279.272      314.103      198.609        0.040        0.040        2.502        9.023       13.001      335.757        6.604      860.411
01/03/2014  22:32:00      -60.105       -7.337        0.025       28.486       22.723       19.315      811.473      516.333      373.061        0.268        0.085       60.552        8.850        0.021      335.815        6.700      860.414
01/03/2014  22:33:00      -64.674        7.419       -7.857        8.846       11.309        8.324       78.258      127.886       69.285        0.229        0.014       65.098        2.449        0.001      335.596        6.335      860.405
01/03/2014  22:34:00      -53.725        0.975      -16.576       19.774       12.401        9.153      391.011      153.781       83.776        0.190        0.031       53.734        5.856        0.012      335.686        6.486      860.373
01/03/2014  22:35:00     -107.129      -14.828      -17.869       18.834       22.602       11.083      354.730      510.838      122.842        0.650        0.049      108.151        7.326        0.005      335.494        6.165      860.362
01/03/2014  22:36:00     -144.461       -9.167      -17.796       28.344       22.587       17.705      803.363      510.175      313.453        1.145        0.081      144.751       10.553        0.005      334.967        5.289      860.391
01/03/2014  22:37:00      -91.462       -9.153       -1.633       33.781       21.910       14.959     1141.145      480.064      223.781        0.515        0.092       91.919       16.014        0.030      334.912        5.196      860.408
01/03/2014  22:38:00      -41.701      -24.506       -1.007       15.099       13.610        7.870      227.974      185.227       61.943        0.141        0.024       48.369        6.929        0.021      335.367        5.953      860.405
01/03/2014  22:39:00        7.697      -31.590       -0.196       20.834       10.337       15.275      434.037      106.848      233.317        0.092        0.039       32.515        8.758        0.073      335.755        6.601      860.412
01/03/2014  22:40:00      -12.566      -18.666       -3.086       27.889       15.783       11.112      777.812      249.093      123.486        0.083        0.058       22.501        9.253        0.169      335.968        6.955      860.426
01/03/2014  22:41:00      -47.417      -18.922       -6.465       15.356       15.307        9.063      235.792      234.315       82.142        0.160        0.028       51.053        9.524        0.035      335.509        6.189      860.461
01/03/2014  22:42:00     -106.434        2.383      -15.871       29.437        9.413       10.813      866.521       88.610      116.914        0.633        0.054      106.461       10.254        0.009      335.006        5.355      860.512
01/03/2014  22:43:00     -133.343       14.940      -18.084       17.158       14.381       10.419      294.404      206.815      108.550        0.947        0.030      134.177        4.881        0.001      335.344        5.916      860.541
01/03/2014  22:44:00      -99.453       -5.671      -16.323       17.256        8.866        8.170      297.757       78.605       66.741        0.532        0.022       99.614        6.809        0.005      335.679        6.474      860.539
01/03/2014  22:45:00      -69.586        2.026      -12.370       17.517       11.394        9.619      306.837      129.817       92.532        0.276        0.026       69.615       10.216        0.022      335.638        6.405      860.530
01/03/2014  22:46:00      -66.460       25.414      -11.521        9.183        9.771        9.972       84.336       95.475       99.449        0.274        0.014       71.153        4.262        0.004      335.774        6.633      860.527
01/03/2014  22:47:00      -59.560      -10.100      -13.697        9.749       22.820       10.982       95.041      520.731      120.612        0.229        0.037       60.411        8.860        0.022      335.240        5.741      860.535
01/03/2014  22:48:00      -56.127        7.383       -6.637       10.802       15.816       11.234      116.688      250.161      126.207        0.187        0.025       56.610        8.865        0.025      335.122        5.546      860.527
01/03/2014  22:49:00      -54.445      -13.201       -8.649       19.955       26.301        8.117      398.217      691.725       65.881        0.218        0.058       56.022        5.153        0.008      335.362        5.946      860.523
01/03/2014  22:50:00      -48.347      -25.461      -15.019       21.126       15.602        8.479      446.303      243.429       71.892        0.199        0.038       54.642        4.961        0.008      335.228        5.722      860.534
01/03/2014  22:51:00      -73.956        9.969       -8.842        8.432       11.895        7.501       71.094      141.480       56.268        0.296        0.013       74.625        4.471        0.004      335.344        5.915      860.543
01/03/2014  22:52:00      -74.370       14.075       -9.000       10.077       10.878        8.148      101.549      118.330       66.397        0.305        0.014       75.690        3.173        0.002      335.679        6.476      860.548
01/03/2014  22:53:00      -49.553       -6.442      -11.186       10.265       15.148        5.841      105.378      229.474       34.116        0.150        0.018       49.970        3.680        0.005      335.352        5.927      860.561
01/03/2014  22:54:00      -36.561       11.087       -9.362       13.082        7.248        5.758      171.144       52.541       33.155        0.090        0.013       38.205        4.566        0.014      336.127        7.221      860.566
01/03/2014  22:55:00        3.256       13.464        1.903       12.382        7.305        4.978      153.312       53.368       24.783        0.021        0.012       13.852        4.452        0.103      336.283        7.480      860.575
01/03/2014  22:56:00       -7.426       -1.421        5.774       21.265       17.311       11.523      452.189      299.661      132.775        0.049        0.044        7.560       14.327        3.591      335.889        6.824      860.577
01/03/2014  22:57:00      -59.902      -23.171      -10.161       14.294       15.744        7.424      204.309      247.881       55.115        0.237        0.025       64.227        7.694        0.014      335.512        6.196      860.597
01/03/2014  22:58:00      -97.427      -30.085      -16.278       13.966       19.266       11.538      195.035      371.191      133.130        0.568        0.035      101.966        6.207        0.004      334.840        5.077      860.620
01/03/2014  22:59:00     -139.274       10.783      -16.846       59.195       35.253       22.857     3504.049     1242.783      522.451        1.253        0.263      139.691       27.172        0.038      334.446        4.424      860.632
01/03/2014  23:00:00      -94.071      -20.588      -10.176       40.721       36.476       19.611     1658.178     1330.508      384.587        0.637        0.169       96.298       15.539        0.026      334.425        4.391      860.641
01/03/2014  23:01:00      -94.315      -18.691        0.528       44.471       32.673       23.235     1977.677     1067.509      539.849        0.641        0.179       96.150       18.696        0.038      334.554        4.603      860.654
01/03/2014  23:02:00     -149.789      -21.822       -5.479       75.034       43.921       27.644     5630.087     1929.072      764.175        1.563        0.416      151.370       29.050        0.037      334.580        4.644      860.659
01/03/2014  23:03:00     -129.303      -10.910       -1.786       57.729       35.241       28.017     3332.675     1241.924      784.937        1.110        0.268      129.762       30.671        0.056      334.567        4.623      860.661
01/03/2014  23:04:00     -124.752       -9.084       -9.563       33.479       22.323       15.830     1120.814      498.335      250.586        0.880        0.093      125.082       17.549        0.020      334.839        5.075      860.633
01/03/2014  23:05:00     -122.095      -25.117      -16.430       16.555       14.323       12.919      274.083      205.139      166.890        0.823        0.032      124.652        6.351        0.003      334.735        4.903      860.601
01/03/2014  23:06:00     -151.300      -39.192      -15.728       22.931       18.881       16.806      525.845      356.491      282.438        1.292        0.058      156.294       14.613        0.009      334.602        4.683      860.597
01/03/2014  23:07:00     -115.992      -37.233      -10.341       12.243       19.920        9.843      149.899      396.822       96.880        0.780        0.032      121.822        6.946        0.003      334.657        4.773      860.623
01/03/2014  23:08:00     -114.784        2.445      -10.644       15.377       16.458        8.326      236.456      270.855       69.329        0.694        0.029      114.810        8.289        0.005      334.779        4.977      860.654
01/03/2014  23:09:00      -51.895       38.177       -7.598       31.343       39.746       14.395      982.395     1579.746      207.214        0.349        0.138       64.425       21.164        0.108      335.127        5.556      860.670
01/03/2014  23:10:00        5.473       20.571        0.939       27.894       22.960        9.388      778.081      527.175       88.140        0.092        0.070       21.286        7.980        0.141      335.232        5.728      860.674
01/03/2014  23:11:00      -35.623        1.022       -5.740       25.648       11.407       11.588      657.802      130.124      134.290        0.111        0.046       35.637       12.636        0.126      335.188        5.657      860.705
01/03/2014  23:12:00      -61.489      -14.274      -11.262       12.237       11.989        9.164      149.744      143.745       83.973        0.224        0.019       63.125        5.443        0.007      335.249        5.759      860.728
01/03/2014  23:13:00      -89.626      -19.203       -7.447       32.724       48.596       15.143     1070.848     2361.600      229.318        0.606        0.183       91.660       10.116        0.012      334.928        5.225      860.715
01/03/2014  23:14:00      -77.645       39.601      -10.045       38.858       30.537       23.884     1509.921      932.502      570.451        0.535        0.151       87.161       24.100        0.076      335.679        6.474      860.701
01/03/2014  23:15:00      -32.034       40.206       -9.535       33.567       10.883       12.377     1126.717      118.430      153.188        0.207        0.070       51.407       18.848        0.134      336.800        8.344      860.682
01/03/2014  23:16:00        7.379       73.028      -14.140       31.905       16.691       11.008     1017.918      278.590      121.176        0.350        0.071       73.400        9.476        0.017      336.502        7.848      860.649
01/03/2014  23:17:00      -60.392       49.201      -11.684       31.018       15.442       12.771      962.115      238.449      163.105        0.378        0.068       77.897       11.285        0.021      335.988        6.988      860.649
01/03/2014  23:18:00      -72.153       -1.167       -8.794       16.246       16.797        9.982      263.940      282.146       99.641        0.297        0.032       72.162        5.893        0.007      335.343        5.914      860.673
01/03/2014  23:19:00     -106.020      -20.488      -14.405       18.900       28.413       12.544      357.212      807.303      157.351        0.659        0.066      107.981        8.961        0.007      335.082        5.481      860.700
01/03/2014  23:20:00     -149.845      -53.545      -20.551       29.982       21.985       18.611      898.919      483.319      346.376        1.374        0.086      159.124       17.009        0.011      334.420        4.381      860.694
01/03/2014  23:21:00     -120.624      -65.218       -9.650       59.005       34.653       21.275     3481.532     1200.822      452.631        1.201        0.257      137.126       24.360        0.032      334.413        4.370      860.684
01/03/2014  23:22:00     -141.996      -63.984       -5.955       43.646       28.077       19.079     1904.983      788.344      363.995        1.367        0.153      155.746       19.100        0.015      334.611        4.697      860.653
01/03/2014  23:23:00      -74.259      -27.850       -0.052       36.997       30.644       17.889     1368.756      939.042      320.005        0.446        0.131       79.310       11.190        0.020      334.784        4.985      860.637
01/03/2014  23:24:00     -129.608      -67.581       -5.132       28.550       23.201       11.496      815.112      538.266      132.169        1.144        0.074      146.169       13.626        0.009      335.016        5.369      860.631
01/03/2014  23:25:00     -163.871      -63.378      -12.195        9.826       13.475        9.758       96.558      181.580       95.225        1.570        0.019      175.700        7.225        0.002      335.024        5.384      860.608
01/03/2014  23:26:00     -125.970      -55.873       -1.413       34.571       30.088       21.610     1195.164      905.274      466.982        1.078        0.128      137.805       20.768        0.023      334.973        5.298      860.574
01/03/2014  23:27:00     -159.375      -59.945      -23.377       19.895       26.609       13.447      395.803      708.019      180.823        1.541        0.064      170.276        2.919        0.000      335.087        5.488      860.538
01/03/2014  23:28:00     -146.458      -93.491       -6.882       29.432       21.512       20.537      866.223      462.782      421.784        1.599        0.088      173.754       10.836        0.004      335.008        5.357      860.517
01/03/2014  23:29:00     -171.564      -67.609       -3.358       33.839       27.626       18.921     1145.098      763.193      357.987        1.814        0.113      184.405       14.445        0.006      334.856        5.105      860.502
01/03/2014  23:30:00     -132.903      -31.147       -0.929       37.814       26.621       17.167     1429.865      708.665      294.699        1.053        0.122      136.504       18.317        0.018      334.981        5.312      860.488
01/03/2014  23:31:00     -157.764      -32.896      -12.957       33.228       23.297       18.663     1104.124      542.771      348.317        1.407        0.100      161.157       16.722        0.011      335.107        5.521      860.486
01/03/2014  23:32:00     -133.634      -19.808      -10.143       20.958       15.243       12.758      439.231      232.343      162.772        0.959        0.042      135.094        8.996        0.004      335.199        5.675      860.501
01/03/2014  23:33:00      -89.203      -18.016      -13.341       11.693        8.997        8.285      136.725       80.939       68.634        0.437        0.014       91.004        7.137        0.006      335.654        6.432      860.503
01/03/2014  23:34:00      -88.913      -14.530      -15.301        8.538        8.279        8.377       72.906       68.543       70.176        0.428        0.011       90.092        4.717        0.003      335.547        6.254      860.499
01/03/2014  23:35:00      -89.661      -36.030       -9.818       14.959       26.653       10.554      223.784      710.392      111.388        0.524        0.052       96.629        8.478        0.008      335.562        6.279      860.509
01/03/2014  23:36:00      -40.020      -65.375        2.220       27.512       17.025       12.946      756.917      289.847      167.610        0.355        0.061       76.652        6.852        0.008      335.179        5.641      860.536
01/03/2014  23:37:00      -17.894      -56.949       -9.487       14.799       11.131       11.052      219.023      123.892      122.149        0.206        0.023       59.694        8.675        0.021      335.456        6.101      860.550
01/03/2014  23:38:00      -35.032      -53.566        7.239       33.937       41.126       21.946     1151.747     1691.340      481.648        0.374        0.166       64.004       15.285        0.057      335.362        5.946      860.558
01/03/2014  23:39:00      -47.768     -111.431       -5.029       44.925       34.276       27.498     2018.251     1174.866      756.121        0.934        0.197      121.238       18.312        0.023      335.468        6.122      860.547
01/03/2014  23:40:00      -42.078      -68.527       -1.433       25.347       33.601       29.066      642.476     1129.014      844.853        0.454        0.131       80.415       12.444        0.024      335.455        6.100      860.528
01/03/2014  23:41:00      -30.623       -2.362       10.056       18.490       19.167       12.356      341.898      367.370      152.672        0.095        0.043       30.714        8.259        0.072      335.355        5.933      860.554
01/03/2014  23:42:00      -34.324      -72.695        3.619       19.636       26.179       15.177      385.561      685.333      230.343        0.389        0.065       80.391       12.272        0.023      335.660        6.442      860.567
01/03/2014  23:43:00      -72.501      -31.855       -3.454       39.762       25.007       15.058     1580.984      625.358      226.754        0.436        0.122       79.190       14.787        0.035      335.384        5.984      860.584
01/03/2014  23:44:00     -142.197      -56.025      -10.235       20.219       29.325       16.152      408.807      859.956      260.891        1.250        0.076      152.836       10.823        0.005      334.880        5.143      860.593
01/03/2014  23:45:00     -111.542     -106.808        1.643       38.157       36.449       25.712     1455.954     1328.497      661.113        1.365        0.172      154.434       25.022        0.026      335.445        6.084      860.611
01/03/2014  23:46:00     -167.327      -65.199       -7.908       28.340       31.282       18.588      803.154      978.582      345.522        1.722        0.106      179.581       17.678        0.010      334.976        5.304      860.624
01/03/2014  23:47:00      -28.828      -28.038       10.148       50.601       36.518       25.031     2560.477     1333.559      626.563        0.312        0.226       40.214       23.475        0.341      334.998        5.342      860.614
01/03/2014  23:48:00     -120.718      -23.436       -1.865       64.075       29.485       24.148     4105.623      869.349      583.128        1.034        0.278      122.972       30.681        0.062      335.053        5.432      860.600
01/03/2014  23:49:00     -113.901      -85.489        1.970       89.604       60.818       34.282     8028.897     3698.857     1175.238        1.659        0.645      142.414       42.609        0.090      334.655        4.770      860.594
01/03/2014  23:50:00     -170.013     -123.764       -3.958       75.405       60.065       43.279     5685.849     3607.769     1873.108        2.770        0.558      210.290       35.741        0.029      335.071        5.460      860.562
01/03/2014  23:51:00     -180.213      -72.946       -4.717       62.260       46.272       34.773     3876.355     2141.086     1209.144        2.252        0.361      194.416       33.964        0.031      335.039        5.407      860.546
01/03/2014  23:52:00     -139.368      -39.421      -16.591       40.893       23.871       23.498     1672.220      569.844      552.146        1.202        0.140      144.836       15.165        0.011      334.980        5.313      860.539
01/03/2014  23:53:00     -117.327      -40.706      -13.844       30.331       29.717       18.863      919.993      883.119      355.808        0.889        0.108      124.187       19.297        0.024      334.927        5.224      860.527
01/03/2014  23:54:00     -112.284      -88.850        4.435       50.848       47.615       30.576     2585.498     2267.186      934.879        1.315        0.289      143.185       28.904        0.041      334.962        5.281      860.527
01/03/2014  23:55:00      -65.283      -46.678        3.567       42.751       29.673       23.499     1827.674      880.505      552.222        0.486        0.163       80.254       23.901        0.089      334.997        5.338      860.519
01/03/2014  23:56:00     -144.831      -63.484       -6.533       34.269       25.398       19.689     1174.357      645.050      387.652        1.363        0.110      158.134       13.795        0.008      334.930        5.228      860.519
01/03/2014  23:57:00     -105.003      -69.937        2.627       34.596       31.483       22.149     1196.858      991.193      490.585        0.930        0.134      126.162       20.079        0.025      335.238        5.739      860.521
01/03/2014  23:58:00      -79.818      -56.077       -2.059       15.397       27.137       13.522      237.068      736.403      182.832        0.534        0.058       97.548       10.291        0.011      335.581        6.311      860.533
01/03/2014  23:59:00     -147.221      -68.799       -5.097       34.083       34.745       19.352     1161.676     1207.219      374.509        1.459        0.137      162.504        4.651        0.001      335.298        5.838      860.548
